[[{"header":{"parameterUnit":"m.s-1","parameterCategory":1,"la1":30.6,"la2":28.766,"lo1":-90.7593,"lo2":-88.6598,"dy":0.0162,"dx":0.0183,"nx":116,"ny":114,"refTime":"2023-11-16T06:00:00:Z","depth":0,"parameterNumber":2,"parameterNumberName":"U-component_of_WINDS"},"data":[0.0,0.0,0.0,0.0,0.0,0.0,0.0,0.0,0.0,0.0,0.0,0.0,0.0,0.0,0.0,0.0,0.0,0.0,0.0,0.0,0.0,0.0,0.0,0.0,0.0,0.0,0.0,0.0,0.0,0.0,0.0,0.0,0.0,0.0,0.0,0.0,0.0,0.0,0.0,0.0,0.0,0.0,0.0,0.0,0.0,0.0,0.0,0.0,0.0,0.0,0.0,0.0,0.0,0.0,0.0,0.0,0.0,0.0,0.0,0.0,0.0,0.0,0.0,0.0,0.0,0.0,0.0,0.0,0.0,0.0,0.0,0.0,0.0,0.0,0.0,0.0,0.0,0.0,0.0,0.0,0.0,0.0,0.0,0.0,0.0,0.0,0.0,0.0,0.0,0.0,0.0,0.0,0.0,0.0,0.0,0.0,0.0,0.0,0.0,0.0,0.0,0.0,0.0,0.0,0.0,0.0,0.0,0.0,0.0,0.0,0.0,0.0,0.0,0.0,0.0,0.0,0.0,0.0,0.0,0.0,0.0,0.0,0.0,0.0,0.0,0.0,0.0,0.0,0.0,0.0,0.0,0.0,0.0,0.0,0.0,0.0,0.0,0.0,0.0,0.0,0.0,0.0,0.0,0.0,0.0,0.0,0.0,0.0,0.0,0.0,0.0,0.0,0.0,0.0,0.0,0.0,0.0,0.0,0.0,0.0,0.0,0.0,0.0,0.0,0.0,0.0,0.0,0.0,0.0,0.0,0.0,0.0,0.0,0.0,0.0,0.0,0.0,0.0,0.0,0.0,0.0,0.0,0.0,0.0,0.0,0.0,0.0,0.0,0.0,0.0,0.0,0.0,0.0,0.0,0.0,0.0,0.0,0.0,0.0,0.0,0.0,0.0,0.0,0.0,0.0,0.0,0.0,0.0,0.0,0.0,0.0,0.0,0.0,0.0,0.0,0.0,0.0,0.0,0.0,0.0,0.0,0.0,0.0,0.0,0.0,0.0,0.0,0.0,0.0,0.0,0.0,0.0,0.0,0.0,0.0,0.0,0.0,0.0,0.0,0.0,0.0,0.0,0.0,0.0,0.0,0.0,0.0,0.0,0.0,0.0,0.0,0.0,0.0,0.0,0.0,0.0,0.0,0.0,0.0,0.0,0.0,0.0,0.0,0.0,0.0,0.0,0.0,0.0,0.0,0.0,0.0,0.0,0.0,0.0,0.0,0.0,0.0,0.0,0.0,0.0,0.0,0.0,0.0,0.0,0.0,0.0,0.0,0.0,0.0,0.0,0.0,0.0,0.0,0.0,0.0,0.0,0.0,0.0,0.0,0.0,0.0,0.0,0.0,0.0,0.0,0.0,0.0,0.0,0.0,0.0,0.0,0.0,0.0,0.0,0.0,0.0,0.0,0.0,0.0,0.0,0.0,0.0,0.0,0.0,0.0,0.0,0.0,0.0,0.0,0.0,0.0,0.0,0.0,0.0,0.0,0.0,0.0,0.0,0.0,0.0,0.0,0.0,0.0,0.0,0.0,0.0,0.0,0.0,0.0,0.0,0.0,0.0,0.0,0.0,0.0,0.0,0.0,0.0,0.0,0.0,0.0,0.0,0.0,0.0,0.0,0.0,0.0,0.0,0.0,0.0,0.0,0.0,0.0,0.0,0.0,0.0,0.0,0.0,0.0,0.0,0.0,0.0,0.0,0.0,0.0,0.0,0.0,0.0,0.0,0.0,0.0,0.0,0.0,0.0,0.0,0.0,0.0,0.0,0.0,0.0,0.0,0.0,0.0,0.0,0.0,0.0,0.0,0.0,0.0,0.0,0.0,0.0,0.0,0.0,0.0,0.0,0.0,0.0,0.0,0.0,0.0,0.0,0.0,0.0,0.0,0.0,0.0,0.0,0.0,0.0,0.0,0.0,0.0,0.0,0.0,0.0,0.0,0.0,0.0,0.0,0.0,0.0,0.0,0.0,0.0,0.0,0.0,0.0,0.0,0.0,0.0,0.0,0.0,0.0,0.0,0.0,0.0,0.0,0.0,0.0,0.0,0.0,0.0,0.0,0.0,0.0,0.0,0.0,0.0,0.0,0.0,0.0,0.0,0.0,0.0,0.0,0.0,0.0,0.0,0.0,0.0,0.0,0.0,0.0,0.0,0.0,0.0,0.0,0.0,0.0,0.0,0.0,0.0,0.0,0.0,0.0,0.0,0.0,0.0,0.0,0.0,0.0,0.0,0.0,0.0,0.0,0.0,0.0,0.0,0.0,0.0,0.0,0.0,0.0,0.0,0.0,0.0,0.0,0.0,0.0,0.0,0.0,0.0,0.0,0.0,0.0,0.0,0.0,0.0,0.0,0.0,0.0,0.0,0.0,0.0,0.0,0.0,0.0,0.0,0.0,0.0,0.0,0.0,0.0,0.0,0.0,0.0,0.0,0.0,0.0,0.0,0.0,0.0,0.0,0.0,0.0,0.0,0.0,0.0,0.0,0.0,0.0,0.0,0.0,0.0,0.0,0.0,0.0,0.0,0.0,0.0,0.0,0.0,0.0,0.0,0.0,0.0,0.0,0.0,0.0,0.0,0.0,0.0,0.0,0.0,0.0,0.0,0.0,0.0,0.0,0.0,0.0,0.0,0.0,0.0,0.0,0.0,0.0,0.0,0.0,0.0,0.0,0.0,0.0,0.0,0.0,0.0,0.0,0.0,0.0,0.0,0.0,0.0,0.0,0.0,0.0,0.0,0.0,0.0,0.0,0.0,0.0,0.0,0.0,0.0,0.0,0.0,0.0,0.0,0.0,0.0,0.0,0.0,0.0,0.0,0.0,0.0,0.0,0.0,0.0,0.0,0.0,0.0,0.0,0.0,0.0,0.0,0.0,0.0,0.0,0.0,0.0,0.0,0.0,0.0,0.0,0.0,0.0,0.0,0.0,0.0,0.0,0.0,0.0,0.0,0.0,0.0,0.0,0.0,0.0,0.0,0.0,0.0,0.0,0.0,0.0,0.0,0.0,0.0,0.0,0.0,0.0,0.0,0.0,0.0,0.0,0.0,0.0,0.0,0.0,0.0,0.0,0.0,0.0,0.0,0.0,0.0,0.0,0.0,0.0,0.0,0.0,0.0,0.0,0.0,0.0,0.0,0.0,0.0,0.0,0.0,0.0,0.0,0.0,0.0,0.0,0.0,0.0,0.0,0.0,0.0,0.0,0.0,0.0,0.0,0.0,0.0,0.0,0.0,0.0,0.0,0.0,0.0,0.0,0.0,0.0,0.0,0.0,0.0,0.0,0.0,0.0,0.0,0.0,0.0,0.0,0.0,0.0,0.0,0.0,0.0,0.0,0.0,0.0,0.0,0.0,0.0,0.0,0.0,0.0,0.0,0.0,0.0,0.0,0.0,0.0,0.0,0.0,0.0,0.0,0.0,0.0,0.0,0.0,0.0,0.0,0.0,0.0,0.0,0.0,0.0,0.0,0.0,0.0,0.0,0.0,0.0,0.0,0.0,0.0,0.0,0.0,0.0,0.0,0.0,0.0,0.0,0.0,0.0,0.0,0.0,0.0,0.0,0.0,0.0,0.0,0.0,0.0,0.0,0.0,0.0,0.0,0.0,0.0,0.0,0.0,0.0,0.0,0.0,0.0,0.0,0.0,0.0,0.0,0.0,0.0,0.0,0.0,0.0,0.0,0.0,0.0,0.0,0.0,0.0,0.0,0.0,0.0,0.0,0.0,0.0,0.0,0.0,0.0,0.0,0.0,0.0,0.0,0.0,0.0,0.0,0.0,0.0,0.0,0.0,0.0,0.0,0.0,0.0,0.0,0.0,0.0,0.0,0.0,0.0,0.0,0.0,0.0,0.0,0.0,0.0,0.0,0.0,0.0,0.0,0.0,0.0,0.0,0.0,0.0,0.0,0.0,0.0,0.0,0.0,0.0,0.0,0.0,0.0,0.0,0.0,0.0,0.0,0.0,0.0,0.0,0.0,0.0,0.0,0.0,0.0,0.0,0.0,0.0,0.0,0.0,0.0,0.0,0.0,0.0,0.0,0.0,0.0,0.0,0.0,0.0,0.0,0.0,0.0,0.0,0.0,0.0,0.0,0.0,0.0,0.0,0.0,0.0,0.0,0.0,0.0,0.0,0.0,0.0,0.0,0.0,0.0,0.0,0.0,0.0,0.0,0.0,0.0,0.0,0.0,0.0,0.0,0.0,0.0,0.0,0.0,0.0,0.0,0.0,0.0,0.0,0.0,0.0,0.0,0.0,0.0,0.0,0.0,0.0,0.0,0.0,0.0,0.0,0.0,0.0,0.0,0.0,0.0,0.0,0.0,0.0,0.0,0.0,0.0,0.0,0.0,0.0,0.0,0.0,0.0,0.0,0.0,0.0,0.0,0.0,0.0,0.0,0.0,0.0,0.0,0.0,0.0,0.0,0.0,0.0,0.0,0.0,0.0,0.0,0.0,0.0,0.0,0.0,0.0,0.0,0.0,0.0,0.0,0.0,0.0,0.0,0.0,0.0,0.0,0.0,0.0,0.0,0.0,0.0,0.0,0.0,0.0,0.0,0.0,0.0,0.0,0.0,0.0,0.0,0.0,0.0,0.0,0.0,0.0,0.0,0.0,0.0,0.0,0.0,0.0,0.0,0.0,0.0,0.0,0.0,0.0,0.0,0.0,0.0,0.0,0.0,0.0,0.0,0.0,0.0,0.0,0.0,0.0,0.0,0.0,0.0,0.0,0.0,0.0,0.0,0.0,0.0,0.0,0.0,0.0,0.0,0.0,0.0,0.0,0.0,0.0,0.0,0.0,0.0,0.0,0.0,0.0,0.0,0.0,0.0,0.0,0.0,0.0,0.0,0.0,0.0,0.0,0.0,0.0,0.0,0.0,0.0,0.0,0.0,0.0,0.0,0.0,0.0,0.0,0.0,0.0,0.0,0.0,0.0,0.0,0.0,0.0,0.0,0.0,0.0,0.0,0.0,0.0,0.0,0.0,0.0,0.0,0.0,0.0,0.0,0.0,0.0,0.0,0.0,0.0,0.0,0.0,0.0,0.0,0.0,0.0,0.0,0.0,0.0,0.0,0.0,0.0,0.0,0.0,0.0,0.0,0.0,0.0,0.0,0.0,0.0,0.0,0.0,0.0,0.0,0.0,0.0,0.0,0.0,0.0,0.0,0.0,0.0,0.0,0.0,0.0,0.0,0.0,0.0,0.0,0.0,0.0,0.0,0.0,0.0,0.0,0.0,0.0,0.0,0.0,0.0,0.0,0.0,0.0,0.0,0.0,0.0,0.0,0.0,0.0,0.0,0.0,0.0,0.0,0.0,0.0,0.0,0.0,0.0,0.0,0.0,0.0,0.0,0.0,0.0,0.0,0.0,0.0,0.0,0.0,0.0,0.0,0.0,0.0,0.0,0.0,0.0,0.0,0.0,0.0,0.0,0.0,0.0,0.0,0.0,0.0,0.0,0.0,0.0,0.0,0.0,0.0,0.0,0.0,0.0,0.0,0.0,0.0,0.0,0.0,0.0,0.0,0.0,0.0,0.0,0.0,0.0,0.0,0.0,0.0,0.0,0.0,0.0,0.0,0.0,0.0,0.0,0.0,0.0,0.0,0.0,0.0,0.0,0.0,0.0,0.0,0.0,0.0,0.0,0.0,0.0,0.0,0.0,0.0,0.0,0.0,0.0,0.0,0.0,0.0,0.0,0.0,0.0,0.0,0.0,0.0,0.0,0.0,0.0,0.0,0.0,0.0,0.0,0.0,0.0,0.0,0.0,0.0,0.0,0.0,0.0,0.0,0.0,0.0,0.0,0.0,0.0,0.0,0.0,0.0,0.0,0.0,0.0,0.0,0.0,0.0,0.0,0.0,0.0,0.0,0.0,0.0,0.0,0.0,0.0,0.0,0.0,0.0,0.0,0.0,0.0,0.0,0.0,0.0,0.0,0.0,0.0,0.0,0.0,0.0,0.0,0.0,0.0,0.0,0.0,0.0,0.0,0.0,0.0,0.0,0.0,0.0,0.0,0.0,0.0,0.0,0.0,0.0,0.0,0.0,0.0,0.0,0.0,0.0,0.0,0.0,0.0,0.0,0.0,0.0,0.0,0.0,0.0,0.0,0.0,-7.7101,0.0,0.0,0.0,0.0,0.0,0.0,0.0,0.0,0.0,0.0,0.0,0.0,0.0,0.0,0.0,0.0,0.0,0.0,0.0,0.0,0.0,0.0,0.0,0.0,0.0,0.0,0.0,0.0,0.0,0.0,0.0,0.0,0.0,0.0,0.0,0.0,0.0,0.0,-6.236,-6.2679,-6.278,-6.278,-6.2401,-6.2218,-6.2218,0.0,0.0,0.0,0.0,0.0,0.0,0.0,0.0,0.0,0.0,0.0,0.0,0.0,0.0,0.0,0.0,0.0,0.0,0.0,0.0,0.0,0.0,0.0,0.0,0.0,0.0,0.0,0.0,0.0,0.0,0.0,0.0,0.0,0.0,0.0,0.0,0.0,0.0,0.0,0.0,0.0,0.0,0.0,0.0,0.0,0.0,0.0,0.0,0.0,0.0,0.0,0.0,0.0,0.0,0.0,0.0,0.0,0.0,0.0,0.0,0.0,0.0,0.0,0.0,0.0,0.0,0.0,0.0,0.0,0.0,0.0,-7.7101,0.0,0.0,0.0,0.0,0.0,0.0,0.0,0.0,0.0,0.0,0.0,0.0,0.0,0.0,0.0,0.0,0.0,0.0,0.0,0.0,0.0,0.0,0.0,-5.8254,-5.7881,-5.7881,-5.7881,-5.7881,0.0,0.0,0.0,0.0,0.0,0.0,-6.0879,-6.1472,-6.1842,-6.2059,-6.2431,-6.2585,-6.2585,-6.1777,-6.13,-6.119,-6.1337,0.0,0.0,0.0,0.0,0.0,0.0,0.0,0.0,0.0,0.0,0.0,0.0,0.0,0.0,0.0,0.0,0.0,0.0,0.0,0.0,0.0,0.0,0.0,0.0,0.0,0.0,0.0,0.0,0.0,0.0,0.0,0.0,0.0,0.0,0.0,0.0,0.0,0.0,0.0,0.0,0.0,0.0,0.0,0.0,0.0,0.0,0.0,0.0,0.0,0.0,0.0,0.0,0.0,0.0,0.0,0.0,0.0,0.0,0.0,0.0,0.0,0.0,0.0,-7.7101,-7.7101,-7.7101,-7.7101,-7.7101,-7.7101,-7.7101,-7.7101,-7.7101,-7.7101,0.0,0.0,0.0,0.0,0.0,0.0,0.0,0.0,0.0,0.0,0.0,0.0,0.0,0.0,0.0,0.0,0.0,0.0,0.0,0.0,0.0,-5.7949,-5.7881,-5.7881,-5.7881,-5.7881,-5.7881,0.0,0.0,0.0,0.0,0.0,-6.0849,-6.1003,-6.1548,-6.2679,-6.2083,-6.1741,-6.1741,-6.0933,-6.0199,-5.9551,-6.0272,-6.0493,-6.0419,0.0,0.0,0.0,0.0,0.0,0.0,0.0,0.0,0.0,0.0,0.0,0.0,0.0,0.0,0.0,0.0,0.0,0.0,0.0,0.0,0.0,0.0,0.0,0.0,0.0,0.0,0.0,0.0,0.0,0.0,0.0,0.0,0.0,0.0,0.0,0.0,0.0,0.0,0.0,0.0,0.0,-7.0898,-7.0898,0.0,0.0,0.0,0.0,0.0,0.0,0.0,0.0,0.0,0.0,0.0,0.0,0.0,-7.6164,-7.6906,-7.7023,-7.7101,-7.7101,-7.7101,-7.7101,-7.7101,-7.7101,-7.7101,-7.7101,-7.7101,0.0,-7.7101,-7.7101,0.0,0.0,0.0,0.0,0.0,0.0,0.0,0.0,0.0,0.0,0.0,0.0,0.0,0.0,0.0,0.0,0.0,0.0,0.0,0.0,0.0,-5.7881,-5.7881,-5.7881,-5.7881,-5.7881,-5.7881,-5.8063,0.0,0.0,0.0,-5.8908,-5.9207,-6.0306,-6.1304,-6.2144,-6.1777,-6.1374,-6.0896,-6.0126,-5.9515,-5.9184,-5.9098,-5.9061,-5.9061,-5.9061,0.0,0.0,0.0,0.0,0.0,0.0,0.0,0.0,0.0,0.0,0.0,0.0,0.0,0.0,0.0,0.0,0.0,0.0,0.0,0.0,0.0,0.0,0.0,0.0,0.0,0.0,0.0,0.0,0.0,0.0,0.0,0.0,0.0,0.0,0.0,0.0,0.0,0.0,0.0,-7.0898,-7.0898,-7.0898,-7.0898,-7.0966,0.0,0.0,0.0,0.0,0.0,0.0,0.0,0.0,0.0,-7.5777,-7.6281,-7.6711,-7.7101,-7.7101,-7.7101,-7.7101,-7.7101,-7.7101,-7.7101,-7.7101,-7.7101,-7.7101,-7.7101,-7.7101,-7.7101,-7.7101,-7.7101,-7.7101,0.0,0.0,0.0,0.0,-7.6877,-7.6852,0.0,0.0,0.0,0.0,0.0,0.0,0.0,0.0,0.0,0.0,0.0,0.0,-5.8051,-5.7881,-5.7881,-5.7881,-5.7881,-5.7881,-5.7881,-5.8063,-5.8312,-5.849,-5.8666,-5.86,-5.8175,-5.9714,-6.0928,-6.1594,-6.119,-6.0676,-6.0089,-5.9258,-5.8914,-5.8877,-5.8253,-5.7997,-5.7997,-5.7997,-5.7997,-5.7997,0.0,0.0,0.0,0.0,0.0,0.0,0.0,0.0,0.0,0.0,0.0,0.0,0.0,0.0,0.0,0.0,0.0,0.0,0.0,0.0,0.0,0.0,0.0,0.0,0.0,0.0,0.0,0.0,0.0,0.0,0.0,0.0,0.0,0.0,0.0,0.0,0.0,-7.0898,-7.0898,-7.0898,-7.0965,-7.1055,0.0,0.0,0.0,0.0,0.0,0.0,-7.3549,-7.4408,-7.5227,-7.6125,-7.675,-7.7101,-7.7101,-7.7101,-7.7101,-7.7101,-7.7101,-7.7101,-7.7101,-7.7101,-7.7053,-7.7036,-7.7036,-7.6985,-7.6965,-7.7024,-7.7036,-7.7032,-7.7203,-7.7183,-7.7098,-7.7293,-7.7338,-7.7338,0.0,0.0,0.0,0.0,0.0,0.0,0.0,0.0,0.0,0.0,0.0,-5.9539,-5.8051,-5.7881,-5.7881,-5.7881,-5.7881,-5.7881,-5.7881,-5.8063,-5.8312,-5.849,-5.8666,-5.8803,-5.885,-5.9386,-6.0311,-6.1594,-6.0089,-5.9294,-5.9221,-5.8437,-5.807,-5.807,-5.8033,-5.7997,-5.7997,-5.7997,-5.7997,-5.7997,-5.7997,0.0,0.0,0.0,0.0,0.0,0.0,0.0,0.0,0.0,0.0,0.0,0.0,0.0,0.0,0.0,0.0,0.0,0.0,0.0,0.0,0.0,0.0,0.0,0.0,0.0,0.0,0.0,0.0,0.0,0.0,0.0,0.0,0.0,0.0,0.0,0.0,0.0,0.0,-7.0898,-7.1053,0.0,0.0,0.0,0.0,-7.17,-7.265,-7.3588,-7.4408,-7.5266,-7.6125,-7.7023,-7.7062,-7.7101,-7.7101,-7.7101,-7.7101,-7.7101,-7.7101,-7.7101,-7.7101,-7.7101,-7.6985,-7.681,-7.681,-7.6741,-7.6652,-7.6761,-7.681,-7.6876,-7.7509,-7.7745,-7.7852,-7.8668,-7.897,-7.8932,0.0,0.0,0.0,0.0,0.0,0.0,0.0,0.0,-6.1839,-6.0283,-6.0114,-5.9539,-5.8051,-5.7881,-5.7881,-5.7881,-5.7881,-5.7881,-5.7881,-5.8063,-5.8312,-5.849,-5.8186,-5.8043,-5.8141,-5.8688,-5.9132,-5.9488,-5.9298,-5.8927,-5.8437,-5.8143,-5.7997,-5.7997,-5.7997,-5.7997,-5.7997,-5.7997,-5.7997,-5.7997,-5.7997,-5.7997,0.0,0.0,0.0,0.0,0.0,0.0,0.0,0.0,0.0,0.0,0.0,0.0,0.0,0.0,0.0,0.0,0.0,0.0,0.0,0.0,0.0,0.0,0.0,0.0,0.0,0.0,0.0,0.0,0.0,0.0,0.0,0.0,0.0,0.0,0.0,0.0,0.0,-7.0898,-7.0953,0.0,-7.1005,-7.1358,-7.1807,-7.2312,-7.2929,-7.39,-7.5266,-7.5618,-7.6203,-7.7062,-7.7101,-7.7101,-7.7101,-7.7101,-7.7101,-7.7101,-7.7101,-7.7039,-7.6902,-7.6902,-7.6882,-7.6838,-7.7244,-7.7501,-7.757,-7.7951,-7.7825,-7.7501,-7.8327,-7.8573,-7.8486,-7.8796,-7.8808,-7.8773,0.0,0.0,0.0,0.0,0.0,0.0,0.0,0.0,-6.1941,-6.0655,-6.0283,-5.9641,-5.8389,-5.8051,-5.7881,-5.7881,-5.7881,-5.7881,-5.7881,-5.8027,-5.8241,-5.849,-5.8015,-5.7832,-5.8105,-5.7966,-5.8037,-5.83,-5.8409,-5.8346,-5.7997,-5.7997,-5.7997,-5.7997,-5.7997,-5.7997,-5.7997,-5.7997,-5.7997,-5.7997,-5.7997,-5.8143,-5.8437,0.0,0.0,0.0,0.0,0.0,0.0,0.0,0.0,0.0,0.0,0.0,0.0,0.0,0.0,0.0,0.0,0.0,0.0,0.0,0.0,0.0,0.0,0.0,0.0,0.0,0.0,0.0,0.0,0.0,0.0,0.0,0.0,0.0,0.0,0.0,-7.0898,-7.0898,-7.094,-7.1005,-7.1005,-7.129,-7.1855,-7.2733,-7.3324,-7.4269,-7.5735,-7.6086,-7.6516,-7.7062,-7.7101,-7.705,-7.6985,-7.705,-7.705,-7.6985,-7.705,-7.7036,-7.6897,-7.6822,-7.6936,-7.7149,-7.7562,-7.7894,-7.8282,-7.8912,-7.8863,-7.8513,-7.9094,-7.926,-7.9185,-7.9455,-7.9499,-7.9438,0.0,0.0,0.0,0.0,0.0,0.0,0.0,-6.2381,-6.2144,-6.14,-6.0622,-5.9844,-5.9099,-5.8355,-5.7915,-5.7881,-5.7881,-5.7881,-5.7881,-5.7918,-5.8063,-5.8456,-5.8118,-5.8241,-5.8811,-5.7333,-5.7107,-5.8275,-5.7478,-5.7425,-5.7997,-5.7997,-5.7997,-5.7997,-5.7997,-5.7997,-5.7997,-5.7997,-5.7997,-5.7997,-5.7997,-5.8474,-5.9111,0.0,0.0,0.0,0.0,0.0,0.0,0.0,0.0,0.0,0.0,0.0,0.0,0.0,0.0,0.0,0.0,0.0,0.0,0.0,0.0,0.0,0.0,0.0,0.0,0.0,0.0,0.0,0.0,0.0,0.0,0.0,0.0,0.0,-7.0898,-7.0898,-7.0898,-7.0898,-7.1053,-7.1203,-7.1203,-7.1406,-7.1933,-7.2969,-7.3837,-7.4787,-7.5765,-7.6627,-7.7095,-7.7095,-7.7098,-7.6985,-7.6804,-7.6985,-7.6985,-7.681,-7.7028,-7.7098,-7.7092,-7.6926,-7.7181,-7.7777,-7.765,-7.7936,-7.8607,-7.9477,-7.9862,-7.9862,-7.9862,-7.9862,-7.9939,-8.0785,-8.1093,-8.1093,0.0,0.0,0.0,0.0,0.0,0.0,-6.2076,-6.2302,-6.2144,-6.14,-6.1129,-6.0486,-5.9167,-5.8829,-5.849,-5.7949,-5.7881,-5.7881,-5.7881,-5.8027,-5.804,-5.7844,-5.8393,-5.8286,-5.7411,-5.7761,-5.7847,-5.7674,-5.7726,-5.7821,-5.7997,-5.7997,-5.7997,-5.7997,-5.7997,-5.7997,-5.7997,-5.7997,-5.7997,-5.7997,-5.7997,-5.8474,-5.9184,0.0,0.0,0.0,0.0,0.0,0.0,0.0,0.0,0.0,0.0,0.0,0.0,0.0,0.0,0.0,0.0,0.0,0.0,0.0,0.0,0.0,0.0,0.0,0.0,0.0,0.0,0.0,0.0,0.0,0.0,0.0,0.0,-7.0898,-7.0898,-7.0898,-7.0898,-7.0898,-7.0965,-7.0979,-7.0979,-7.175,-7.2569,-7.3443,-7.4434,-7.5417,-7.6324,-7.6597,-7.6752,-7.6752,-7.6849,-7.6877,-7.6804,-7.6985,-7.7053,-7.7032,-7.7053,-7.6965,-7.6752,-7.7284,-7.7544,-7.7639,-7.872,-7.9373,-7.97,-8.0453,-8.0746,-8.0746,-8.0746,-8.0746,-8.0785,-8.1016,-8.1093,-8.1093,0.0,0.0,0.0,0.0,0.0,0.0,-6.1324,-6.1561,-6.1662,-6.1767,-6.1501,-6.0825,-5.9607,-5.9201,-5.8693,-5.7949,-5.7881,-5.7881,-5.7881,-5.8171,-5.825,-5.8119,-5.8668,-5.8461,-5.7288,-5.7615,-5.754,-5.7027,-5.7205,-5.7401,-5.7655,-5.7867,-5.7997,-5.7997,-5.7997,-5.7997,-5.7997,-5.7997,-5.7997,-5.8033,-5.8364,-5.8988,-5.9698,-5.9698,-6.0713,-6.2071,-6.1704,-6.2108,-6.278,-6.278,0.0,0.0,0.0,0.0,0.0,0.0,0.0,0.0,0.0,0.0,0.0,0.0,0.0,0.0,0.0,0.0,0.0,0.0,0.0,0.0,0.0,0.0,0.0,0.0,-7.0898,-7.0898,-7.0898,-7.0898,-7.0898,-7.0898,-7.0898,-7.1052,-7.1398,-7.2007,-7.2889,-7.4154,-7.4826,-7.5585,-7.6531,-7.6618,-7.6618,-7.6618,-7.6669,-7.6721,-7.6721,-7.6838,-7.6872,-7.6872,-7.6872,-7.6988,-7.7105,-7.7487,-7.7993,0.0,-7.9456,-8.0068,-8.0572,-8.0938,-8.1093,0.0,0.0,0.0,0.0,0.0,-8.1093,-8.1093,0.0,0.0,0.0,0.0,0.0,0.0,-6.0247,-6.0544,-6.1036,-6.211,-6.1767,-6.1129,-6.0317,-5.9573,-5.8829,-5.8084,-5.7949,-5.7881,-5.7881,-5.8277,-5.8561,-5.8736,-5.8909,-5.8668,-5.8047,-5.7354,-5.6915,-5.6636,-5.6496,-5.6617,-5.704,-5.7594,-5.7904,-5.7927,-5.7973,-5.7997,-5.7997,-5.7997,-5.8033,-5.8217,-5.9024,-5.9735,-6.0419,-6.0493,-6.1484,-6.2732,-6.1998,-6.2181,-6.278,-6.278,0.0,0.0,0.0,0.0,0.0,0.0,0.0,0.0,0.0,0.0,0.0,0.0,0.0,0.0,0.0,0.0,0.0,0.0,0.0,0.0,0.0,0.0,0.0,0.0,-7.0898,-7.0898,-7.0898,-7.0898,-7.0898,-7.0898,-7.0975,-7.136,-7.2129,-7.236,-7.3162,-7.483,-7.5047,-7.5526,-7.6458,0.0,0.0,0.0,0.0,-7.6582,-7.6582,-7.66,-7.6618,-7.6618,-7.6618,-7.7028,-7.7758,-7.7689,-7.8539,-8.0074,-7.9981,-8.04,-8.1093,-8.1093,-8.1093,-8.1093,-8.1093,-8.1093,-8.1093,-8.1093,-8.1093,-8.1093,0.0,0.0,0.0,0.0,0.0,0.0,-5.9125,-6.0161,-6.0986,-6.1268,-6.1776,-6.1907,-6.1163,-6.0351,-5.9607,-5.8863,-5.8254,-5.7881,-5.7881,-5.8099,-5.8348,-5.8561,-5.8736,-5.8841,-5.8806,-5.8542,-5.809,-5.7443,-5.7291,-5.691,-5.6465,-5.7015,-5.7266,-5.7327,-5.7774,-5.7997,-5.7997,-5.7997,-5.8364,-5.9038,-5.9832,-6.0272,-6.0456,-6.1117,-6.1961,-6.278,-6.2622,-6.2695,-6.278,-6.278,-6.278,-6.278,-6.278,-6.278,0.0,0.0,0.0,0.0,0.0,0.0,0.0,0.0,0.0,0.0,0.0,0.0,0.0,0.0,0.0,0.0,0.0,0.0,0.0,-7.0898,-7.0898,-7.0898,-7.0898,-7.0898,-7.0898,-7.0898,-7.1514,-7.2014,-7.2168,-7.3437,-7.4389,-7.4753,-7.5408,-7.5898,-7.6106,-7.6106,-7.6106,-7.6106,-7.6246,-7.6361,-7.6361,-7.6536,-7.6618,-7.6618,0.0,0.0,-7.7589,-7.8266,-7.9018,-7.9899,-8.0585,-8.0939,-8.1093,-8.1093,-8.1093,-8.1093,-8.1093,-8.1093,-8.1093,-8.1093,-8.1093,-8.1093,0.0,0.0,0.0,0.0,0.0,0.0,0.0,-5.8722,-5.9467,-6.0194,-6.0694,-6.0886,-6.0625,-5.9862,-5.9319,-5.9028,-5.8321,-5.7918,-5.8027,-5.8135,-5.8312,-5.849,-5.8666,-5.8806,-5.8909,-5.8522,-5.8161,-5.7779,-5.763,-5.7146,-5.6396,-5.6984,-5.7038,-5.6731,-5.7302,-5.7765,-5.8154,-5.8467,-5.9061,-5.9869,-6.0676,-6.1006,-6.108,-6.1887,-6.2438,-6.278,-6.278,-6.278,-6.278,-6.278,-6.278,-6.278,-6.278,-6.3099,-6.3686,0.0,0.0,0.0,0.0,0.0,0.0,0.0,0.0,0.0,0.0,0.0,0.0,0.0,0.0,-7.0898,0.0,0.0,-7.0898,-7.0898,-7.0898,-7.0898,-7.0898,-7.0898,-7.1052,-7.1514,-7.1937,-7.2514,-7.336,-7.4207,-7.4899,-7.5322,-7.5745,-7.6015,-7.6015,-7.6015,-7.6015,-7.6015,-7.6093,-7.6186,-7.6281,-7.6281,-7.635,-7.6457,-7.6803,-7.733,-7.8012,-7.8885,-7.9726,-8.0477,-8.09,-8.1093,-8.1093,-8.1093,-8.1093,-8.1093,-8.1093,-8.1093,-8.1093,-8.1093,-8.1093,-8.1093,0.0,0.0,0.0,0.0,0.0,0.0,0.0,-5.7355,-5.7932,-5.9145,-5.9455,-5.9654,-5.9819,-5.9144,-5.8674,-5.8728,-5.8211,-5.7954,-5.8135,-5.8135,-5.8241,-5.8455,-5.8596,-5.8701,-5.8805,-5.8324,-5.8013,-5.7909,-5.7808,-5.7328,-5.6589,-5.7188,-5.715,-5.6601,-5.7109,-5.7732,-5.8398,-5.9005,-5.97,-6.053,-6.1288,-6.1704,-6.1887,-6.2548,-6.278,-6.278,-6.278,-6.278,-6.278,-6.278,-6.278,-6.278,-6.278,-6.3392,-6.4237,-6.5081,-6.5888,0.0,0.0,0.0,0.0,0.0,0.0,0.0,0.0,-6.9777,-7.0047,-7.0601,-7.0815,-7.0898,-7.0898,-7.0898,-7.0898,-7.0898,-7.0898,-7.0898,-7.0898,-7.1052,-7.1475,-7.236,-7.2437,-7.3053,-7.4553,-7.4861,-7.5245,-7.5938,-7.6015,-7.6015,-7.6015,-7.6015,-7.6015,-7.6015,-7.6015,-7.609,-7.6248,-7.6066,-7.6066,-7.6248,-7.6938,-7.7707,-7.8515,-7.94,-8.0285,-8.1093,-8.1093,-8.1093,-8.1093,-8.1093,-8.1093,-8.1093,-8.1093,-8.1093,-8.1093,-8.1093,-8.1093,-8.1093,0.0,0.0,0.0,0.0,0.0,0.0,0.0,0.0,-5.7917,-5.8272,-5.9088,-5.9598,-5.9621,-5.8939,-5.8228,-5.7806,-5.7842,-5.7918,-5.7918,-5.7918,-5.8027,-5.8207,-5.8277,-5.8455,-5.8771,-5.8737,-5.8428,-5.7909,-5.7872,-5.7491,-5.6798,-5.7398,-5.7635,-5.7595,-5.8117,-5.8381,-5.8509,-5.9177,-5.9947,-6.0699,-6.1359,-6.2034,-6.2695,-6.2743,-6.278,-6.278,-6.278,-6.278,-6.278,-6.278,-6.278,-6.278,-6.278,-6.3392,-6.4237,-6.5081,-6.5888,-6.6659,-6.7467,-6.7687,-6.7714,-6.7767,-6.7863,-6.8109,0.0,0.0,-6.9702,-7.0271,-7.0676,-7.0898,-7.0898,-7.0898,-7.0898,-7.0898,-7.0898,-7.0898,-7.0898,-7.1552,-7.236,-7.3245,-7.336,-7.3707,-7.463,-7.5399,-7.5899,-7.5976,-7.6015,-7.6015,-7.6015,-7.6015,-7.6015,-7.6015,-7.6015,-7.5991,-7.6034,-7.5991,-7.5991,-7.6034,-7.6876,-7.7707,-7.8515,-7.94,-8.0285,-8.1093,-8.1093,-8.1093,-8.1093,-8.1093,-8.1093,-8.1093,-8.1093,-8.1093,-8.1093,-8.1093,-8.1093,-8.1093,0.0,0.0,0.0,0.0,0.0,0.0,0.0,0.0,0.0,-5.7353,-5.7746,-5.818,-5.8728,-5.9069,-5.8815,-5.7688,-5.8207,-5.8355,-5.7915,-5.7881,-5.7918,-5.8027,-5.8135,-5.8277,-5.8455,-5.8561,-5.8564,-5.8393,-5.8393,-5.8083,-5.746,-5.7723,-5.761,-5.719,-5.7781,-5.8295,-5.8749,-5.9359,-6.008,-6.0883,-6.1524,-6.1954,-6.2334,-6.2679,-6.278,-6.278,-6.278,-6.278,0.0,-6.278,-6.278,-6.289,-6.3392,-6.4127,-6.4971,-6.5778,-6.6549,-6.7247,-6.7614,-6.7687,-6.7687,-6.7687,-6.7741,-6.7941,-6.844,-6.875,-6.9064,-6.9607,-6.9829,-7.0061,-7.0362,-7.0448,-7.0524,0.0,-7.0898,-7.1091,-7.1591,-7.1975,-7.2706,-7.4053,-7.4207,-7.4553,-7.5361,-7.5784,-7.6015,-7.6015,-7.6015,-7.6015,-7.6015,-7.6015,-7.6015,-7.6015,-7.6015,-7.6015,-7.6015,-7.6015,-7.6015,-7.6015,-7.7361,-7.8169,-7.8554,-7.9939,-8.0746,-8.1093,-8.1093,-8.1093,-8.1093,-8.1093,-8.1093,-8.1093,-8.1093,-8.1093,-8.1093,-8.1093,-8.1093,-8.1093,0.0,0.0,0.0,0.0,0.0,0.0,0.0,0.0,0.0,0.0,-5.6761,-5.7098,-5.7746,-5.8578,-5.8647,-5.7527,-5.8341,-5.8589,-5.7887,-5.8076,-5.8118,-5.7915,-5.8027,-5.8135,-5.8171,-5.8348,-5.8525,-5.8701,-5.8701,-5.8496,-5.8084,-5.8118,-5.7876,-5.7393,-5.7848,-5.8384,-5.8972,-5.9527,-6.0118,-6.0706,-6.1386,-6.1612,-6.1668,-6.2112,-6.2271,-6.2324,-6.2679,-6.278,-6.278,-6.278,-6.2989,-6.3282,-6.3906,-6.4787,-6.5742,-6.6329,-6.7063,-6.7687,-6.7687,-6.7687,-6.7687,-6.7687,-6.7741,-6.7863,-6.8235,-6.844,-6.866,-6.9085,-6.9272,-6.9511,-7.0061,-7.0145,-7.0314,-7.0805,-7.1091,-7.1475,-7.2091,-7.2591,-7.3322,-7.4553,-7.4899,-7.5322,-7.5938,-7.6015,-7.6015,-7.6015,-7.6015,-7.6015,-7.6015,-7.6015,-7.6015,-7.6015,-7.6015,-7.6015,-7.6015,-7.6015,-7.613,-7.6361,-7.7823,-7.8631,-7.89,-8.04,-8.1093,-8.1093,-8.1093,-8.1093,-8.1093,-8.1093,-8.1093,-8.1093,-8.1093,-8.1093,-8.1093,-8.1093,-8.1093,-8.1093,0.0,0.0,0.0,0.0,0.0,0.0,0.0,0.0,0.0,0.0,0.0,0.0,0.0,-5.6995,-5.7073,-5.701,-5.8069,-5.8396,-5.7668,-5.8442,-5.866,-5.7915,-5.7918,-5.7991,-5.8205,-5.8241,-5.8312,-5.8525,-5.8525,-5.8525,-5.8491,-5.8667,-5.8771,-5.8771,-5.8875,-5.8978,-5.9046,-5.9711,-6.0001,-6.0097,-6.0676,-6.0944,-6.0909,-6.0938,-6.0938,-6.1149,-6.235,-6.278,-6.278,-6.278,-6.3356,-6.4053,-6.409,-6.5191,-6.6476,-6.6476,-6.7063,-6.7687,-6.7687,-6.7687,-6.7687,-6.7687,-6.7794,-6.7926,-6.7889,-6.8321,-6.8743,-6.8878,-6.9206,-6.9664,-7.0183,-7.0304,-7.0416,-7.0819,-7.1591,-7.2168,-7.2206,-7.3591,-7.463,-7.4707,-7.5438,-7.5976,0.0,-7.6015,-7.6015,-7.6015,-7.6015,-7.6015,-7.6015,-7.6015,-7.6015,-7.6015,-7.6015,-7.6015,-7.6015,-7.6015,-7.6438,-7.7284,-7.8092,-7.8938,-7.9785,-8.0708,-8.1093,-8.1093,-8.1093,-8.1093,-8.1093,-8.1093,-8.1093,-8.1093,-8.1093,-8.1093,-8.1093,-8.1093,-8.1093,-8.1093,0.0,0.0,0.0,0.0,0.0,0.0,0.0,0.0,0.0,0.0,0.0,0.0,0.0,0.0,0.0,0.0,-5.7957,-5.851,-5.8316,-5.8169,-5.826,-5.8589,-5.8152,-5.7918,-5.7991,-5.7991,-5.8099,-5.8312,-5.8312,-5.8384,-5.849,-5.8561,-5.8596,-5.8596,-5.8666,-5.8701,-5.8667,-5.8909,-5.9012,-5.9046,-5.9806,-6.009,-6.0153,-6.0706,-6.0879,-6.1045,0.0,-6.2602,-6.3046,-6.3485,-6.42,-6.5007,-6.5521,-6.6072,-6.6586,-6.7136,-6.7467,-6.7687,-6.7687,-6.7687,-6.7687,-6.7687,-6.7741,-6.7767,-6.7767,-6.7915,-6.8058,-6.8109,-6.8222,-6.865,-6.9691,-6.9524,-6.9751,-7.1293,-7.1684,-7.2202,-7.3297,-7.419,-7.4899,-7.5476,-7.5822,0.0,0.0,0.0,0.0,-7.6015,-7.6015,-7.6015,-7.6015,-7.6015,-7.6015,-7.6015,-7.6015,-7.6015,-7.6015,-7.6015,-7.6438,-7.7323,-7.8707,-7.9823,-8.0669,-8.0977,-8.1093,-8.1093,-8.1093,-8.1093,-8.1093,-8.1093,-8.1093,-8.1093,-8.1093,-8.1093,-8.1093,-8.1093,-8.1093,-8.1093,0.0,0.0,0.0,0.0,0.0,0.0,0.0,0.0,0.0,0.0,0.0,0.0,0.0,0.0,0.0,0.0,0.0,-5.828,-5.8092,-5.8297,-5.8468,-5.8509,-5.8376,-5.8152,-5.7881,-5.7881,-5.7954,-5.8063,-5.8063,-5.8135,-5.8312,-5.8384,-5.8384,-5.8419,-5.849,-5.849,-5.849,-5.849,-5.849,-5.8561,-5.908,-5.9282,-5.9383,-6.0215,-6.0544,0.0,-6.1777,-6.2643,-6.3334,-6.3939,-6.4656,-6.545,-6.625,-6.6696,-6.7026,-6.754,-6.7687,-6.7687,-6.7687,-6.7687,-6.7687,-6.7687,-6.7687,-6.7687,-6.7687,-6.7687,-6.7714,-6.7767,-6.7767,-6.8188,-6.9543,-6.9458,-6.9806,-7.1618,-7.2111,-7.267,-7.39,-7.4577,-7.5188,-7.5923,-7.6015,-7.6015,0.0,0.0,0.0,-7.6015,-7.6015,-7.6015,-7.6015,-7.6015,-7.6015,-7.6015,-7.6015,-7.6015,-7.6015,-7.6015,-7.6592,-7.7746,-7.9438,-8.0554,-8.1093,-8.1093,-8.1093,-8.1093,-8.1093,-8.1093,-8.1093,-8.1093,-8.1093,-8.1093,-8.1093,-8.1093,-8.1093,-8.1093,-8.1093,-8.1093,0.0,0.0,0.0,0.0,0.0,0.0,0.0,0.0,0.0,0.0,0.0,0.0,0.0,0.0,0.0,0.0,0.0,0.0,-5.7109,-5.8765,-5.9135,-5.7714,-5.8504,-5.8653,-5.7913,-5.7949,-5.7915,-5.7881,-5.7881,-5.7881,-5.7881,-5.8099,-5.8171,-5.8171,-5.8384,-5.849,-5.849,-5.849,-5.8489,-5.8523,-5.8558,-5.8558,-5.8695,-5.9592,-5.9938,-6.0147,-6.1741,-6.2813,-6.3504,-6.404,-6.483,-6.5633,-6.6326,-6.71,-6.7687,-6.7687,-6.7687,-6.7687,-6.7687,-6.7687,-6.7687,-6.7687,-6.7687,-6.7687,-6.7687,-6.7687,-6.7741,-6.7873,-6.7899,-6.8365,0.0,0.0,-7.0541,-7.1744,-7.2762,-7.3553,-7.4041,-7.476,-7.5451,0.0,0.0,0.0,0.0,0.0,0.0,-7.6015,0.0,-7.6015,-7.6015,-7.6015,-7.6015,-7.6015,-7.6015,-7.6015,-7.6015,-7.6092,-7.6938,-7.853,-8.0285,-8.1093,-8.1093,-8.1093,-8.1093,-8.1093,-8.1093,-8.1093,-8.1093,-8.1093,-8.1093,-8.1093,-8.1093,-8.1093,-8.1093,-8.1093,-8.1093,-8.1093,0.0,0.0,0.0,0.0,0.0,0.0,0.0,0.0,0.0,0.0,0.0,0.0,0.0,0.0,0.0,0.0,0.0,0.0,-5.7835,-5.7796,-5.7891,-5.819,-5.8566,-5.8447,-5.7676,-5.8358,-5.8457,-5.7881,-5.7881,-5.7881,-5.7881,-5.7954,-5.7954,-5.7954,-5.8027,-5.8027,-5.8027,-5.8027,-5.8366,-5.8875,-5.9021,-5.9434,-5.9945,-6.0369,-6.051,-6.0649,-6.1803,-6.2361,-6.2821,-6.4506,-6.5985,-6.7131,-6.733,-6.7504,-6.7687,-6.7687,-6.7687,-6.7687,-6.7687,-6.7687,-6.7687,-6.7687,-6.7687,-6.7687,-6.7687,-6.7687,-6.7714,-6.7741,-6.8218,-6.8934,-6.9895,0.0,0.0,-7.2469,-7.2824,0.0,-7.3894,-7.4513,0.0,-7.5451,0.0,-7.5622,-7.5947,-7.6015,0.0,0.0,-7.6015,-7.6015,-7.6015,-7.6015,-7.6015,-7.6015,-7.6015,-7.6015,-7.6015,-7.7246,-7.8092,-7.853,-8.0285,-8.1093,-8.1093,-8.1093,-8.1093,-8.1093,-8.1093,-8.1093,-8.1093,-8.1093,-8.1093,-8.1093,-8.1093,-8.1093,-8.1093,-8.1093,-8.1093,-8.1093,0.0,0.0,0.0,0.0,0.0,0.0,0.0,0.0,0.0,0.0,0.0,0.0,0.0,0.0,0.0,0.0,0.0,0.0,0.0,-5.7556,-5.7603,-5.7788,-5.8278,-5.8421,-5.8091,-5.8603,-5.8858,-5.8863,-5.8863,-5.8863,-5.8863,-5.8863,-5.8863,-5.8863,-5.8863,-5.8863,-5.8863,-5.8863,-5.9099,0.0,0.0,-5.9892,-6.0337,-6.0864,-6.1149,-6.1326,-6.2336,-6.3091,-6.39,-6.5073,-6.6453,-6.7687,-6.7687,-6.7687,-6.7687,-6.7687,-6.7687,-6.7687,-6.7687,-6.7687,-6.7687,-6.7687,-6.7687,-6.7687,-6.7687,-6.7687,-6.7687,-6.7687,-6.8348,-6.9155,-6.9963,-7.056,0.0,0.0,0.0,0.0,-7.3911,-7.4221,-7.4544,0.0,-7.5203,0.0,-7.567,-7.5887,-7.6015,0.0,-7.6015,-7.6015,-7.6015,-7.6015,-7.6015,-7.6015,-7.6015,-7.6015,-7.6015,-7.7669,-7.8477,-7.853,-8.0285,-8.1093,-8.1093,-8.1093,-8.1093,-8.1093,0.0,-8.1093,-8.1093,-8.1093,-8.1093,-8.1093,-8.1093,-8.1093,-8.1093,-8.1093,-8.1093,-8.1093,0.0,0.0,0.0,0.0,0.0,0.0,0.0,0.0,0.0,0.0,0.0,0.0,0.0,0.0,0.0,0.0,0.0,0.0,0.0,0.0,-5.7696,-5.699,-5.7872,-5.843,-5.8657,-5.8779,-5.9297,-6.0114,-6.0114,-6.0114,-6.0114,-6.0114,-6.0114,-6.0114,-6.0114,-6.0114,-6.0114,-6.0114,-6.0148,-6.025,-6.025,-6.0317,-6.0524,0.0,-6.1817,-6.2074,-6.2949,-6.4183,-6.5429,-6.5462,-6.6464,-6.7687,-6.7687,-6.7687,-6.7687,-6.7687,-6.7687,-6.7687,-6.7687,-6.7687,-6.7687,-6.7687,-6.7687,-6.7687,-6.7687,-6.7687,-6.7687,-6.7687,-6.8421,-6.9265,-6.9963,-7.0919,-7.1932,-7.2816,0.0,-7.3372,-7.3859,-7.3916,-7.4101,-7.4523,-7.4904,-7.5147,-7.5201,-7.5606,-7.5872,-7.5917,-7.5917,-7.5932,-7.6015,-7.6015,-7.6015,-7.6015,-7.6015,-7.6015,-7.6015,-7.7669,-7.8477,-7.853,-8.0285,-8.1093,-8.1093,-8.1093,-8.1093,-8.1093,0.0,0.0,-8.1093,-8.1093,-8.1093,-8.1093,-8.1093,-8.1093,-8.1093,-8.1093,-8.1093,-8.1093,0.0,0.0,0.0,0.0,0.0,0.0,0.0,0.0,0.0,0.0,-5.7186,-5.681,0.0,0.0,0.0,0.0,0.0,0.0,0.0,0.0,0.0,-5.6865,-5.7744,-5.832,-5.8463,-5.9284,-5.9831,-6.0114,-6.0114,-6.0114,-6.0114,-6.0114,-6.0114,-6.0114,-6.0114,-6.0114,-6.0114,-6.0114,-6.0486,-6.1095,-6.1095,-6.1467,-6.2009,-6.2183,0.0,0.0,-6.2855,-6.3679,-6.4531,-6.4702,-6.6064,-6.7687,-6.7687,-6.7687,-6.7687,-6.7687,-6.7687,-6.7687,-6.7687,-6.7687,-6.7687,-6.7687,-6.7687,-6.7687,-6.7687,-6.7687,0.0,-6.7687,-6.8862,-6.9926,-7.0073,-7.1397,-7.2539,-7.2714,-7.3009,-7.3225,-7.332,-7.3413,-7.3653,0.0,-7.4177,-7.4374,-7.4786,-7.4884,0.0,0.0,0.0,-7.5567,-7.5962,-7.6015,-7.6015,-7.6015,-7.6015,-7.6015,-7.6015,-7.7669,-7.8477,-7.853,-8.0285,-8.1093,-8.1093,-8.1093,-8.1093,-8.1093,-8.1093,0.0,-8.1093,-8.1093,-8.1093,-8.1093,-8.1093,-8.1093,-8.1093,-8.1093,-8.1093,-8.1093,0.0,0.0,0.0,0.0,0.0,0.0,0.0,0.0,-5.878,-5.8477,-5.7767,-5.721,-5.684,-5.681,0.0,0.0,0.0,0.0,0.0,0.0,0.0,0.0,-5.7211,-5.7976,-5.9025,-5.95,-6.025,-6.1298,0.0,-6.1298,-6.1298,-6.1298,-6.1298,-6.1298,-6.1298,-6.1298,-6.1298,-6.1298,-6.1501,-6.1873,-6.1873,-6.2076,-6.2381,0.0,0.0,0.0,-6.2885,-6.3459,-6.4183,-6.4393,-6.5332,-6.6553,-6.7032,-6.7405,-6.7687,-6.7687,-6.7687,-6.7687,-6.7687,-6.7687,-6.7687,-6.7687,-6.7687,-6.7687,-6.7687,0.0,0.0,-6.7687,-6.8972,-7.011,-7.011,-7.1488,-7.261,-7.2695,-7.2918,-7.3118,-7.3199,-7.3331,0.0,-7.3678,-7.3845,-7.4101,0.0,0.0,0.0,0.0,0.0,-7.5501,-7.5962,-7.6015,-7.6015,-7.6015,-7.6015,-7.6015,-7.6015,-7.7669,-7.8477,-7.853,-8.0285,-8.1093,-8.1093,-8.1093,-8.1093,-8.1093,-8.1093,0.0,-8.1093,-8.1093,-8.1093,-8.1093,-8.1093,-8.1093,-8.1093,-8.1093,-8.0943,-8.0737,0.0,0.0,0.0,0.0,0.0,0.0,0.0,-5.9077,-5.9001,-5.8902,-5.8451,-5.7851,-5.7118,-5.6902,-5.681,0.0,0.0,0.0,0.0,0.0,0.0,0.0,0.0,0.0,-5.9543,0.0,0.0,-6.2381,-6.2381,0.0,0.0,0.0,0.0,0.0,-6.2381,-6.2381,-6.2381,-6.2381,-6.2381,0.0,0.0,-6.2381,0.0,0.0,0.0,0.0,0.0,-6.3271,-6.3754,-6.4005,-6.4531,-6.5234,-6.6002,-6.6707,-6.7286,-6.7433,-6.7488,-6.7515,-6.766,-6.7687,-6.7687,-6.7687,-6.7687,-6.7687,-6.7687,-6.7687,-6.7724,-6.7907,-6.9082,-7.0146,-7.033,-7.1541,-7.2524,-7.2638,-7.2807,-7.2982,-7.3145,-7.3278,-7.3346,0.0,-7.3678,0.0,0.0,0.0,0.0,0.0,0.0,0.0,-7.5962,-7.6015,-7.6015,-7.6015,-7.6015,-7.6015,-7.6015,-7.7669,-7.8477,-7.853,-8.0285,-8.1093,-8.1093,-8.1093,-8.1093,-8.1093,-8.1093,0.0,0.0,-8.1093,-8.1045,-8.0943,-8.0943,-8.0893,-8.0788,-8.0788,-8.0576,-8.0258,0.0,0.0,0.0,0.0,0.0,0.0,0.0,-5.9308,-5.9334,-5.894,-5.9122,-5.8848,-5.7808,-5.7179,-5.681,0.0,0.0,0.0,0.0,0.0,0.0,0.0,0.0,0.0,0.0,0.0,0.0,-6.2381,-6.2381,0.0,0.0,0.0,0.0,0.0,0.0,-6.2381,-6.2381,-6.2381,0.0,0.0,0.0,0.0,0.0,0.0,0.0,0.0,0.0,-6.277,-6.2885,-6.3265,-6.3859,-6.4428,-6.4738,-6.527,-6.594,-6.6618,0.0,0.0,-6.7515,-6.7687,-6.7687,-6.7687,-6.7687,-6.7687,-6.7687,-6.7687,-6.7907,-6.8641,-6.9486,-7.033,-7.1064,-7.1908,-7.2496,-7.2524,-7.2638,-7.2779,-7.2982,-7.3145,-7.3278,-7.341,0.0,0.0,0.0,0.0,0.0,0.0,0.0,0.0,-7.5947,-7.6015,-7.6015,-7.6015,-7.6015,-7.6015,-7.6015,-7.7669,-7.8477,-7.853,-8.0285,-8.1093,-8.1093,-8.1093,-8.1093,-8.1093,-8.1093,0.0,0.0,-8.1093,-8.0838,-8.0447,-8.0447,-8.022,-7.9836,-7.9836,-7.9794,-7.9773,0.0,0.0,0.0,0.0,0.0,0.0,-5.9099,-5.9315,-5.9492,-5.9569,-5.9488,-5.9287,-5.9039,-5.8073,-5.7241,0.0,0.0,0.0,0.0,0.0,0.0,0.0,0.0,0.0,0.0,0.0,-5.9367,-6.0736,-6.0736,0.0,0.0,0.0,0.0,0.0,0.0,-6.1554,-6.1595,-6.2183,0.0,0.0,0.0,0.0,0.0,0.0,0.0,0.0,0.0,0.0,-6.3216,-6.3528,-6.3802,-6.3968,-6.3852,-6.4004,-6.4532,0.0,-6.6707,-6.6823,-6.7515,-6.7687,-6.7687,-6.7687,-6.7687,-6.7687,-6.7687,-6.7687,-6.7907,-6.8752,-6.9522,-7.033,-7.1174,-7.1982,-7.2496,-7.2496,-7.261,-7.2723,-7.2807,-7.3037,-7.3225,0.0,0.0,0.0,0.0,0.0,0.0,0.0,0.0,0.0,-7.5167,-7.5451,-7.5567,-7.5567,-7.5567,-7.5702,-7.6015,-7.7428,-7.825,-7.853,-8.0285,-8.1093,-8.1093,-8.1093,-8.0943,-8.0702,-8.0702,0.0,0.0,-8.0258,-8.0161,-7.9961,-7.9961,-7.9858,-7.9708,-7.9708,-7.9532,-7.9279,0.0,0.0,0.0,0.0,0.0,-5.9099,-5.9099,-5.9261,-5.9476,-5.9827,-5.9666,-5.9613,-5.9655,-5.8896,-5.8085,-5.7457,0.0,0.0,0.0,0.0,0.0,0.0,0.0,0.0,0.0,0.0,-5.8637,-5.9587,-5.9587,-5.9587,0.0,0.0,-5.9587,-5.9631,0.0,0.0,0.0,0.0,0.0,0.0,0.0,0.0,0.0,0.0,0.0,0.0,0.0,0.0,0.0,0.0,0.0,-6.3791,-6.3589,-6.3395,-6.3602,-6.5497,-6.6222,-6.6523,-6.7202,-6.7542,-6.7687,-6.7687,-6.7687,-6.7687,-6.7687,-6.7871,-6.8274,-6.9082,-6.9889,-7.0697,-7.1505,-7.2129,-7.2496,-7.2496,-7.2582,-7.2667,-7.2695,-7.2945,0.0,0.0,0.0,0.0,0.0,0.0,0.0,0.0,0.0,0.0,0.0,-7.4708,-7.4981,-7.513,-7.5111,-7.5274,-7.5606,-7.6993,-7.7851,-7.8152,-7.9859,-8.0702,-8.0702,-8.0702,-8.0522,-8.02,0.0,0.0,0.0,-7.9708,-7.9621,-7.9487,-7.9487,-7.9418,-7.9279,-7.9279,-7.9102,-7.8777,0.0,0.0,0.0,0.0,0.0,0.0,0.0,-5.9099,-5.9207,-5.9476,-5.9773,-5.9848,-5.946,-5.9625,-5.9501,-5.8824,0.0,0.0,0.0,0.0,0.0,0.0,0.0,0.0,0.0,0.0,-5.8637,-5.9587,-5.9587,-5.9587,-5.9587,-5.9587,-5.9587,-5.9587,0.0,0.0,0.0,0.0,0.0,0.0,0.0,0.0,-6.3497,0.0,0.0,0.0,0.0,0.0,0.0,0.0,0.0,0.0,0.0,-6.3615,-6.323,-6.4288,-6.5105,-6.5748,-6.6493,-6.7174,-6.7687,-6.7687,-6.7687,-6.7687,-6.7687,-6.8311,-6.9119,-6.9926,-7.0734,-7.1513,-7.2349,-7.2496,-7.2496,-7.2496,-7.2496,-7.2553,-7.2695,-7.2863,0.0,0.0,0.0,0.0,0.0,0.0,0.0,0.0,0.0,0.0,0.0,-7.3787,-7.4221,-7.4705,-7.4725,-7.4725,-7.4725,-7.6356,-7.7228,-7.7228,-7.8934,-7.9708,-7.9708,-7.9708,-7.9708,0.0,0.0,0.0,0.0,-7.9708,-7.9418,-7.9004,-7.9028,-7.8738,-7.8304,-7.8304,-7.8304,-7.8304,0.0,0.0,0.0,0.0,0.0,0.0,0.0,-5.9099,-5.9207,-5.9476,-5.9583,-5.9683,-5.9788,-5.9674,-5.943,-5.9216,0.0,0.0,0.0,0.0,0.0,0.0,0.0,0.0,0.0,-5.7258,-5.7401,-5.77,-5.77,-5.77,-5.77,-5.77,-5.77,-5.77,-5.8363,-5.9145,0.0,0.0,0.0,0.0,0.0,-6.3294,-6.3565,0.0,0.0,0.0,0.0,0.0,0.0,0.0,0.0,0.0,0.0,0.0,0.0,-6.3346,-6.4077,-6.4905,-6.5721,-6.6095,-6.6404,-6.6881,-6.7032,-6.7263,-6.8303,-6.8715,-6.9302,-7.066,-7.1109,-7.1578,-7.2349,-7.2496,-7.2496,-7.2496,-7.2496,-7.2496,0.0,0.0,0.0,0.0,0.0,0.0,0.0,0.0,0.0,0.0,0.0,0.0,0.0,-7.3515,-7.3763,-7.4199,-7.4199,-7.4353,-7.4705,-7.6035,-7.6866,-7.7207,-7.8912,-7.9708,-7.9708,-7.9708,0.0,0.0,0.0,0.0,0.0,-7.8738,-7.8633,-7.8512,-7.8538,-7.8404,-7.8276,-7.8276,-7.8276,-7.8276,0.0,0.0,0.0,0.0,0.0,0.0,0.0,-5.9099,-5.9153,-5.9315,-5.9422,-5.9583,-5.9773,-5.9696,-5.961,-5.961,0.0,0.0,0.0,0.0,0.0,0.0,0.0,0.0,-5.721,-5.7179,-5.7056,-5.681,-5.681,-5.681,-5.681,-5.681,-5.681,-5.681,-5.7401,-5.8363,0.0,0.0,0.0,0.0,-6.3328,-6.3835,-6.4377,0.0,0.0,0.0,0.0,0.0,0.0,0.0,0.0,0.0,0.0,0.0,0.0,0.0,-6.3271,-6.3862,-6.4769,-6.5234,-6.559,-6.6064,-6.6469,-6.6987,-6.7912,-6.8794,-6.9668,-7.0654,-7.1333,-7.1908,-7.2422,-7.2496,-7.2496,-7.2496,-7.2496,-7.2496,0.0,0.0,0.0,0.0,0.0,0.0,0.0,0.0,0.0,0.0,0.0,0.0,0.0,-7.3398,-7.3515,-7.3763,-7.3763,-7.393,-7.4192,-7.558,-7.6367,-7.6676,-7.837,-7.9161,-7.9161,-7.9161,0.0,0.0,0.0,0.0,0.0,-7.8276,-7.8276,-7.8276,-7.8276,-7.8276,-7.8276,-7.8276,-7.8276,-7.8276,0.0,0.0,0.0,0.0,0.0,0.0,0.0,0.0,0.0,-5.9099,-5.9315,-5.9476,-5.9476,-5.9773,-5.9963,-5.9963,0.0,0.0,0.0,0.0,0.0,0.0,0.0,0.0,-5.7869,-5.7888,-5.758,-5.6964,-5.6964,-5.6964,-5.6964,-5.6964,-5.6964,-5.6964,-5.6964,-5.7919,0.0,0.0,0.0,-6.3478,-6.3626,-6.4478,0.0,0.0,0.0,0.0,0.0,0.0,0.0,0.0,0.0,0.0,0.0,0.0,0.0,0.0,0.0,0.0,0.0,-6.4496,-6.5169,-6.5237,-6.6005,-6.6741,-6.688,-6.8642,0.0,-7.0299,-7.147,-7.2496,-7.2496,-7.2496,-7.2496,-7.2496,-7.2496,0.0,0.0,0.0,0.0,0.0,0.0,0.0,0.0,0.0,0.0,0.0,0.0,0.0,0.0,-7.3398,-7.3398,-7.3398,-7.3398,-7.3398,-7.3398,-7.497,-7.5787,-7.5824,-7.7496,-7.8276,-7.8276,-7.8276,0.0,0.0,0.0,0.0,0.0,-7.8276,-7.8276,-7.8276,-7.8276,-7.8276,-7.8276,-7.8276,-7.8276,-7.8276,0.0,0.0,0.0,0.0,0.0,0.0,0.0,0.0,0.0,0.0,-5.9153,-5.9207,-5.9207,-5.9422,-5.9636,0.0,0.0,0.0,0.0,0.0,0.0,0.0,0.0,0.0,-5.8547,-5.8547,-5.8454,-5.835,-5.835,-5.835,-5.835,-5.835,-5.835,-5.835,-5.835,-5.8975,0.0,0.0,-6.304,-6.3282,-6.463,-6.5392,0.0,0.0,0.0,0.0,-6.6812,-6.6812,0.0,0.0,0.0,0.0,0.0,0.0,0.0,0.0,-6.2933,-6.2498,-6.2736,0.0,-6.3818,-6.488,-6.5444,-6.6215,0.0,-6.9301,-7.0372,-7.0992,-7.1872,-7.2496,-7.2496,-7.2496,-7.2496,-7.2496,0.0,0.0,0.0,0.0,0.0,0.0,0.0,0.0,0.0,0.0,0.0,0.0,0.0,0.0,0.0,-7.3398,-7.3398,-7.3398,-7.3398,-7.3398,-7.3398,-7.497,-7.5787,-7.5824,-7.7496,-7.8276,-7.8276,-7.8276,0.0,0.0,0.0,0.0,-7.8276,-7.8276,-7.8276,-7.8276,-7.8276,-7.8276,-7.8276,-7.8276,-7.8276,-7.8276,0.0,0.0,0.0,0.0,0.0,0.0,0.0,0.0,0.0,0.0,0.0,0.0,0.0,0.0,0.0,0.0,0.0,0.0,0.0,0.0,0.0,0.0,0.0,-5.9562,-5.9255,-5.9255,-5.9101,-5.8793,-5.8793,-5.8793,-5.8793,-5.8793,-5.8793,-5.8843,-5.9228,-5.9548,-5.9839,-6.1653,-6.287,-6.367,-6.4619,0.0,0.0,0.0,0.0,0.0,-6.6812,-6.6812,0.0,-6.6812,-6.6542,-6.6136,0.0,0.0,0.0,0.0,-6.3734,-6.3396,-6.3396,-6.3396,-6.3542,-6.4305,-6.5155,-6.6145,-6.7538,-6.8753,-6.9766,-7.0297,-7.097,-7.1609,-7.1921,-7.2018,-7.2108,0.0,-7.2496,0.0,0.0,0.0,0.0,0.0,0.0,0.0,0.0,0.0,0.0,0.0,0.0,0.0,0.0,-7.3398,-7.3398,-7.3398,-7.3398,-7.3398,-7.3398,-7.4635,-7.5416,-7.5824,-7.7125,-7.7942,-7.8276,-7.8276,-7.8276,0.0,0.0,0.0,-7.8276,-7.8221,-7.8221,-7.8276,-7.8221,-7.8221,-7.8276,-7.8276,-7.8276,-7.8276,0.0,0.0,0.0,0.0,0.0,0.0,0.0,0.0,0.0,0.0,0.0,0.0,0.0,0.0,0.0,0.0,0.0,0.0,0.0,0.0,0.0,0.0,-6.0742,-6.0465,-5.9963,-5.9932,-5.9655,-5.9101,-5.9101,-5.9101,-5.9101,-5.9101,-5.9101,-5.912,-5.9951,-5.9946,-5.957,-6.1238,-6.2782,-6.4178,-6.4442,0.0,0.0,0.0,0.0,0.0,0.0,0.0,0.0,-6.6812,-6.6812,-6.6711,-6.6068,0.0,0.0,0.0,0.0,0.0,-6.4444,-6.4159,-6.3945,-6.4081,-6.5193,-6.6382,-6.6719,-6.7873,-6.8903,-6.9089,-6.9743,-7.047,-7.1264,-7.139,0.0,0.0,0.0,0.0,0.0,0.0,0.0,0.0,0.0,0.0,0.0,0.0,0.0,0.0,0.0,0.0,0.0,-7.332,-7.332,-7.3346,-7.3346,-7.3346,-7.3346,-7.419,-7.497,-7.5787,-7.6679,-7.7523,-7.8276,-7.8276,-7.8276,0.0,0.0,0.0,-7.8248,-7.8099,-7.8127,-7.8248,-7.8099,-7.8127,-7.8276,-7.8276,-7.8276,-7.8313,0.0,0.0,0.0,0.0,0.0,0.0,0.0,0.0,0.0,0.0,0.0,0.0,0.0,0.0,0.0,0.0,0.0,0.0,0.0,0.0,0.0,-6.0429,-6.0481,-6.0524,-6.064,-6.064,-6.0609,-6.0486,-6.0486,-6.0486,-6.0486,-6.0486,-6.0486,-6.0486,-6.064,-6.0681,-6.0659,-6.2636,-6.3631,-6.4007,-6.5721,0.0,0.0,0.0,0.0,0.0,0.0,0.0,0.0,-6.6812,-6.6812,-6.6779,-6.6677,0.0,0.0,0.0,0.0,0.0,-6.3666,-6.4038,-6.462,-6.523,-6.5732,-6.6235,-6.6957,-6.7906,-6.8714,-6.8903,-6.9529,-7.0334,-7.1227,-7.139,-7.164,0.0,0.0,0.0,0.0,0.0,0.0,0.0,0.0,0.0,0.0,0.0,0.0,0.0,0.0,0.0,0.0,-7.3064,-7.3118,-7.3225,-7.3225,-7.3225,-7.3225,-7.4137,-7.497,-7.5787,-7.6679,-7.7523,-7.8276,-7.8276,-7.8276,0.0,0.0,-7.8221,-7.8071,-7.8221,-7.8193,-7.8071,-7.8221,-7.8276,-7.8276,-7.8276,-7.8276,-7.8462,0.0,0.0,0.0,0.0,0.0,0.0,0.0,0.0,0.0,0.0,0.0,0.0,0.0,0.0,0.0,0.0,0.0,0.0,0.0,0.0,-5.9476,-5.9902,-5.9902,-6.0219,-6.0794,-6.0794,-6.0794,-6.0794,-6.0794,-6.0794,-6.0794,-6.0794,-6.0609,-6.027,-6.064,-6.0887,-6.1121,-6.1865,-6.3132,-6.4629,0.0,0.0,0.0,0.0,0.0,0.0,0.0,0.0,0.0,0.0,-6.6812,-6.6812,-6.6812,0.0,0.0,0.0,0.0,0.0,-6.4208,-6.4343,-6.4783,-6.5493,-6.6083,-6.6573,-6.7071,-6.7523,-6.789,-6.8088,-6.8482,-6.9165,0.0,0.0,-7.1163,-7.2351,0.0,0.0,0.0,0.0,0.0,0.0,0.0,0.0,0.0,0.0,0.0,0.0,0.0,0.0,0.0,0.0,-7.3009,-7.3091,-7.3091,-7.3118,-7.3199,-7.3649,-7.4492,-7.5716,-7.6169,-7.705,-7.8276,-7.8193,-7.8127,-7.8127,0.0,-7.7994,-7.79,-7.7994,-7.8014,-7.8014,-7.8014,-7.808,-7.8127,-7.808,-7.8282,-7.8866,0.0,0.0,0.0,0.0,0.0,0.0,0.0,0.0,0.0,0.0,0.0,0.0,0.0,0.0,0.0,0.0,0.0,0.0,0.0,0.0,-5.9207,-5.9476,-5.9529,-5.9849,-6.0617,-6.0638,-6.069,-6.069,-6.0742,-6.0794,-6.0794,-6.0794,-6.0517,-6.0055,-6.0578,-6.0947,-6.12,-6.1433,-6.2875,-6.4901,0.0,0.0,0.0,0.0,0.0,0.0,0.0,0.0,0.0,0.0,0.0,0.0,0.0,0.0,0.0,-6.5865,-6.5459,-6.5053,-6.4512,-6.4343,-6.4478,-6.5019,-6.5865,-6.6651,-6.7022,-6.7097,-6.718,-6.7387,-6.7597,-6.8128,0.0,-7.0197,0.0,0.0,0.0,0.0,0.0,0.0,0.0,0.0,0.0,0.0,0.0,0.0,0.0,0.0,0.0,0.0,0.0,0.0,-7.2899,-7.2927,-7.2927,-7.2982,-7.3091,-7.3118,-7.3986,-7.5661,-7.5706,-7.6624,-7.8221,-7.8043,-7.7957,-7.7957,-7.7842,-7.7791,-7.7762,-7.7791,-7.7842,-7.79,-7.7813,-7.7842,-7.7957,-7.7813,-7.8448,-7.9372,0.0,0.0,0.0,0.0,0.0,0.0,0.0,0.0,0.0,0.0,0.0,0.0,0.0,0.0,0.0,0.0,0.0,0.0,0.0,0.0,-5.9207,-5.9476,-5.9529,-5.9636,-6.0069,-6.0302,-6.0429,-6.0429,-6.069,-6.0794,-6.0794,-6.0794,-6.0763,-6.0732,-6.0763,-6.0815,-6.0959,-6.2794,-6.3703,-6.4077,-6.5855,0.0,0.0,0.0,0.0,0.0,0.0,0.0,0.0,0.0,0.0,0.0,0.0,0.0,-6.5764,-6.5696,-6.4715,-6.3666,-6.3599,-6.3599,-6.3599,-6.3666,-6.4715,-6.5967,-6.6643,-6.6812,-6.6896,-6.718,-6.7387,-6.7805,-6.8825,-7.0266,0.0,0.0,0.0,0.0,0.0,0.0,0.0,0.0,0.0,0.0,0.0,0.0,0.0,0.0,0.0,0.0,0.0,0.0,0.0,-7.2723,-7.2723,-7.2723,-7.2751,-7.2927,-7.3959,-7.5787,-7.5689,-7.6486,-7.8014,-7.7871,-7.7783,-7.7783,-7.7783,-7.7732,-7.7614,-7.7762,-7.7732,-7.7614,-7.7762,-7.782,-7.7783,-7.7783,-7.8781,-8.011,0.0,0.0,0.0,0.0,0.0,0.0,0.0,0.0,0.0,0.0,0.0,0.0,0.0,0.0,0.0,0.0,0.0,0.0,0.0,-5.9099,-5.9153,-5.9261,-5.9261,-5.9315,-5.9452,-6.0061,-6.0377,-6.0377,-6.069,-6.0794,-6.0794,-6.0794,-6.0794,-6.0794,-6.0794,-6.1124,-6.1753,-6.1872,-6.2988,-6.472,-6.4889,-6.568,0.0,0.0,0.0,0.0,0.0,0.0,0.0,0.0,-6.6508,-6.6102,-6.6102,-6.5595,-6.4918,-6.4478,-6.3937,-6.3429,-6.2956,-6.2821,-6.2922,-6.3396,-6.4275,-6.5222,-6.5933,-6.6474,-6.6812,-6.6896,-6.7139,-6.7638,-6.8711,0.0,0.0,0.0,0.0,0.0,0.0,0.0,0.0,0.0,0.0,0.0,0.0,0.0,0.0,0.0,0.0,0.0,0.0,0.0,0.0,-7.2582,-7.2582,-7.261,-7.2695,-7.2779,-7.373,-7.5551,-7.5495,-7.6318,-7.7871,-7.7732,-7.7673,-7.7673,-7.7554,-7.7463,-7.7433,-7.7614,-7.7643,-7.762,-7.7643,-7.7614,-7.756,-7.8112,-7.8995,-8.0025,0.0,0.0,0.0,0.0,0.0,0.0,0.0,0.0,0.0,0.0,0.0,0.0,0.0,0.0,0.0,0.0,0.0,0.0,-5.9099,-5.9099,-5.9099,-5.9099,-5.9099,-5.9099,-5.9099,-5.9743,-6.0114,-6.0114,-6.0481,-6.069,-6.0794,-6.0794,-6.0794,-6.0794,-6.0794,-6.1175,-6.1853,-6.1803,-6.294,-6.4811,-6.4766,-6.5592,0.0,0.0,0.0,0.0,0.0,0.0,0.0,0.0,-6.5967,-6.5358,-6.5358,-6.485,-6.4174,-6.3666,-6.3362,-6.3057,-6.2516,-6.2381,-6.2516,-6.3024,-6.3734,-6.4444,-6.5189,-6.6102,-6.6812,-6.6812,-6.7014,-6.7557,-6.8711,-7.0436,0.0,0.0,0.0,0.0,0.0,0.0,0.0,0.0,0.0,0.0,0.0,0.0,0.0,0.0,0.0,0.0,0.0,0.0,0.0,0.0,-7.2496,-7.2524,-7.2638,-7.2638,-7.3505,-7.524,-7.524,-7.6117,-7.7732,-7.7584,-7.7493,-7.7493,-7.7372,-7.7273,-7.7341,-7.7463,-7.7493,-7.7493,-7.7493,-7.7433,-7.7384,-7.8295,-7.9103,-7.991,0.0,0.0,0.0,0.0,0.0,0.0,0.0,0.0,0.0,0.0,0.0,0.0,0.0,0.0,0.0,0.0,0.0,0.0,-5.9099,-5.9099,-5.9099,-5.9099,-5.9099,-5.9099,-5.9099,-5.9369,-5.9529,-5.9529,-6.0114,-6.0534,-6.0794,-6.0794,-6.0794,-6.0794,-6.0794,-6.0794,-6.0949,-6.294,-6.3797,-6.3984,-6.5975,-6.677,-6.6812,0.0,0.0,0.0,0.0,0.0,0.0,0.0,-6.5189,-6.458,-6.458,-6.4106,-6.3497,-6.3497,-6.2956,-6.2381,-6.2381,-6.2381,-6.2381,-6.2381,-6.2956,-6.37,-6.4444,-6.573,-6.6812,-6.6812,-6.7014,-6.7557,-6.8673,-6.9493,0.0,0.0,0.0,0.0,0.0,0.0,0.0,0.0,0.0,0.0,0.0,0.0,0.0,0.0,0.0,0.0,0.0,0.0,0.0,0.0,-7.2467,-7.2467,-7.2467,-7.2467,-7.3274,-7.4888,-7.4888,-7.5823,-7.762,-7.7402,-7.7273,-7.7273,-7.7273,-7.7273,-7.7273,-7.7273,-7.7273,-7.7273,-7.7273,-7.7273,-7.7384,-7.8295,-7.9103,-7.991,0.0,0.0,0.0,0.0,0.0,0.0,0.0,0.0,0.0,0.0,0.0,0.0,0.0,0.0,0.0,0.0,0.0,0.0,-5.9099,-5.9099,-5.9099,-5.9099,-5.9099,-5.9099,-5.9099,-5.9153,-5.9422,-5.9827,-6.0039,-6.025,-6.0534,-6.0534,-6.0638,-6.0794,-6.0794,-6.0794,-6.0845,-6.145,-6.2534,-6.3844,-6.4447,-6.5548,-6.6812,0.0,0.0,0.0,0.0,0.0,0.0,0.0,0.0,0.0,-6.3835,-6.3328,-6.2719,-6.2719,-6.255,-6.2381,-6.2381,-6.2381,-6.2381,-6.2381,-6.2956,-6.37,-6.4444,-6.5324,-6.617,-6.6711,-6.7373,-6.7901,-6.789,-6.9054,0.0,0.0,0.0,0.0,0.0,0.0,0.0,0.0,0.0,0.0,0.0,0.0,0.0,0.0,0.0,0.0,0.0,0.0,0.0,0.0,-7.097,-7.097,-7.097,-7.097,-7.1762,-7.3382,-7.3873,-7.5291,-7.7402,-7.7341,-7.7273,-7.7273,-7.7273,-7.7273,-7.7273,-7.7273,-7.7273,-7.7273,-7.7273,-7.7273,-7.7457,-7.8919,-7.958,-7.9984,0.0,0.0,0.0,0.0,0.0,0.0,0.0,0.0,0.0,0.0,-5.4619,-5.5848,0.0,0.0,0.0,0.0,0.0,0.0,0.0,-5.9099,-5.9099,-5.9099,-5.9099,-5.9099,-5.9099,-5.9099,-5.9261,-5.9613,-5.9773,-5.9933,-6.025,-6.025,-6.0377,-6.0638,-6.0638,-6.0638,-6.069,-6.1072,-6.209,-6.3497,-6.3613,-6.464,-6.6087,0.0,0.0,0.0,0.0,0.0,0.0,0.0,0.0,0.0,-6.3057,-6.2753,-6.2381,-6.2381,-6.2381,-6.2381,-6.2381,-6.2381,-6.2381,-6.2381,-6.2719,-6.3328,-6.4377,-6.5392,-6.6271,-6.6711,-6.725,-6.7662,-6.7736,-6.8604,0.0,0.0,0.0,0.0,0.0,0.0,0.0,0.0,0.0,0.0,0.0,0.0,0.0,0.0,0.0,0.0,0.0,0.0,0.0,0.0,-7.03,-7.03,-7.03,-7.03,-7.1121,-7.2727,-7.3143,-7.441,-7.6436,-7.7019,-7.7273,-7.7273,-7.7273,-7.7273,-7.7273,-7.7273,-7.7273,-7.7273,-7.7273,-7.7273,-7.7494,-7.9176,-7.98,-8.0021,0.0,0.0,0.0,0.0,0.0,0.0,0.0,0.0,0.0,0.0,-5.4619,-5.5848,0.0,0.0,0.0,0.0,0.0,0.0,0.0,0.0,-5.9099,-5.9099,-5.9099,-5.9099,-5.9099,-5.9099,-5.9099,-5.9099,-5.9369,-5.9636,-5.9933,-5.9933,-6.0092,-6.0377,-6.0377,-6.0377,-6.0429,-6.1317,-6.2126,-6.2796,-6.3218,-6.3936,-6.4738,-6.4396,0.0,0.0,0.0,0.0,0.0,0.0,0.0,0.0,-6.2381,-6.2381,-6.2381,-6.2381,-6.2381,-6.2381,-6.2381,-6.2381,-6.2381,-6.2381,-6.2448,-6.2854,-6.4275,-6.5696,-6.6745,-6.6812,0.0,-6.7071,-6.7985,0.0,0.0,0.0,0.0,0.0,0.0,0.0,0.0,0.0,0.0,0.0,0.0,0.0,0.0,0.0,0.0,0.0,0.0,0.0,0.0,0.0,-7.0094,-7.0094,-7.0094,-7.0165,-7.0983,0.0,-7.262,-7.3475,-7.4937,-7.6399,-7.7118,-7.7118,-7.7118,-7.7118,-7.7118,-7.7118,-7.715,-7.7181,-7.7181,-7.7316,-7.7604,-7.9213,-7.9837,-8.0131,0.0,0.0,0.0,0.0,0.0,0.0,0.0,0.0,0.0,0.0,0.0,0.0,0.0,0.0,0.0,0.0,0.0,0.0,0.0,0.0,-5.9099,-5.9099,-5.9099,-5.9099,-5.9099,-5.9099,-5.9099,-5.9099,-5.9153,-5.9315,-5.9583,-5.9583,-5.9773,-6.0092,-6.0092,-6.0092,-6.0092,-6.0355,-6.063,-6.1092,-6.1981,-6.262,-6.3111,-6.3818,-6.3792,0.0,0.0,0.0,0.0,0.0,0.0,0.0,-6.2381,-6.2381,-6.2381,-6.2381,-6.2381,-6.2381,-6.2381,-6.2381,-6.2381,-6.2381,-6.2854,-6.3497,-6.441,-6.529,-6.6102,-6.6677,-6.6812,-6.6938,0.0,0.0,0.0,0.0,0.0,0.0,0.0,0.0,0.0,0.0,0.0,0.0,0.0,0.0,0.0,0.0,0.0,0.0,0.0,0.0,0.0,-6.8593,-6.8593,-6.8593,-6.8593,-6.9219,-6.9984,0.0,-7.2111,-7.3191,-7.4111,-7.5083,-7.5512,-7.5512,-7.5512,-7.5512,-7.5512,-7.5512,-7.5861,-7.6436,-7.6436,-7.7198,-7.8442,-7.9433,-8.0204,-8.0865,0.0,0.0,0.0,0.0,0.0,0.0,0.0,0.0,0.0,0.0,0.0,0.0,0.0,0.0,0.0,0.0,0.0,0.0,0.0,0.0,-5.9099,-5.9099,-5.9099,-5.9099,-5.9099,-5.9099,-5.9099,-5.9099,-5.9099,-5.9153,-5.9315,-5.9315,-5.9476,-5.9773,-5.9773,-5.9773,-5.9743,-5.9441,-5.9932,-6.0792,-6.0662,-6.1303,-6.2385,-6.2682,-6.2564,-6.2353,-6.2434,0.0,0.0,0.0,0.0,0.0,0.0,0.0,-6.2381,-6.2381,-6.2381,-6.2381,-6.2381,-6.2381,-6.2381,-6.2381,0.0,-6.3159,-6.3903,-6.4647,-6.5392,-6.6102,-6.6542,0.0,0.0,0.0,0.0,0.0,0.0,0.0,0.0,0.0,0.0,0.0,0.0,0.0,0.0,0.0,0.0,0.0,0.0,0.0,0.0,-6.8083,-6.8083,-6.8083,-6.8083,-6.8083,-6.8083,-6.8877,-6.9635,-7.0394,-7.1573,-7.2539,-7.3311,-7.4454,-7.501,-7.501,-7.501,-7.501,-7.501,-7.501,-7.5263,-7.5653,-7.5653,-7.633,-7.7538,-7.8744,-7.9716,-8.0552,0.0,0.0,0.0,0.0,0.0,0.0,0.0,0.0,0.0,0.0,0.0,0.0,0.0,0.0,0.0,0.0,0.0,0.0,0.0,0.0,0.0,-5.9099,-5.9099,-5.9099,-5.9099,-5.9099,-5.9099,-5.9099,-5.9099,-5.9099,-5.9099,-5.9099,-5.9207,-5.9422,-5.9422,-5.9422,-5.9392,-5.873,-5.9276,-6.0376,-5.9316,-5.9791,-6.1207,-6.0924,-6.0978,-6.1144,-6.1309,-6.1635,-6.1957,-6.1957,0.0,0.0,0.0,0.0,-6.2341,-6.2341,-6.2341,-6.2381,-6.2381,-6.2381,-6.2381,-6.2381,-6.2381,0.0,-6.3328,-6.4072,-6.4816,-6.5527,0.0,0.0,0.0,0.0,0.0,0.0,0.0,0.0,0.0,0.0,0.0,0.0,0.0,0.0,0.0,0.0,0.0,0.0,0.0,0.0,-6.8083,-6.8083,-6.8083,-6.8083,-6.8083,-6.8083,-6.8083,-6.9015,-6.9773,-7.0394,-7.1291,-7.205,-7.2755,-7.403,-7.4604,-7.4604,-7.4604,-7.4604,-7.4604,-7.4604,-7.4679,-7.479,-7.479,-7.5398,-7.6475,-7.7883,-7.8925,-7.99,0.0,0.0,0.0,0.0,0.0,0.0,0.0,0.0,0.0,0.0,-5.3904,-5.5442,0.0,0.0,0.0,0.0,0.0,0.0,0.0,0.0,0.0,-5.9099,-5.9099,-5.9099,-5.9099,-5.9099,-5.9099,-5.9099,-5.9099,-5.9099,-5.9099,-5.9099,-5.9099,-5.9153,-5.9153,-5.9153,-5.9123,-5.8464,-5.7993,-5.7643,-5.7764,-5.7625,-5.7448,-5.824,-5.9202,-6.0108,-6.0151,-6.082,-6.175,-6.175,-6.175,0.0,0.0,0.0,-6.2037,-6.2037,-6.2229,-6.2381,-6.2381,0.0,-6.2381,0.0,-6.2381,-6.2584,0.0,0.0,-6.4816,0.0,0.0,0.0,0.0,0.0,0.0,0.0,0.0,0.0,0.0,0.0,0.0,0.0,0.0,0.0,0.0,0.0,0.0,0.0,0.0,0.0,-6.8083,-6.8083,-6.8083,-6.8083,-6.8083,-6.8083,-6.8083,-6.9532,-7.0291,-7.0394,-7.1843,-7.2609,-7.2713,-7.2887,-7.3012,-7.3012,-7.3012,-7.3012,-7.3012,-7.3012,-7.3392,-7.3956,-7.3956,-7.5301,-7.726,-7.748,-7.8445,-7.9732,0.0,0.0,0.0,0.0,0.0,0.0,0.0,0.0,0.0,0.0,0.0,-5.4323,0.0,0.0,0.0,-5.8026,-5.8689,-5.9099,-5.9099,-5.9099,0.0,0.0,-5.9099,-5.9099,-5.9099,-5.9099,-5.9099,-5.9099,-5.9099,-5.9099,-5.9099,-5.9099,-5.9099,-5.9099,-5.9099,-5.9099,-5.9039,-5.7992,-5.7699,-5.7872,-5.7254,-5.7556,-5.8254,-5.8162,-5.8799,-5.9718,-5.9718,-6.0151,-6.0778,-6.1342,-6.1588,-6.1709,-6.1709,0.0,0.0,0.0,-6.2076,-6.2189,-6.2341,-6.2381,-6.2381,0.0,-6.2381,-6.2482,-6.2821,0.0,0.0,0.0,0.0,0.0,0.0,0.0,0.0,0.0,0.0,0.0,0.0,0.0,0.0,0.0,0.0,0.0,0.0,0.0,0.0,0.0,0.0,-6.8083,-6.8083,-6.8083,-6.8083,-6.8083,-6.8083,-6.8083,-6.8083,-6.9635,-7.0808,-7.167,-7.2402,-7.2713,-7.2713,-7.2713,-7.2713,-7.2713,-7.2713,-7.2713,-7.2713,-7.2713,-7.2887,-7.3183,-7.3183,-7.4333,-7.607,-7.6552,-7.77,-7.9089,0.0,0.0,0.0,0.0,0.0,0.0,0.0,0.0,0.0,0.0,0.0,0.0,0.0,0.0,0.0,0.0,-5.8386,-5.9099,-5.9099,-5.9099,0.0,0.0,0.0,-5.9099,-5.9099,-5.9099,-5.9099,-5.9099,-5.9099,-5.9099,-5.9099,-5.9099,-5.9099,-5.9099,-5.9099,-5.9099,-5.9009,-5.7663,-5.7532,-5.8095,-5.6781,-5.7165,-5.8391,-5.7652,-5.7978,-5.8844,-5.9145,-5.929,-5.9642,-6.0894,-6.126,-6.1227,-6.1465,-6.1588,0.0,0.0,0.0,-6.215,0.0,0.0,-6.2381,-6.2381,-6.2381,-6.2381,0.0,0.0,0.0,0.0,0.0,0.0,0.0,0.0,0.0,0.0,0.0,0.0,0.0,0.0,0.0,0.0,0.0,0.0,0.0,0.0,0.0,0.0,0.0,-6.8083,-6.8083,-6.8083,-6.8083,-6.8083,-6.8083,-6.8083,-6.8083,-6.9635,-7.1153,-7.2713,-7.2713,-7.2713,-7.2713,-7.2713,-7.2713,-7.2713,-7.2713,-7.2713,-7.2713,-7.2713,-7.2713,-7.2747,-7.292,-7.3774,-7.499,-7.5854,-7.7013,-7.8252,0.0,0.0,0.0,0.0,0.0,0.0,0.0,0.0,0.0,0.0,0.0,0.0,-5.351,-5.5704,-5.7187,-5.7187,-5.8386,-5.9099,-5.9099,-5.9099,-5.9099,-5.9099,0.0,0.0,-5.9099,-5.9099,-5.9099,-5.9099,-5.9099,-5.9099,-5.9099,-5.9099,-5.9099,-5.9099,-5.9099,-5.9099,-5.9009,-5.7663,-5.7146,-5.7079,-5.579,-5.533,-5.5431,-5.5381,-5.5918,-5.6879,-5.7839,-5.8177,-5.8496,-6.0463,-6.0473,-5.9881,-6.0802,-6.1252,-6.1465,0.0,0.0,0.0,0.0,-6.2381,0.0,-6.2381,-6.2381,0.0,0.0,0.0,0.0,0.0,0.0,0.0,0.0,0.0,0.0,0.0,0.0,0.0,0.0,0.0,0.0,0.0,0.0,0.0,0.0,0.0,0.0,0.0,0.0,-6.8083,-6.8083,-6.8083,-6.8083,-6.8083,-6.8083,-6.8083,-6.8083,-6.9635,-7.1153,-7.2713,-7.2713,-7.2713,-7.2713,-7.2713,-7.2713,-7.2713,-7.2713,-7.2713,-7.2713,-7.2713,-7.2713,-7.2782,-7.3464,-7.4223,-7.5016,-7.5819,-7.6578,-7.7268,0.0,0.0,0.0,0.0,0.0,0.0,0.0,0.0,0.0,0.0,0.0,0.0,0.0,-5.5704,-5.7187,-5.7187,-5.8386,-5.9099,-5.9099,-5.9099,-5.9099,-5.9099,0.0,0.0,-5.9099,-5.9099,-5.9099,-5.9099,-5.9099,-5.9099,-5.9099,-5.9099,-5.9099,-5.9099,-5.9099,-5.9099,-5.9009,-5.7663,-5.7094,-5.6974,-5.5688,-5.5551,-5.6035,-5.5431,-5.5769,-5.6638,-5.6991,-5.7134,-5.7371,-5.8709,-5.8934,-5.8709,-5.9068,-5.9202,-5.9467,-6.0459,-6.1365,0.0,0.0,0.0,0.0,-6.2381,-6.2381,0.0,0.0,0.0,0.0,0.0,0.0,0.0,0.0,0.0,0.0,0.0,0.0,0.0,0.0,0.0,0.0,0.0,0.0,0.0,0.0,0.0,0.0,0.0,0.0,0.0,-6.8083,-6.8083,-6.8083,-6.8083,-6.8083,-6.8566,-6.9566,-7.0567,-7.1636,-7.2713,-7.2713,-7.2713,-7.2713,-7.2713,-7.2713,-7.2713,-7.2713,-7.2713,-7.2713,-7.2713,-7.2713,-7.2782,-7.3498,-7.4257,-7.4972,-7.5809,-7.6568,-7.7223,0.0,0.0,0.0,0.0,0.0,0.0,0.0,0.0,-5.1596,-5.1596,0.0,0.0,0.0,0.0,-5.6934,-5.7804,-5.8634,-5.9099,-5.9099,-5.9099,-5.9099,-5.9099,-5.9099,0.0,-5.9099,-5.9099,-5.9099,-5.9099,-5.9099,-5.9099,-5.9099,-5.9099,-5.9099,-5.9099,-5.9099,-5.9099,-5.9009,-5.7663,-5.7094,-5.6974,-5.5688,-5.5551,-5.6035,-5.5431,-5.5601,-5.6183,-5.6493,-5.6427,-5.6329,-5.7652,-5.7854,-5.7652,-5.7993,-5.8131,-5.8405,-5.9314,-6.0511,-6.1561,-6.1756,0.0,0.0,0.0,0.0,0.0,0.0,0.0,0.0,0.0,0.0,0.0,0.0,0.0,0.0,0.0,0.0,0.0,0.0,0.0,0.0,0.0,0.0,0.0,0.0,0.0,0.0,0.0,0.0,0.0,-6.8083,-6.8083,-6.8083,-6.8083,-6.8359,-6.9084,-7.036,-7.1118,-7.1877,-7.2713,-7.2713,-7.2713,-7.2713,-7.2713,-7.2713,-7.2713,-7.2713,-7.2713,-7.2713,-7.2713,-7.2713,-7.2774,-7.3774,-7.4499,-7.5007,-7.6085,-7.6809,-7.7223,0.0,0.0,0.0,0.0,0.0,0.0,0.0,0.0,-5.1596,-5.1596,0.0,0.0,0.0,0.0,0.0,-5.8882,-5.9099,-5.9099,-5.9099,-5.9099,-5.9099,-5.9099,-5.9099,-5.9099,-5.9099,-5.9099,-5.9099,-5.9099,-5.9099,-5.9099,-5.9099,-5.9099,-5.9099,-5.9099,-5.9099,-5.9099,-5.9009,-5.7663,-5.7094,-5.6974,-5.5688,-5.5179,-5.5179,-5.5179,-5.5179,-5.533,-5.6232,-5.5967,-5.5501,-5.7371,-5.7371,-5.6735,-5.7746,-5.8177,-5.8328,-5.8374,-5.9358,-6.0544,0.0,0.0,0.0,0.0,0.0,0.0,0.0,0.0,0.0,0.0,0.0,0.0,0.0,0.0,0.0,0.0,0.0,0.0,0.0,0.0,0.0,0.0,0.0,0.0,0.0,0.0,0.0,0.0,0.0,-6.8083,-6.8083,-6.8083,-6.8083,-6.8083,-6.8877,-6.967,-7.0394,-7.1153,-7.1912,-7.2713,-7.2713,-7.2713,-7.2713,-7.2713,-7.2713,-7.2713,-7.2713,-7.2713,-7.2713,-7.2713,-7.2713,-7.2843,-7.4326,-7.4903,-7.5076,-7.6592,-7.7223,-7.7223,0.0,0.0,0.0,0.0,0.0,-5.1596,-5.1596,-5.1596,-5.1596,0.0,0.0,0.0,-5.2964,-5.518,-5.7328,-5.8991,-5.9099,-5.9099,-5.9099,-5.9099,-5.9099,-5.9099,-5.9099,-5.9099,-5.9099,-5.9099,-5.9099,-5.9099,-5.9099,-5.9099,-5.9099,-5.9099,-5.9099,-5.9099,-5.9099,-5.9099,-5.9009,-5.7663,-5.7094,-5.6974,-5.5688,-5.5179,-5.5179,-5.5179,-5.5179,-5.5229,-5.5501,-5.5431,-5.528,-5.5819,-5.5819,-5.5651,-5.5918,-5.6493,-5.7134,-5.7339,-5.8145,-5.9049,-5.9258,0.0,0.0,0.0,0.0,0.0,-6.3168,0.0,0.0,0.0,0.0,0.0,0.0,0.0,0.0,0.0,0.0,0.0,0.0,0.0,0.0,0.0,0.0,0.0,0.0,0.0,0.0,0.0,-6.8004,-6.8083,-6.8083,-6.8083,-6.8083,-6.8083,-6.9394,-7.0187,-7.0394,-7.1705,-7.2464,-7.2713,-7.2713,-7.2713,-7.2713,-7.2713,-7.2713,-7.2713,-7.2713,-7.2713,-7.2713,-7.2713,-7.2713,-7.2843,-7.4326,-7.4903,-7.5076,-7.6592,-7.7223,-7.7223,0.0,0.0,0.0,0.0,0.0,-5.1596,-5.1596,-5.1596,-5.1596,0.0,0.0,0.0,-5.4144,-5.5588,-5.716,-5.8936,-5.9099,-5.9099,-5.9099,-5.9099,-5.9099,-5.9099,-5.9099,-5.9099,-5.9099,-5.9099,-5.9099,-5.9099,-5.9099,-5.9099,-5.9099,-5.9099,-5.9099,-5.9099,-5.9099,-5.9099,-5.9039,-5.7962,-5.7363,-5.7004,-5.6017,-5.5448,-5.5179,-5.5179,-5.5179,-5.5179,-5.5179,-5.5179,-5.5179,-5.5179,-5.5179,-5.5179,-5.5179,-5.5601,-5.6066,-5.6232,-5.6991,-5.7854,-5.7993,-5.8542,-5.9202,-5.986,0.0,0.0,-6.2974,-6.3694,0.0,0.0,0.0,0.0,0.0,0.0,0.0,0.0,0.0,0.0,0.0,0.0,0.0,0.0,0.0,0.0,0.0,0.0,0.0,-6.7799,-6.7999,-6.8083,-6.8083,-6.8083,-6.8256,-6.8566,-6.9773,-7.0532,-7.0843,-7.205,-7.2713,-7.2713,-7.2713,-7.2713,-7.2713,-7.2713,-7.2713,-7.2713,-7.2713,-7.2713,-7.2713,-7.2713,-7.2713,-7.2885,-7.4326,-7.4869,-7.5076,-7.6592,-7.7223,-7.7223,0.0,0.0,-5.1596,-5.1596,-5.1596,-5.1596,-5.1596,-5.1596,-5.1596,0.0,-5.1596,-5.2535,-5.5091,-5.5412,-5.6394,-5.8882,-5.9099,-5.9099,-5.9099,-5.9099,-5.9099,-5.9099,-5.9099,-5.9099,-5.9099,-5.9099,-5.9099,-5.9099,-5.9099,-5.9099,-5.9099,-5.9099,-5.9099,-5.9099,-5.9099,-5.9099,-5.9069,-5.8471,-5.7842,-5.7154,-5.6436,-5.5777,-5.5179,-5.5179,-5.5179,-5.5179,-5.5179,-5.5179,-5.5179,-5.5179,-5.5179,-5.5179,-5.5179,-5.5179,-5.5179,-5.5179,-5.5967,-5.68,-5.68,-5.7621,-5.8542,-5.8934,-5.9751,0.0,-6.2699,-6.3777,-6.4862,0.0,0.0,0.0,0.0,0.0,0.0,0.0,0.0,0.0,0.0,0.0,0.0,0.0,0.0,0.0,0.0,0.0,-6.7557,-6.7759,-6.7965,-6.8083,-6.8083,-6.8083,-6.8463,-6.9256,-7.0015,-7.0739,-7.1498,-7.2291,-7.2713,-7.2713,-7.2713,-7.2713,-7.2713,-7.2713,-7.2713,-7.2713,-7.2713,-7.2713,-7.2713,-7.2713,-7.2713,-7.2885,-7.4292,-7.4912,-7.5076,-7.6592,-7.7223,-7.7223,0.0,0.0,-5.1596,-5.1596,-5.1596,-5.1596,-5.1596,-5.1596,-5.1596,-5.1596,-5.1596,-5.2535,-5.5091,-5.5412,-5.6394,-5.8882,-5.9099,-5.9099,-5.9099,-5.9099,-5.9099,-5.9099,-5.9099,-5.9099,-5.9099,-5.9099,-5.9099,-5.9099,-5.9099,-5.9099,-5.9099,-5.9099,-5.9099,-5.9099,-5.9099,-5.9099,-5.9099,-5.8979,-5.853,-5.7812,-5.6645,-5.5777,-5.5179,-5.5179,-5.5179,-5.5179,-5.5179,-5.5179,-5.5179,-5.5179,-5.5179,-5.5179,-5.5179,-5.5179,-5.5179,-5.5179,-5.5381,-5.5551,-5.5551,-5.6017,-5.6717,-5.7559,-5.8605,0.0,-6.1881,-6.2837,-6.3876,0.0,0.0,0.0,0.0,0.0,0.0,0.0,0.0,0.0,0.0,0.0,0.0,0.0,0.0,0.0,0.0,0.0,-6.755,-6.7591,-6.7919,-6.8083,-6.8083,-6.8083,-6.8463,-6.9256,-7.0015,-7.0739,-7.1498,-7.2291,-7.2713,-7.2713,-7.2713,-7.2713,-7.2713,-7.2713,-7.2713,-7.2713,-7.2713,-7.2713,-7.2713,-7.2713,-7.2713,-7.2843,-7.4326,-7.4869,-7.5076,-7.6592,-7.7223,-7.7223,-5.1596,-5.1596,-5.1596,-5.1596,-5.1596,-5.1596,-5.1596,-5.1596,-5.1596,-5.1596,-5.1596,-5.2315,-5.4204,-5.5032,-5.6136,-5.797,-5.8743,-5.9099,-5.9099,-5.9099,-5.9099,-5.9099,-5.9099,-5.9099,-5.9099,-5.9099,-5.9099,-5.9099,-5.9099,-5.9099,-5.9099,-5.9099,-5.9099,-5.9099,-5.9099,-5.9099,-5.9099,-5.9099,-5.871,-5.8052,-5.7393,0.0,-5.5688,-5.5688,-5.5478,-5.5179,-5.5179,-5.5179,-5.5179,-5.5179,-5.5179,0.0,-5.5179,-5.5179,-5.5179,-5.5179,-5.5179,-5.5269,-5.5598,-5.5962,-5.6525,-5.7476,-5.8615,0.0,0.0,-6.2313,-6.3252,0.0,0.0,0.0,0.0,0.0,0.0,0.0,0.0,0.0,0.0,0.0,0.0,0.0,0.0,0.0,0.0,0.0,-6.7428,-6.7638,-6.7959,-6.8083,-6.8083,-6.8463,-6.9049,-6.9808,-7.0532,-7.1291,-7.2084,-7.2464,-7.2713,-7.2713,-7.2713,-7.2713,-7.2713,-7.2713,-7.2713,-7.2713,-7.2713,-7.2713,-7.2713,-7.2713,-7.2713,-7.2843,-7.4326,-7.4903,-7.5076,-7.6592,-7.7223,-7.7223,-5.1596,-5.1596,-5.1596,-5.1596,-5.1596,-5.1596,-5.1596,-5.1596,-5.1596,-5.1596,-5.1596,-5.2068,-5.3389,-5.4382,-5.5558,-5.6736,-5.7804,-5.847,-5.8743,-5.8743,-5.8852,-5.9099,-5.9099,-5.9099,-5.9099,-5.9099,-5.9099,-5.9099,-5.9099,-5.9099,-5.9099,-5.9099,-5.9099,-5.9099,-5.9099,-5.9099,-5.9099,-5.9099,0.0,-5.8321,0.0,-5.7453,-5.6218,-5.6047,-5.5658,-5.5179,-5.5179,-5.5179,-5.5179,-5.5179,-5.5179,-5.5179,-5.5179,-5.5269,0.0,0.0,0.0,0.0,0.0,0.0,0.0,0.0,0.0,-6.0,0.0,0.0,0.0,0.0,0.0,0.0,0.0,0.0,0.0,0.0,0.0,0.0,0.0,0.0,0.0,0.0,0.0,0.0,0.0,0.0,-6.7428,-6.7759,-6.7999,-6.8083,-6.8083,-6.8842,-6.9635,-7.036,-7.1118,-7.1877,-7.2671,-7.2713,-7.2713,-7.2713,-7.2713,-7.2713,-7.2713,-7.2713,-7.2713,-7.2713,-7.2713,-7.2713,-7.2713,-7.2713,-7.2713,-7.2843,-7.4326,-7.4903,-7.5076,-7.6592,-7.7223,-7.7223,-5.1596,-5.1596,-5.1596,-5.1596,-5.1596,-5.1596,-5.1596,-5.1596,-5.1596,-5.1596,-5.1596,-5.2068,-5.3389,-5.3631,-5.4204,-5.55,-5.5761,-5.6251,-5.7328,-5.744,-5.7915,-5.9045,-5.9099,-5.9099,-5.9099,-5.9099,-5.9099,-5.9099,-5.9099,-5.9099,-5.9099,-5.9099,-5.9099,-5.9099,-5.9099,-5.9099,-5.9099,-5.9099,-5.9069,0.0,-5.9009,-5.7872,0.0,-5.5538,-5.5269,-5.5179,-5.5179,-5.5179,-5.5179,0.0,-5.5179,-5.5179,0.0,-5.5598,-5.6128,-5.6128,0.0,0.0,0.0,0.0,0.0,0.0,-5.8716,0.0,0.0,0.0,-6.2634,-6.3576,0.0,0.0,0.0,0.0,0.0,0.0,0.0,0.0,0.0,0.0,0.0,0.0,0.0,0.0,0.0,0.0,0.0,-6.7799,-6.7999,-6.8083,-6.8083,-6.8842,-6.9635,-7.036,-7.1118,-7.1877,-7.2671,-7.2713,-7.2713,-7.2713,-7.2713,-7.2713,-7.2713,-7.2713,-7.2713,-7.2713,-7.2713,-7.2713,-7.2713,-7.2713,-7.2713,-7.2843,-7.4326,-7.4903,-7.5076,-7.6592,-7.7223,-7.7223,-5.1544,-5.1596,-5.1596,-5.1596,0.0,0.0,-5.1596,-5.1596,-5.1596,-5.1596,-5.1596,-5.1783,-5.2315,-5.3086,-5.3724,-5.4263,-5.4973,-5.5906,-5.7131,-5.7187,-5.7804,-5.9045,-5.9099,-5.9099,-5.9099,-5.9099,-5.9099,-5.9099,-5.9099,-5.9099,-5.9099,-5.9099,-5.9099,-5.9099,-5.9099,-5.9099,-5.9099,0.0,-5.9099,0.0,0.0,0.0,0.0,-5.7004,-5.6406,-5.5718,-5.5329,-5.5179,-5.5179,0.0,-5.5179,0.0,0.0,0.0,0.0,-5.6585,0.0,0.0,0.0,0.0,0.0,0.0,0.0,0.0,-6.069,0.0,-6.1551,0.0,0.0,0.0,0.0,0.0,0.0,0.0,0.0,0.0,0.0,0.0,0.0,0.0,0.0,0.0,0.0,0.0,0.0,0.0,0.0,-6.829,-6.8773,-6.9497,-7.0256,-7.1015,-7.1774,-7.2326,-7.2713,-7.2713,-7.2713,-7.2713,-7.2713,-7.2713,-7.2713,-7.2713,-7.2713,-7.2713,-7.2713,-7.2713,-7.2713,-7.2713,-7.2713,-7.2843,-7.4326,-7.4903,-7.5076,-7.6592,-7.7223,-7.7223,-5.1309,-5.1492,-5.1596,-5.1596,0.0,0.0,0.0,-5.1596,-5.1596,-5.1596,-5.1596,-5.1596,-5.1596,-5.2439,-5.2964,-5.2964,-5.3784,-5.4915,-5.6108,-5.6508,-5.7104,-5.8055,-5.8743,-5.8936,-5.858,-5.8936,-5.9099,-5.9099,-5.9099,-5.9099,-5.9099,-5.9099,-5.9099,-5.9099,-5.9099,-5.9099,-5.9099,0.0,-5.9099,-5.9069,-5.859,-5.8381,-5.8351,-5.7992,-5.7244,-5.6346,-5.5897,-5.5718,-5.5718,-5.5718,-5.5718,0.0,-5.6286,0.0,0.0,0.0,0.0,0.0,-5.8261,0.0,0.0,0.0,0.0,0.0,0.0,0.0,0.0,0.0,0.0,0.0,0.0,0.0,-6.3148,-6.3629,0.0,0.0,0.0,0.0,0.0,0.0,0.0,0.0,0.0,0.0,0.0,0.0,-6.7931,-6.867,-6.9296,-7.0187,-7.0946,-7.1463,-7.2257,-7.2713,-7.2713,-7.2713,-7.2713,-7.2713,-7.2713,-7.2713,-7.2713,-7.2713,-7.2713,-7.2713,-7.2713,-7.2713,-7.2713,-7.2713,-7.2713,-7.2885,-7.4326,-7.4869,-7.5076,-7.6592,-7.7223,-7.7223,-5.0812,-5.123,-5.1596,-5.1596,-5.1596,0.0,0.0,0.0,-5.1596,-5.1596,-5.1596,-5.1596,-5.1596,-5.1659,-5.1659,-5.1659,-5.1721,-5.2253,-5.3571,-5.4738,-5.547,-5.5528,-5.7833,-5.8495,-5.7328,-5.844,-5.9099,-5.9099,-5.9099,-5.9099,-5.9099,-5.9099,-5.9099,-5.9099,-5.9099,-5.9099,-5.9099,-5.9099,-5.9099,-5.9099,-5.9069,-5.9069,-5.8919,0.0,-5.7094,-5.7064,-5.7034,0.0,0.0,-5.7034,-5.7034,0.0,0.0,0.0,0.0,0.0,0.0,0.0,0.0,0.0,0.0,-5.9422,0.0,0.0,0.0,0.0,-6.0481,0.0,0.0,0.0,0.0,-6.0897,-6.1443,-6.3154,-6.278,0.0,0.0,0.0,0.0,0.0,0.0,0.0,0.0,0.0,0.0,-6.6081,-6.8049,-6.9256,-6.9291,-7.067,-7.1463,-7.1498,-7.2257,-7.2713,-7.2713,-7.2713,-7.2713,-7.2713,-7.2713,-7.2713,-7.2713,-7.2713,-7.2713,-7.2713,-7.2713,-7.2713,-7.2713,-7.2713,-7.2713,-7.2885,-7.4292,-7.4912,-7.5076,-7.6592,-7.7223,-7.7223,-5.0629,-5.0943,-5.1178,-5.1544,-5.1596,0.0,0.0,-5.1596,0.0,0.0,-5.1596,0.0,0.0,-5.1596,-5.1596,0.0,0.0,-5.213,-5.345,-5.4679,0.0,-5.5412,-5.7778,-5.8495,-5.7243,-5.844,-5.9099,-5.9099,-5.9099,-5.9099,-5.9099,-5.9099,-5.9099,-5.9099,-5.9099,-5.9099,0.0,0.0,0.0,0.0,0.0,-5.9099,-5.9009,0.0,0.0,-5.7723,-5.7244,-5.7094,0.0,-5.7094,-5.7094,-5.7184,-5.7633,-5.7932,-5.8201,-5.865,-5.8919,0.0,0.0,0.0,-5.9099,-5.9207,0.0,0.0,0.0,0.0,0.0,0.0,0.0,0.0,0.0,-6.0794,-6.101,-6.1556,-6.1452,-6.139,0.0,0.0,0.0,0.0,0.0,0.0,0.0,0.0,0.0,-6.6708,-6.8356,-6.9704,0.0,-7.1222,-7.1739,-7.2257,-7.2575,-7.2713,-7.2713,-7.2713,-7.2713,-7.2713,-7.2713,-7.2713,-7.2713,-7.2713,-7.2713,-7.2713,-7.2713,-7.2713,-7.2713,-7.2713,-7.2713,-7.2885,-7.4326,-7.4869,-7.5076,-7.6592,-7.7223,-7.7223,-5.0028,-5.0342,-5.0707,-5.1465,0.0,0.0,0.0,0.0,0.0,0.0,-5.1596,0.0,-5.1596,0.0,-5.1596,0.0,-5.1596,-5.1882,-5.2596,-5.3964,0.0,-5.3904,-5.6366,-5.7189,-5.5935,-5.7552,-5.844,-5.844,-5.8882,-5.9099,-5.9099,-5.9099,-5.9099,-5.9099,-5.9099,-5.9099,-5.9099,-5.9099,-5.9099,0.0,0.0,-5.9099,0.0,0.0,-5.8471,-5.8411,0.0,-5.7812,-5.7812,-5.7812,-5.7812,-5.7902,-5.8321,-5.8471,-5.856,-5.8979,-5.9099,-5.9099,-5.9099,-5.9099,0.0,-5.9207,-5.9369,0.0,-6.0039,0.0,0.0,0.0,0.0,0.0,0.0,0.0,-6.0794,-6.0794,-6.0794,-6.0794,0.0,-6.0794,0.0,0.0,0.0,0.0,0.0,0.0,0.0,-6.7368,-6.849,-6.9742,0.0,0.0,-7.2153,-7.2713,-7.2713,-7.2713,-7.2713,-7.2713,-7.2713,-7.2713,-7.2713,-7.2713,-7.2713,-7.2713,-7.2713,-7.2713,-7.2713,-7.2713,-7.2713,-7.2713,-7.2885,-7.3188,-7.443,-7.5041,-7.5455,-7.673,-7.7223,-7.7223,0.0,-4.9531,0.0,0.0,-5.1544,0.0,0.0,0.0,-5.157,0.0,-5.157,-5.1596,-5.1596,-5.1596,-5.1596,-5.1596,-5.1596,-5.1471,-5.1183,-5.2596,0.0,0.0,-5.3844,-5.4797,-5.3571,-5.5877,-5.7075,-5.7075,-5.8331,-5.8882,-5.8936,-5.8936,-5.8936,-5.8991,-5.8991,0.0,-5.9099,-5.9099,-5.9099,-5.9099,-5.9099,-5.9099,-5.9099,-5.9099,-5.9099,-5.9099,-5.9099,-5.9099,-5.9099,-5.9099,-5.9099,-5.9099,-5.9099,-5.9099,-5.9099,-5.9099,-5.9099,-5.9099,-5.9099,-5.9099,-5.9153,-5.9422,0.0,0.0,0.0,0.0,-6.0481,0.0,0.0,0.0,0.0,0.0,-6.0855,-6.0886,-6.0886,-6.0886,-6.0886,0.0,0.0,0.0,0.0,0.0,0.0,0.0,-6.4237,-6.7925,-6.8461,-6.9533,0.0,0.0,-7.2628,-7.2713,-7.2713,-7.2713,-7.2713,-7.2713,-7.2713,-7.2713,-7.2713,-7.2713,-7.2713,-7.2713,-7.2713,-7.2713,-7.2713,-7.2713,-7.2713,-7.2713,-7.3119,-7.3843,-7.4602,-7.5395,-7.6258,-7.6947,-7.7223,-7.7223,-4.8982,-4.9531,-4.9976,0.0,-5.0707,-5.0995,0.0,0.0,0.0,0.0,-5.1335,-5.1596,-5.1596,-5.1596,-5.1596,-5.1596,-5.1596,0.0,0.0,0.0,0.0,-5.1534,-5.3964,-5.4797,-5.3571,-5.4828,-5.5588,-5.5848,-5.5935,-5.6108,-5.6337,-5.6337,-5.6821,-5.7664,-5.7664,0.0,-5.9099,-5.9099,-5.9099,-5.9099,-5.9099,-5.9099,0.0,0.0,-5.9099,-5.9099,-5.9099,-5.9099,-5.9099,-5.9099,-5.9099,-5.9099,-5.9099,-5.9099,-5.9099,-5.9099,-5.9099,-5.9099,-5.9099,-5.9099,-5.9153,-5.9422,-5.9529,-5.9636,0.0,0.0,0.0,0.0,0.0,0.0,0.0,0.0,0.0,-6.221,-6.2302,-6.2302,-6.2302,0.0,0.0,-6.2302,0.0,0.0,0.0,-6.3638,-6.5538,-6.7735,-6.8827,-7.0304,0.0,0.0,0.0,-7.2671,-7.2713,-7.2713,-7.2713,-7.2713,-7.2713,-7.2713,-7.2713,-7.2713,-7.2713,-7.2713,-7.2713,-7.2713,-7.2713,-7.2713,-7.2713,-7.2713,-7.3119,-7.3843,-7.4602,-7.574,-7.6947,-7.7154,-7.7223,-7.7223,-4.8616,0.0,0.0,-4.9531,0.0,0.0,-5.0368,-5.0394,0.0,-5.021,-5.0705,0.0,-5.1044,-5.1278,-5.1408,-5.1596,-5.1596,0.0,-5.1408,0.0,0.0,-5.1408,-5.2903,-5.3329,-5.25,-5.3664,0.0,-5.4323,-5.4856,-5.5208,-5.5412,-5.5412,-5.5732,-5.6394,0.0,-5.6821,-5.7555,-5.8055,-5.858,-5.9099,-5.9099,0.0,0.0,-5.9099,-5.9099,-5.9099,-5.9099,-5.9099,-5.9099,-5.9099,-5.9099,-5.9099,-5.9099,-5.9099,-5.9099,-5.9099,-5.9099,-5.9099,-5.9099,-5.9207,-5.9369,-5.9667,-5.9796,-6.0008,-6.0481,-6.0586,-6.0638,0.0,0.0,0.0,0.0,0.0,0.0,0.0,-6.2825,-6.2825,-6.2825,0.0,0.0,0.0,-6.3348,0.0,0.0,-6.4434,-6.6287,-6.7964,-6.847,0.0,0.0,0.0,0.0,-7.2671,-7.2253,-7.2253,-7.2671,-7.2253,-7.2253,-7.2713,-7.2713,-7.2713,-7.2713,-7.2713,-7.2713,-7.2713,-7.2713,-7.2713,-7.2713,-7.2713,-7.3326,-7.4395,-7.5499,-7.6464,-7.7223,-7.7223,-7.7223,-7.7223,0.0,0.0,0.0,0.0,0.0,0.0,0.0,-4.974,0.0,-4.9404,0.0,-5.0162,-5.0162,-5.0602,-5.1038,-5.1429,0.0,-5.133,-5.1183,-5.1408,-5.1471,-5.112,-5.1408,-5.1408,-5.112,-5.25,-5.3086,0.0,-5.4144,-5.4856,-5.4915,-5.4915,-5.4973,-5.515,0.0,0.0,0.0,-5.6736,-5.7915,-5.9099,-5.9099,-5.9099,-5.9099,-5.9099,-5.9099,-5.9099,-5.9099,-5.9099,-5.9099,-5.9099,-5.9099,-5.9099,-5.9099,-5.9099,-5.9099,-5.9099,-5.9099,-5.9099,-5.9099,-5.9261,-5.9529,-5.988,-6.0197,-6.0429,-6.0742,-6.0855,-6.0917,-6.0917,-6.1009,-6.1255,0.0,0.0,0.0,0.0,0.0,0.0,0.0,0.0,0.0,0.0,0.0,0.0,0.0,0.0,-6.6533,-6.8059,-6.7654,0.0,0.0,0.0,0.0,-7.2671,-7.183,0.0,-7.2501,0.0,-7.1742,-7.2501,-7.2628,-7.2713,-7.2713,-7.2713,-7.2713,-7.2713,-7.2713,-7.2713,-7.2713,-7.2713,-7.3567,-7.5041,-7.6592,-7.7223,-7.7223,-7.7223,-7.7223,-7.7223,0.0,0.0,0.0,0.0,0.0,-4.8381,-4.846,-4.8726,-4.8919,-4.9098,-4.9386,-4.9541,-4.9541,-4.9619,-4.9939,-5.0493,-5.0545,0.0,0.0,0.0,0.0,-5.112,-5.1408,-5.1408,-5.112,-5.1346,-5.1659,0.0,-5.1846,-5.2006,-5.2253,-5.2253,-5.2842,-5.3844,0.0,0.0,-5.6905,-5.7075,0.0,-5.9099,-5.9099,-5.9099,-5.9099,-5.9099,-5.9099,-5.9099,-5.9099,-5.9099,-5.9099,-5.9099,-5.9099,-5.9099,-5.9099,-5.9099,-5.9099,-5.9099,-5.9099,-5.9099,-5.9099,-5.9153,-5.9315,-5.9827,-6.0069,-6.0197,-6.069,-6.1225,-6.1625,-6.1625,-6.2086,-6.2671,-6.3349,0.0,0.0,0.0,0.0,0.0,0.0,0.0,0.0,0.0,0.0,-6.5571,0.0,0.0,0.0,0.0,0.0,0.0,0.0,0.0,0.0,0.0,0.0,0.0,0.0,0.0,-7.2124,-7.1478,-7.2296,-7.2713,-7.2713,-7.2713,-7.2713,-7.2713,-7.2713,-7.2713,-7.2713,-7.2713,-7.3567,-7.5041,-7.6592,-7.7223,-7.7223,-7.7223,-7.7223,-7.7223,0.0,0.0,0.0,0.0,0.0,0.0,0.0,-4.8172,0.0,-4.838,-4.8549,-4.873,-4.873,-4.8865,-4.9148,-4.9774,-5.0085,-5.0457,-5.0903,-5.1377,-5.1471,-5.112,-5.1408,-5.1346,-5.0867,-5.0994,-5.0994,-5.0804,-5.0842,-5.0968,-5.1372,-5.1372,-5.1783,-5.25,0.0,-5.3544,0.0,0.0,0.0,-5.8166,-5.8798,-5.9099,-5.9099,-5.9099,-5.9099,-5.9099,-5.9099,-5.9099,-5.9099,-5.9099,-5.9099,-5.9099,-5.9099,-5.9099,-5.9099,-5.9099,-5.9099,-5.9099,-5.9099,-5.9207,-5.9369,-5.9667,-5.9986,-6.0394,-6.0993,-6.1458,-6.1902,-6.2271,-6.2579,-6.301,-6.3718,-6.4426,0.0,0.0,0.0,0.0,0.0,0.0,-6.4888,0.0,0.0,0.0,0.0,0.0,0.0,0.0,0.0,0.0,0.0,0.0,0.0,0.0,0.0,0.0,0.0,0.0,0.0,-7.1994,-7.1951,-7.221,-7.2671,-7.2167,-7.221,-7.2713,-7.2713,-7.2713,-7.274,-7.3533,-7.4292,-7.5041,-7.6592,-7.7223,-7.7223,-7.7223,-7.7268,-7.7402,0.0,-4.8172,0.0,0.0,-4.8172,0.0,-4.8172,-4.7997,-4.7821,-4.7821,-4.7854,-4.7957,-4.8017,-4.8125,-4.8493,-4.9083,-4.9687,-5.0075,-5.0266,-5.1033,-5.1346,-5.0994,-5.1283,-5.1157,-5.055,-5.0867,-5.0867,0.0,0.0,-5.079,-5.1002,-5.1068,-5.1309,0.0,0.0,0.0,0.0,0.0,-5.5732,-5.6934,-5.8221,-5.8689,-5.8743,-5.8991,-5.9099,-5.9099,-5.9099,-5.9099,-5.9099,-5.9099,-5.9099,-5.9099,-5.9099,-5.9099,-5.9099,-5.9099,-5.9099,-5.9099,-5.9099,-5.9261,-5.9452,-5.9657,-6.0115,-6.0722,-6.1447,-6.1936,-6.2394,-6.2918,-6.3164,-6.341,-6.3964,-6.4518,0.0,0.0,0.0,0.0,0.0,0.0,0.0,0.0,0.0,0.0,-6.4888,0.0,0.0,0.0,0.0,-6.7465,-7.0163,-6.9136,0.0,0.0,0.0,-7.0996,-7.0781,0.0,-7.1786,0.0,-7.1566,-7.1742,-7.2671,-7.1654,-7.1742,-7.2713,-7.2713,-7.2816,-7.3015,-7.4361,-7.4972,-7.5283,-7.6627,-7.7223,-7.7223,-7.7223,-7.7357,-7.7613,0.0,0.0,0.0,0.0,0.0,0.0,-4.8172,-4.8172,-4.8114,-4.8114,-4.7611,-4.7401,-4.7722,-4.7511,-4.759,-4.8163,-4.8727,-4.9415,-5.024,-5.0809,-5.0994,-5.0652,-5.0994,-5.0804,-5.0168,-5.0741,-5.1057,0.0,0.0,-5.0986,-5.0829,-5.1012,-5.1309,0.0,0.0,0.0,0.0,-5.3631,-5.4382,-5.5674,-5.6878,-5.7384,-5.7496,-5.8689,-5.9099,-5.9099,-5.9099,-5.9099,-5.9099,-5.9099,-5.9099,-5.9099,-5.9099,-5.9099,-5.9099,-5.9099,-5.9099,-5.9099,-5.9099,-5.9099,-5.9357,-6.0229,-6.0705,-6.121,-6.2127,-6.3009,-6.3656,-6.3718,-6.4241,-6.4734,-6.4795,-6.4857,-6.4888,0.0,0.0,0.0,0.0,0.0,-6.4888,-6.4888,0.0,0.0,0.0,-6.4888,0.0,0.0,-6.5906,-6.6491,-6.8846,-6.7957,-6.8405,-7.0669,0.0,-7.0302,-6.9409,-7.1532,0.0,-7.1344,-7.1255,-7.1742,-7.2671,-7.1654,-7.1742,-7.2713,-7.2713,-7.305,-7.374,-7.4602,-7.5317,-7.6085,-7.6913,-7.7223,-7.7223,-7.7223,-7.7357,-7.7657,0.0,0.0,0.0,0.0,0.0,0.0,0.0,-4.8172,-4.8172,-4.8172,-4.7821,-4.756,-4.7703,-4.7231,-4.7095,-4.7539,-4.8077,-4.8727,-4.9415,-5.0168,-5.0632,-5.0588,-5.0741,-5.0677,-5.0423,-5.0677,-5.0677,0.0,0.0,0.0,-5.0369,-5.0701,0.0,0.0,0.0,-5.1783,-5.2439,-5.3207,-5.3784,-5.4382,-5.5616,-5.6537,-5.7243,-5.7804,-5.844,-5.9099,-5.9099,-5.9099,-5.9099,-5.9099,-5.9099,-5.9099,-5.9099,-5.9099,-5.9099,-5.9099,-5.9099,-5.9099,-5.9099,-5.9398,-5.9812,-6.0191,-6.0935,-6.1801,-6.261,-6.3329,-6.3964,-6.4364,-6.4703,-6.4888,-6.4888,-6.4888,-6.4888,0.0,0.0,0.0,0.0,0.0,0.0,0.0,0.0,-6.4888,0.0,0.0,0.0,0.0,0.0,0.0,-6.8683,-6.7756,0.0,-6.8879,0.0,-6.9836,-6.9457,-7.1008,-7.161,-7.121,-7.0553,-7.0781,-7.1742,-7.0736,-7.1142,-7.2713,-7.2713,-7.3084,-7.3843,-7.4602,-7.5352,-7.6189,-7.6913,-7.7223,-7.7223,-7.7223,-7.7446,-7.7798,-4.8172,0.0,-4.8172,0.0,-4.8172,-4.8172,-4.8172,-4.8172,-4.8172,-4.8172,-4.7997,-4.788,-4.788,-4.729,-4.6993,-4.7205,-4.7744,-4.8272,-4.8774,-4.9647,-5.0275,-5.0563,-5.0588,0.0,-5.0588,-5.0715,-5.0614,-5.0232,-5.0359,0.0,0.0,0.0,0.0,0.0,-5.1471,-5.1534,-5.1659,-5.2535,-5.2964,-5.3025,-5.4323,-5.5558,-5.6708,-5.7075,-5.797,-5.9099,-5.9099,-5.9099,-5.9099,-5.9099,-5.9099,-5.9099,-5.9099,-5.9099,-5.9099,-5.9099,-5.9099,-5.9129,-5.9338,-5.9727,-6.0176,-6.0565,-6.1489,-6.2475,-6.3143,-6.3709,-6.4272,-6.4795,-6.4888,-6.4888,-6.4888,-6.4888,-6.4888,-6.4888,0.0,0.0,0.0,0.0,0.0,0.0,-6.4888,-6.4888,-6.4888,0.0,0.0,0.0,0.0,0.0,0.0,0.0,0.0,0.0,0.0,0.0,0.0,-7.0289,-7.0906,-7.121,-7.0103,-7.015,-7.1176,-7.0736,-7.1321,-7.2713,-7.2713,-7.3222,-7.4154,-7.4705,-7.5489,-7.6499,-7.7016,-7.7223,-7.7223,-7.7223,-7.749,-7.7893,-4.8172,-4.8172,-4.8172,-4.8172,-4.8172,-4.8172,-4.8172,-4.8172,-4.8172,-4.8172,-4.8172,-4.8172,-4.8172,-4.756,-4.7205,-4.7205,-4.7744,-4.8212,-4.8491,-4.93,-5.005,0.0,0.0,-5.0588,-5.0588,-5.0931,-5.0931,-5.0588,0.0,0.0,-5.0292,0.0,-5.0763,-5.1596,-5.1246,-5.1309,-5.1596,-5.1596,-5.1596,-5.1721,-5.3025,-5.4263,-5.5558,-5.6736,-5.797,-5.9099,-5.9099,-5.9099,-5.9099,-5.9099,-5.9099,-5.9099,-5.9099,-5.9099,-5.9099,-5.9099,-5.9099,-5.9249,-5.9907,-6.0086,-6.0416,-6.1732,-6.2513,-6.3143,-6.3841,-6.4443,-6.4888,-6.4888,-6.4888,-6.4888,-6.4888,-6.4888,-6.4888,-6.4888,0.0,0.0,0.0,0.0,0.0,0.0,-6.4888,-6.4888,-6.4888,0.0,0.0,0.0,0.0,0.0,0.0,0.0,0.0,-6.765,-6.7719,0.0,-6.9217,-6.9457,-7.015,-7.121,-7.0103,-7.015,-7.1221,-7.221,-7.2671,-7.2713,-7.2713,-7.3533,-7.4869,-7.4903,-7.58,-7.7223,-7.7223,-7.7223,-7.7223,-7.7223,-7.749,-7.7893,-4.8172,-4.8172,-4.8172,-4.8172,-4.8172,-4.8172,-4.8172,-4.8172,-4.8172,-4.8172,-4.8172,-4.8172,-4.8172,-4.7821,-4.7442,0.0,-4.7563,-4.7923,0.0,-4.9019,-4.9708,-5.0061,-5.0383,-5.0715,-5.0931,-5.0804,-5.0804,-5.0931,0.0,0.0,0.0,-5.0861,-5.1127,-5.1596,-5.1471,-5.1471,-5.1596,-5.1596,-5.1596,-5.1659,-5.2006,-5.2964,-5.4263,-5.55,-5.6764,-5.7915,-5.8798,-5.9099,-5.9099,-5.9099,-5.9099,-5.9099,-5.9099,-5.9099,-5.9099,-5.9099,-5.9428,-5.9817,-6.0027,-6.0745,-6.1609,-6.2224,-6.3044,-6.3776,-6.4183,-6.4579,-6.4888,-6.4888,-6.4888,-6.4888,-6.4888,-6.4888,-6.4888,-6.4888,-6.4888,0.0,0.0,0.0,0.0,0.0,-6.4888,-6.4888,0.0,-6.4888,0.0,0.0,0.0,0.0,0.0,0.0,0.0,0.0,-6.7529,0.0,-6.847,-6.9217,-6.9409,-6.9105,-6.9409,-7.015,-7.1221,-7.2253,-7.2713,-7.2747,-7.3222,-7.4016,-7.4938,-7.5455,-7.6326,-7.7223,-7.7223,-7.7223,-7.7223,-7.7402,-7.7667,-7.7937,-4.8172,-4.8172,-4.8172,-4.8172,-4.8172,-4.8172,-4.8172,-4.8172,-4.8172,-4.8172,-4.8172,-4.8114,-4.7997,-4.7821,0.0,-4.7205,-4.7383,-4.764,-4.7905,-4.8737,-4.9364,-4.9805,-5.0306,-5.0778,-5.112,0.0,0.0,-5.112,-5.0867,-5.0994,-5.1309,-5.1309,-5.1408,-5.1596,-5.1596,-5.1596,-5.1596,-5.1596,-5.1596,-5.1596,-5.1596,-5.2377,-5.3631,-5.4915,-5.6136,-5.7384,-5.8634,-5.9099,-5.9099,-5.9099,-5.9099,-5.9099,-5.9099,-5.9099,-5.9099,-5.9099,-5.9578,-6.0146,-6.0416,-6.1253,-6.2208,-6.2758,-6.3434,-6.4106,-6.4524,-6.4777,-6.4888,-6.4888,-6.4888,-6.4888,-6.4888,-6.4888,-6.4888,-6.4888,-6.4888,-6.4888,-6.4888,0.0,0.0,0.0,0.0,0.0,0.0,-6.4888,-6.4888,0.0,0.0,0.0,0.0,0.0,0.0,-6.6192,-6.7046,0.0,-6.8104,-6.8321,-6.8321,-6.8122,-6.9121,-7.0335,-7.1786,-7.2382,-7.2713,-7.2747,-7.3464,-7.4223,-7.4938,-7.5775,-7.6533,-7.7223,-7.7223,-7.7223,-7.7223,-7.749,-7.771,-7.7937,-4.8172,-4.8172,0.0,0.0,-4.8172,0.0,-4.8172,-4.8172,-4.8172,-4.8172,-4.8172,-4.8055,-4.7762,-4.7703,-4.756,-4.7265,0.0,0.0,0.0,-4.8467,-4.9179,-4.9717,-5.0281,-5.0804,-5.112,-5.112,-5.112,-5.1057,-5.112,-5.1246,-5.1596,-5.1596,-5.1596,-5.1596,-5.1596,-5.1596,-5.1596,-5.1596,-5.1596,-5.1596,-5.1596,-5.2315,-5.351,-5.4856,-5.6079,-5.7272,-5.8634,-5.9099,-5.9099,-5.9099,-5.9099,-5.9099,-5.9099,-5.9129,-5.9189,-5.9189,-5.9638,-6.0296,-6.0984,-6.1672,-6.2358,-6.3331,-6.3823,-6.4218,-6.4777,-6.4888,-6.4888,-6.4888,-6.4888,-6.4888,-6.4888,-6.4888,-6.4888,-6.4888,-6.4888,-6.4888,-6.4888,0.0,0.0,0.0,0.0,0.0,0.0,-6.4888,-6.4888,0.0,0.0,0.0,0.0,0.0,-6.5839,-6.6192,-6.6512,-6.7098,-6.8004,-6.713,-6.7149,-6.8122,-6.9121,-7.0657,-7.2586,-7.2671,-7.2713,-7.2747,-7.3498,-7.4257,-7.4938,-7.5844,-7.6602,-7.7223,-7.7223,-7.7223,-7.7223,-7.7525,-7.7754,-7.7937,0.0,0.0,-4.8172,-4.8172,-4.8172,-4.8172,-4.8172,-4.8172,-4.8172,-4.8172,-4.8172,-4.8055,-4.7762,-4.7938,-4.7821,-4.7265,-4.7442,-4.7637,-4.7648,-4.8661,-4.9245,-4.9127,-5.0327,-5.0994,-5.112,-5.112,-5.0994,-5.0741,-5.0994,-5.112,-5.1246,-5.1471,-5.1596,-5.1596,-5.1596,-5.1596,-5.1596,-5.1596,-5.1596,-5.1596,-5.1596,-5.1783,-5.2315,-5.456,-5.5558,-5.6079,-5.8276,-5.9099,-5.9099,-5.9099,-5.9099,-5.9099,-5.9099,-5.9458,-5.9847,-5.9847,-6.0326,-6.1014,-6.1672,-6.2331,-6.3042,-6.3706,-6.4275,-6.4721,-6.4832,-6.4888,-6.4888,-6.4888,-6.4888,-6.4888,-6.4888,-6.4888,-6.4888,-6.4888,-6.4888,-6.4888,-6.4888,-6.4888,0.0,0.0,-6.4888,-6.4888,-6.4888,-6.4888,-6.4888,0.0,0.0,0.0,0.0,-6.5242,-6.5623,-6.6192,-6.6994,-6.7272,-6.6974,-6.7478,-6.7852,-6.8122,-6.9121,-7.0289,-7.1566,-7.2339,-7.2713,-7.2782,-7.4085,-7.4731,-7.5007,-7.6351,-7.7051,-7.7223,-7.7223,-7.7223,-7.7268,-7.7667,-7.7885,-7.7937,-4.638,-4.6883,-4.7265,-4.7265,-4.7821,-4.8114,-4.7997,-4.8114,-4.8114,-4.7997,-4.7997,-4.788,-4.7703,-4.7762,-4.756,-4.7265,-4.7383,-4.7442,-4.7442,-4.8428,-4.8948,-4.8922,-5.0187,-5.0867,-5.0867,-5.0867,-5.0867,-5.0867,-5.1183,-5.1372,-5.1372,-5.1534,-5.1596,-5.1596,-5.1596,-5.1596,-5.1596,-5.1596,-5.1596,-5.1596,-5.1596,-5.1596,-5.1846,-5.3784,-5.4501,-5.4856,-5.7358,-5.8221,-5.8331,-5.8936,-5.9099,-5.9099,-5.9099,-5.9548,-6.0146,-6.0475,-6.1044,-6.1642,-6.2002,-6.257,-6.3252,-6.388,-6.4443,-6.4888,-6.4888,-6.4888,-6.4888,-6.4888,-6.4888,-6.4888,-6.4888,-6.4888,-6.4888,-6.4888,-6.4888,-6.4888,-6.4888,-6.4888,0.0,-6.4888,-6.4888,-6.4888,-6.4888,-6.4888,-6.4888,-6.4888,0.0,0.0,-6.4888,-6.5053,-6.5351,-6.5947,-6.6659,-6.6869,-6.6617,-6.7149,-6.7852,-6.8781,-6.9313,-7.0381,-7.1873,-7.2424,-7.2843,-7.3257,-7.443,-7.5076,-7.5524,-7.674,-7.7223,-7.7223,-7.7223,-7.7223,-7.7268,-7.7719,-7.7893,-7.7937,-4.4202,-4.5086,-4.596,-4.6165,-4.7146,-4.788,-4.7821,-4.7997,-4.8055,-4.7736,-4.7703,-4.7703,-4.7586,-4.7383,-4.7265,-4.7146,-4.7205,-4.7205,-4.7265,-4.8039,-4.864,-4.8861,-4.9936,-5.0525,-5.0588,-5.0652,-5.0804,-5.112,-5.1408,-5.1534,-5.1534,-5.1596,-5.1596,-5.1596,-5.1596,-5.1596,-5.1596,-5.1596,-5.1596,-5.1596,-5.1596,-5.1596,-5.1721,-5.3025,-5.351,-5.3844,-5.6337,-5.7187,-5.7384,-5.8689,-5.9099,-5.9129,-5.9219,-5.9697,-6.0386,-6.1074,-6.1732,-6.2241,-6.2241,-6.2717,-6.3309,-6.388,-6.4443,-6.4832,-6.4888,-6.4888,-6.4888,-6.4888,-6.4888,-6.4888,-6.4888,-6.4888,-6.4888,-6.4888,-6.4888,-6.4888,-6.4888,0.0,-6.4888,-6.4888,-6.4888,-6.4888,-6.4888,-6.4888,-6.4888,-6.4888,-6.4888,-6.4888,0.0,-6.4888,-6.5163,-6.57,-6.5947,-6.6299,-6.6617,-6.6744,-6.7682,-6.9361,-6.9694,-7.0781,-7.2501,-7.2628,-7.3084,-7.3843,-7.4602,-7.5395,-7.6189,-7.6913,-7.7223,-7.7223,-7.7223,-7.7223,-7.7313,-7.7719,-7.7928,-7.8023,-4.4202,-4.4387,-4.4841,-4.596,-4.6345,-4.6883,-4.7938,-4.8198,-4.8055,-4.7736,-4.7703,-4.7527,-4.7019,-4.7349,-4.7409,-4.69,-4.7053,-4.7324,-4.756,-4.81,-4.8553,-4.8861,-4.971,-5.0295,-5.0588,-5.0867,-5.1057,-5.112,-5.1183,-5.1183,-5.1183,-5.1471,-5.1596,-5.1596,-5.1596,-5.1596,-5.1596,-5.1596,-5.1596,-5.1596,-5.1596,-5.1596,-5.1721,-5.3025,-5.351,-5.3844,-5.6337,-5.7187,-5.7384,-5.8689,-5.9099,-5.9189,-5.9757,-6.0386,-6.1074,-6.1762,-6.2421,-6.2929,-6.2929,-6.3162,-6.3538,-6.3936,-6.4244,-6.4579,-6.4832,-6.4888,-6.4888,-6.4888,-6.4888,-6.4888,-6.4888,-6.4888,-6.4888,-6.4888,-6.4888,-6.4888,-6.4888,0.0,-6.4888,-6.4888,-6.4888,-6.4888,-6.4888,-6.4888,-6.4888,-6.4888,-6.4888,-6.4888,-6.4888,-6.4888,-6.5163,-6.57,-6.5754,-6.6054,-6.6617,-6.7427,-6.8054,-6.8371,-7.0103,-7.1131,-7.1478,-7.2296,-7.3084,-7.3809,-7.4568,-7.5361,-7.6189,-7.6913,-7.7223,-7.7223,-7.7223,-7.7313,-7.7535,-7.7841,-7.8058,-7.8272,-4.212,-4.269,-4.338,-4.4003,-4.4559,-4.5086,-4.5718,-4.5778,-4.5633,-4.5329,-4.5924,-4.625,-4.5743,-4.661,-4.7019,-4.6566,-4.684,-4.7181,-4.7607,-4.7947,-4.8306,-4.8702,-4.9773,-5.055,-5.0867,-5.0994,-5.112,-5.112,-5.1309,-5.1346,-5.1346,-5.1534,-5.1596,-5.1596,-5.1596,-5.1596,-5.1596,-5.1596,-5.1596,-5.1596,-5.1596,-5.1596,-5.1659,-5.2253,-5.25,-5.2719,-5.4533,-5.5646,-5.6423,-5.7637,-5.8495,-5.9219,-5.9877,-6.0565,-6.1253,-6.1912,-6.257,-6.3079,-6.3079,-6.3309,-6.3595,-6.3936,-6.4188,-6.4524,-6.4832,-6.4888,-6.4888,-6.4888,-6.4888,-6.4888,-6.4888,-6.4888,-6.4888,-6.4888,-6.4888,0.0,0.0,-6.4888,-6.4888,-6.4888,-6.4888,-6.4888,-6.4888,-6.4888,-6.4888,-6.4888,-6.4888,-6.4888,-6.4888,-6.4888,-6.5163,-6.57,-6.6023,-6.6321,-6.6617,-6.758,-6.8371,-6.8927,-7.0461,-7.1478,-7.2038,-7.2501,-7.3326,-7.443,-7.4774,-7.5602,-7.674,-7.7085,-7.7223,-7.7223,-7.7223,-7.7357,-7.7623,-7.7841,-7.8101,-7.8314,-4.0214,-4.0971,-4.1783,-4.2079,-4.269,-4.3208,-4.363,-4.3606,-4.3458,-4.3169,-4.4065,-4.462,-4.4141,-4.55,-4.6301,-4.5853,-4.6421,-4.6974,-4.7445,-4.773,-4.8108,-4.8632,-4.9824,-5.0677,-5.0994,-5.1057,-5.112,-5.112,-5.1408,-5.1596,-5.1596,-5.1596,-5.1596,-5.1596,-5.1596,-5.1596,-5.1596,-5.1596,-5.1596,-5.1596,-5.1596,-5.1596,-5.1596,-5.1596,-5.1596,-5.1783,-5.3025,-5.4323,-5.5558,-5.6792,-5.8143,-5.9458,-6.0116,-6.0805,-6.1463,-6.2121,-6.269,-6.3079,-6.3079,-6.3252,-6.3538,-6.388,-6.4132,-6.4412,-6.4832,-6.4888,-6.4888,-6.4888,-6.4888,-6.4888,-6.4888,-6.4888,-6.4888,-6.4888,0.0,0.0,0.0,-6.4888,-6.4888,-6.4888,-6.4888,-6.4888,-6.4888,-6.4888,-6.4888,-6.4888,-6.4888,-6.4888,-6.4888,-6.4943,-6.5273,-6.5839,-6.6321,-6.6691,-6.6921,-6.7953,-6.8927,-7.001,-7.1041,-7.1917,-7.2713,-7.2843,-7.3671,-7.4903,-7.5076,-7.5937,-7.7223,-7.7223,-7.7223,-7.7223,-7.7223,-7.7402,-7.7667,-7.7807,-7.8101,-7.8399,-3.9822,-3.9822,-4.0257,-4.1546,-4.1501,-4.1797,-4.306,-4.3247,-4.3122,-4.2769,-4.3107,-4.3107,-4.2454,-4.4189,-4.5159,-4.4497,-4.5914,-4.6914,-4.7104,-4.7631,-4.8259,-4.9102,-4.9774,-5.0295,-5.0588,-5.0931,-5.112,-5.112,-5.1408,-5.1596,-5.1596,-5.1596,-5.1596,-5.1596,-5.1596,-5.1596,-5.1596,-5.1596,-5.1596,-5.1596,-5.1596,-5.1596,-5.1596,-5.1596,-5.1596,-5.1783,-5.3025,-5.4323,-5.5558,-5.6792,-5.8493,-6.0146,-6.0805,-6.1493,-6.2151,-6.281,-6.3049,-6.3079,-6.3079,-6.3137,-6.3252,-6.388,-6.3993,-6.4162,-6.4777,-6.4888,-6.4888,-6.4888,-6.4888,-6.4888,-6.4888,-6.4888,-6.4888,-6.4888,0.0,0.0,-6.4888,-6.4888,-6.4888,-6.4888,-6.4888,-6.4888,-6.4888,-6.4888,-6.4888,-6.4888,-6.4888,-6.4888,-6.4888,-6.5163,-6.5515,-6.6139,-6.6459,-6.7078,-6.8004,-6.8976,-7.001,-7.1086,-7.2124,-7.2628,-7.2747,-7.3395,-7.4154,-7.4938,-7.5706,-7.6464,-7.7223,-7.7223,-7.7223,-7.7223,-7.7223,-7.749,-7.785,-7.7893,-7.8194,-7.8574,-3.9494,-3.956,-3.9801,-4.0105,-3.9888,-3.9866,-4.0581,-4.0581,-4.0387,-4.0257,-4.1033,-4.1482,-4.1011,-4.3169,-4.4583,-4.4312,-4.5969,-4.7176,-4.7581,-4.8134,-4.8812,-4.971,-5.0384,-5.0804,-5.0931,-5.1246,-5.1408,-5.1408,-5.1534,-5.1596,-5.1596,-5.1596,-5.1596,-5.1596,-5.1596,-5.1596,-5.1596,-5.1596,-5.1596,-5.1596,-5.1596,-5.1596,-5.1596,-5.1596,-5.1596,-5.1659,-5.213,-5.3691,-5.5442,-5.5906,-5.7907,-6.0206,-6.0894,-6.1553,-6.2241,-6.2869,-6.3079,-6.3079,-6.3079,-6.3252,-6.3481,-6.388,-6.4132,-6.4356,-6.4777,-6.4888,-6.4888,-6.4888,-6.4888,-6.4888,-6.4888,-6.4888,-6.4888,-6.4888,0.0,-6.4888,-6.4888,-6.4888,-6.4888,-6.4888,-6.4888,-6.4888,-6.4888,-6.4888,-6.4888,-6.4888,-6.4888,-6.4888,-6.4888,-6.5297,-6.5731,-6.6224,-6.6459,-6.7078,-6.8072,-6.9073,-7.015,-7.121,-7.221,-7.2713,-7.2747,-7.3429,-7.4188,-7.4938,-7.5731,-7.6533,-7.7223,-7.7223,-7.7223,-7.7223,-7.7223,-7.749,-7.7893,-7.7893,-7.8194,-7.8574,-3.9276,-3.9276,-3.9276,-3.9078,-3.8747,-3.8636,-3.8835,-3.8702,-3.8549,-3.8549,-3.9451,-3.9953,-3.9648,-4.1715,-4.3177,-4.3215,-4.4765,-4.6263,-4.7417,-4.8584,-4.9469,-5.004,-5.055,-5.0867,-5.0931,-5.1283,-5.1408,-5.1408,-5.1534,-5.1596,-5.1596,-5.1596,-5.1596,-5.1596,-5.1596,-5.1596,-5.1596,-5.1596,-5.1596,-5.1596,-5.1596,-5.1596,-5.1596,-5.1596,-5.1596,-5.1596,-5.1596,-5.3268,-5.544,-5.5608,-5.78,-6.0535,-6.1194,-6.1882,-6.248,-6.2959,-6.3079,-6.3079,-6.3079,-6.3309,-6.3595,-6.3936,-6.4132,-6.4356,-6.4777,-6.4888,-6.4888,-6.4888,-6.4888,-6.4888,-6.4888,-6.4888,-6.4888,-6.4888,-6.4888,-6.4888,-6.4888,-6.4888,-6.4888,-6.4888,-6.4888,-6.4888,-6.4888,-6.4888,-6.4888,-6.4888,-6.4888,-6.4943,-6.5163,-6.5623,-6.6,-6.6299,-6.6817,-6.7529,-6.8568,-6.9265,-7.0289,-7.1654,-7.2339,-7.2713,-7.2747,-7.3705,-7.443,-7.4938,-7.6016,-7.674,-7.7223,-7.7223,-7.7223,-7.7223,-7.7223,-7.749,-7.7893,-7.7893,-7.8194,-7.8574,-3.9297,-3.8946,-3.8681,-3.8681,-3.8437,-3.8191,-3.8191,-3.8191,-3.8191,-3.8191,-3.8503,-3.8549,-3.8258,-3.9713,-4.0736,-4.0891,-4.2161,-4.3938,-4.6429,-4.8814,-5.0129,-5.0129,-5.0129,-5.0232,-5.0588,-5.0931,-5.112,-5.112,-5.1408,-5.1596,-5.1596,-5.1596,-5.1596,-5.1596,-5.1596,-5.1596,-5.1596,-5.1596,-5.1596,-5.1596,-5.1596,-5.1596,-5.1596,-5.1596,-5.1596,-5.1596,-5.1596,-5.3207,-5.5496,-5.6173,-5.8466,-6.1167,-6.1882,-6.254,-6.3079,-6.3079,-6.3079,-6.3079,-6.3079,-6.3309,-6.3595,-6.3936,-6.3993,-6.4162,-6.4777,-6.4888,-6.4888,-6.4888,-6.4888,-6.4888,-6.4888,-6.4888,-6.4888,-6.4888,-6.4888,-6.4888,-6.4888,-6.4888,-6.4888,-6.4888,-6.4888,-6.4888,-6.4888,-6.4888,-6.4888,-6.4888,-6.4888,-6.5163,-6.57,-6.6032,-6.6299,-6.6617,-6.758,-6.8568,-6.9599,-6.9599,-7.0657,-7.2713,-7.2713,-7.2713,-7.2782,-7.4257,-7.4903,-7.4972,-7.6523,-7.7223,-7.7223,-7.7223,-7.7223,-7.7223,-7.7223,-7.749,-7.7893,-7.7893,-7.8194,-7.8574,-3.857,-3.8636,-3.8615,-3.837,-3.8258,-3.8191,-3.8191,-3.8191,-3.8191,-3.8191,-3.8304,-3.8428,-3.8626,-3.9944,-4.0979,-4.1326,-4.2994,-4.4844,-4.7005,-4.8818,-4.9719,-4.9719,-5.0232,-5.0614,-5.0931,-5.1057,-5.1246,-5.1471,-5.1534,-5.1596,-5.1596,-5.1596,-5.1596,-5.1596,-5.1596,-5.1596,-5.1596,-5.1596,-5.1596,-5.1596,-5.1596,-5.1596,-5.1596,-5.1596,-5.1596,-5.1596,-5.1596,-5.2658,-5.4314,-5.5877,-5.7914,-6.0146,-6.2191,-6.2929,-6.3079,-6.3079,-6.3079,-6.3079,-6.3079,-6.3137,-6.3367,-6.388,-6.4132,-6.4412,-6.4832,-6.4888,-6.4888,-6.4888,-6.4888,-6.4888,-6.4888,-6.4888,-6.4888,-6.4888,-6.4888,-6.4888,-6.4888,-6.4888,-6.4888,-6.4888,-6.4888,-6.4888,-6.4888,-6.4888,-6.4888,-6.4888,-6.5053,-6.5351,-6.57,-6.6032,-6.6299,-6.6617,-6.758,-6.8568,-6.9599,-7.0369,-7.1399,-7.2713,-7.2713,-7.2946,-7.3498,-7.4464,-7.5179,-7.5809,-7.6809,-7.7223,-7.7223,-7.7223,-7.7223,-7.7223,-7.7402,-7.7667,-7.7893,-7.8101,-7.8357,-7.8574,-3.8437,-3.8437,-3.8437,-3.8258,-3.8191,-3.8191,-3.8191,-3.8191,-3.8191,-3.8191,-3.8336,-3.8543,-3.8745,-3.9724,-4.0562,-4.1032,-4.2764,-4.4663,-4.6378,-4.7887,-4.9047,-4.9783,-5.0168,-5.055,-5.0931,-5.1183,-5.1408,-5.1596,-5.1596,-5.1596,-5.1596,-5.1596,-5.1596,-5.1596,-5.1596,-5.1596,-5.1596,-5.1596,-5.1596,-5.1596,-5.1596,-5.1596,-5.1596,-5.1596,-5.1596,-5.1596,-5.1596,-5.2571,-5.4127,-5.6093,-5.8489,-6.1025,-6.2579,-6.3079,-6.3079,-6.3079,-6.3079,-6.3079,-6.3079,-6.3079,-6.3252,-6.388,-6.4132,-6.4356,-6.4777,-6.4888,-6.4888,-6.4888,-6.4888,-6.4888,-6.4888,-6.4888,-6.4888,-6.4888,-6.4888,-6.4888,-6.4888,-6.4888,-6.4888,-6.4888,-6.4888,-6.4888,-6.4888,-6.4888,-6.4888,-6.4888,-6.5242,-6.5538,-6.57,-6.6108,-6.6586,-6.7149,-6.8204,-6.9202,-7.0196,-7.1266,-7.2124,-7.2713,-7.2713,-7.3127,-7.3809,-7.4568,-7.5317,-7.6154,-7.6913,-7.7223,-7.7223,-7.7223,-7.7223,-7.7223,-7.7525,-7.771,-7.7937,-7.8186,-7.8441,-7.8574,-3.8681,-3.8437,-3.8191,-3.8191,-3.8191,-3.8191,-3.8191,-3.8212,-3.8253,-3.8253,-3.8626,-3.8848,-3.8889,-3.9282,-3.9785,-4.0241,-4.2021,-4.37,-4.5119,-4.6603,-4.8216,-4.9976,-5.0104,-5.0295,-5.0588,-5.122,-5.1596,-5.1596,-5.1596,-5.1596,-5.1596,-5.1596,-5.1596,-5.1596,-5.1596,-5.1596,-5.1596,-5.1596,-5.1596,-5.1596,-5.1596,-5.1596,-5.1596,-5.1596,-5.1596,-5.1596,-5.1648,-5.274,-5.4514,-5.6707,-5.9855,-6.2963,-6.3079,-6.3079,-6.3079,-6.3079,-6.3079,-6.3079,-6.3079,-6.3079,-6.3252,-6.388,-6.3993,-6.4162,-6.4777,-6.4888,-6.4888,-6.4888,-6.4888,-6.4888,-6.4888,-6.4888,-6.4888,-6.4888,-6.4888,-6.4888,-6.4888,-6.4888,-6.4888,-6.4888,-6.4888,-6.4888,-6.4888,-6.4888,-6.4888,-6.4888,-6.5406,-6.57,-6.57,-6.6268,-6.7078,-6.8072,-6.9073,-7.0103,-7.121,-7.221,-7.2713,-7.2713,-7.2713,-7.3084,-7.3912,-7.4602,-7.5352,-7.6258,-7.6913,-7.7223,-7.7223,-7.7223,-7.7223,-7.7268,-7.749,-7.7754,-7.7937,-7.8229,-7.8441,-7.8574,-3.8304,-3.8258,-3.8191,-3.8191,-3.8191,-3.8191,-3.8191,-3.8481,-3.8709,-3.8709,-3.9102,-3.9468,-3.9889,-4.0013,-4.0261,-4.0696,-4.2214,-4.37,-4.5119,-4.6603,-4.8084,-4.9654,-5.0232,-5.0525,-5.0588,-5.0994,-5.1372,-5.1596,-5.1596,-5.1596,-5.1596,-5.1596,-5.1596,-5.1596,-5.1596,-5.1596,-5.1596,-5.1596,-5.1596,-5.1596,-5.1596,-5.1596,-5.1596,-5.1596,-5.1596,-5.1648,-5.2119,-5.257,-5.3439,-5.6842,-5.9572,-6.1703,-6.2759,-6.3079,-6.3079,-6.3079,-6.3079,-6.3079,-6.3079,-6.3079,-6.3252,-6.388,-6.3993,-6.4162,-6.4777,-6.4888,-6.4888,-6.4888,-6.4888,-6.4888,-6.4888,-6.4888,-6.4888,-6.4888,-6.4888,-6.4888,-6.4888,-6.4888,-6.4888,-6.4888,-6.4888,-6.4888,-6.4888,-6.4888,-6.4888,-6.4888,-6.5406,-6.57,-6.57,-6.6268,-6.7078,-6.8072,-6.9073,-7.0103,-7.121,-7.221,-7.2713,-7.2713,-7.2713,-7.3395,-7.4705,-7.4843,-7.5671,-7.6982,-7.7154,-7.7223,-7.7223,-7.7223,-7.7313,-7.7535,-7.7754,-7.8015,-7.8229,-7.8483,-7.8532,-7.8574,-3.8191,-3.8191,-3.8191,-3.8191,-3.8357,-3.8502,-3.8502,-3.8807,-3.9096,-3.9096,-3.9509,-3.9951,-4.0179,-4.0406,-4.0634,-4.0862,-4.1643,-4.2678,-4.4092,-4.5526,-4.7003,-4.8502,-4.9694,-5.0423,-5.0588,-5.0931,-5.1246,-5.1596,-5.1596,-5.1596,-5.1596,-5.1596,-5.1596,-5.1596,-5.1596,-5.1596,-5.1596,-5.1596,-5.1596,-5.1596,-5.1596,-5.1596,-5.1596,-5.1596,-5.1779,-5.2067,-5.238,-5.3271,-5.4591,-5.691,-5.9182,-6.1226,-6.188,-6.2585,-6.3079,-6.3079,-6.3079,-6.3079,-6.3079,-6.3079,-6.3252,-6.388,-6.3993,-6.4162,-6.4777,-6.4888,-6.4888,-6.4888,-6.4888,-6.4888,-6.4888,-6.4888,-6.4888,-6.4888,-6.4888,-6.4888,-6.4888,-6.4888,-6.4888,-6.4888,-6.4888,-6.4888,-6.4888,-6.4888,-6.4888,-6.4888,-6.5406,-6.57,-6.57,-6.6733,-6.7783,-6.8781,-6.9822,-7.0872,-7.1907,-7.2459,-7.2713,-7.2713,-7.3092,-7.3809,-7.4903,-7.5326,-7.612,-7.7223,-7.7223,-7.7223,-7.7223,-7.7223,-7.7268,-7.7446,-7.7763,-7.8015,-7.8143,-7.8448,-7.8574,-7.8574,-3.8191,-3.8191,-3.8212,-3.8295,-3.8605,-3.8807,-3.8889,-3.9282,-3.9592,-3.9592,-4.0054,-4.0323,-4.0303,-4.0655,-4.0882,-4.0882,-4.0882,-4.1502,-4.3027,-4.4161,-4.5594,-4.7335,-4.8958,-5.0078,-5.0588,-5.0994,-5.1309,-5.1596,-5.1596,-5.1596,-5.1596,-5.1596,-5.1596,-5.1596,-5.1596,-5.1596,-5.1596,-5.1596,-5.1596,-5.1596,-5.1596,-5.1648,-5.1753,-5.1753,-5.2119,-5.2668,-5.2746,-5.4198,-5.6158,-5.7095,-5.8905,-6.0837,-6.1286,-6.2204,-6.3079,-6.3079,-6.3079,-6.3079,-6.3079,-6.3079,-6.3252,-6.388,-6.3993,-6.4162,-6.4777,-6.4888,-6.4888,-6.4888,-6.4888,-6.4888,-6.4888,-6.4888,-6.4888,-6.4888,-6.4888,-6.4888,-6.4888,-6.4888,-6.4888,-6.4888,-6.4888,-6.4888,-6.4888,-6.4888,-6.4888,-6.4888,-6.5406,-6.57,-6.57,-6.724,-6.8568,-6.9552,-7.0645,-7.1654,-7.2671,-7.2713,-7.2782,-7.292,-7.3636,-7.4326,-7.4903,-7.5696,-7.6533,-7.7223,-7.7223,-7.7223,-7.7223,-7.7223,-7.7268,-7.7357,-7.7719,-7.7937,-7.8066,-7.8448,-7.8574,-7.8574,-3.8191,-3.8191,-3.8316,-3.8688,-3.8745,-3.891,-3.9323,-3.9778,-4.0137,-4.0137,-4.051,-4.0779,-4.0779,-4.0841,-4.0882,-4.0882,-4.0882,-4.1502,-4.3027,-4.3306,-4.4595,-4.7293,-4.8191,-4.9232,-5.0588,-5.122,-5.1534,-5.1596,-5.1596,-5.1596,-5.1596,-5.1596,-5.1596,-5.1596,-5.1596,-5.1596,-5.1596,-5.1596,-5.1596,-5.1596,-5.1596,-5.191,-5.238,-5.238,-5.2746,-5.3347,-5.3792,-5.4525,-5.5604,-5.8032,-5.9064,-5.9745,-6.2087,-6.2933,-6.3079,-6.3079,-6.3079,-6.3079,-6.3079,-6.3079,-6.3252,-6.388,-6.3993,-6.4162,-6.4777,-6.4888,-6.4888,-6.4888,-6.4888,-6.4888,-6.4888,-6.4888,-6.4888,-6.4888,-6.4888,-6.4888,-6.4888,-6.4888,-6.4888,-6.4888,-6.4888,-6.4888,-6.4888,-6.4888,-6.4888,-6.4888,-6.5406,-6.57,-6.57,-6.724,-6.8568,-6.9552,-7.0645,-7.1654,-7.2671,-7.2713,-7.3023,-7.3636,-7.443,-7.48,-7.4903,-7.5696,-7.6533,-7.7223,-7.7223,-7.7223,-7.7223,-7.7223,-7.7446,-7.7807,-7.785,-7.8151,-7.849,-7.8574,-7.8574,-7.8574,-3.8502,-3.8564,-3.8709,-3.9096,-3.9385,-3.9612,-3.9889,-4.0303,-4.0593,-4.0593,-4.0758,-4.0882,-4.0882,-4.0882,-4.0882,-4.0882,-4.0882,-4.1147,-4.1855,-4.3353,-4.4914,-4.6445,-4.8322,-4.9797,-5.0867,-5.1183,-5.1408,-5.1596,-5.1596,-5.1596,-5.1596,-5.1596,-5.1596,-5.1596,-5.1596,-5.1596,-5.1596,-5.1596,-5.1779,-5.2093,-5.2093,-5.2459,-5.3008,-5.3008,-5.3347,-5.3922,-5.4497,-5.4863,-5.5405,-5.7322,-5.8502,-5.9436,-6.1376,-6.2526,-6.3079,-6.3079,-6.3079,-6.3079,-6.3079,-6.3079,-6.3252,-6.388,-6.3993,-6.4162,-6.4777,-6.4888,-6.4888,-6.4888,-6.4888,-6.4888,-6.4888,-6.4888,-6.4888,-6.4888,-6.4888,-6.4888,-6.4888,-6.4888,-6.4888,-6.4888,-6.4888,-6.4888,-6.4888,-6.4888,-6.4943,-6.5108,-6.5483,-6.6045,-6.6806,-6.8172,-6.9442,-7.0461,-7.1488,-7.2253,-7.2671,-7.2713,-7.3092,-7.3809,-7.4568,-7.511,-7.5637,-7.6395,-7.6913,-7.7223,-7.7223,-7.7223,-7.7223,-7.7223,-7.7402,-7.7754,-7.7885,-7.8194,-7.8574,-7.8574,-7.8574,-7.8574]},{"header":{"parameterUnit":"m.s-1","parameterCategory":1,"la1":30.6,"la2":28.766,"lo1":-90.7593,"lo2":-88.6598,"dy":0.0162,"dx":0.0183,"nx":116,"ny":114,"refTime":"2023-11-16T06:00:00:Z","depth":0,"parameterNumber":3,"parameterNumberName":"V-component_of_WINDS"},"data":[0.0,0.0,0.0,0.0,0.0,0.0,0.0,0.0,0.0,0.0,0.0,0.0,0.0,0.0,0.0,0.0,0.0,0.0,0.0,0.0,0.0,0.0,0.0,0.0,0.0,0.0,0.0,0.0,0.0,0.0,0.0,0.0,0.0,0.0,0.0,0.0,0.0,0.0,0.0,0.0,0.0,0.0,0.0,0.0,0.0,0.0,0.0,0.0,0.0,0.0,0.0,0.0,0.0,0.0,0.0,0.0,0.0,0.0,0.0,0.0,0.0,0.0,0.0,0.0,0.0,0.0,0.0,0.0,0.0,0.0,0.0,0.0,0.0,0.0,0.0,0.0,0.0,0.0,0.0,0.0,0.0,0.0,0.0,0.0,0.0,0.0,0.0,0.0,0.0,0.0,0.0,0.0,0.0,0.0,0.0,0.0,0.0,0.0,0.0,0.0,0.0,0.0,0.0,0.0,0.0,0.0,0.0,0.0,0.0,0.0,0.0,0.0,0.0,0.0,0.0,0.0,0.0,0.0,0.0,0.0,0.0,0.0,0.0,0.0,0.0,0.0,0.0,0.0,0.0,0.0,0.0,0.0,0.0,0.0,0.0,0.0,0.0,0.0,0.0,0.0,0.0,0.0,0.0,0.0,0.0,0.0,0.0,0.0,0.0,0.0,0.0,0.0,0.0,0.0,0.0,0.0,0.0,0.0,0.0,0.0,0.0,0.0,0.0,0.0,0.0,0.0,0.0,0.0,0.0,0.0,0.0,0.0,0.0,0.0,0.0,0.0,0.0,0.0,0.0,0.0,0.0,0.0,0.0,0.0,0.0,0.0,0.0,0.0,0.0,0.0,0.0,0.0,0.0,0.0,0.0,0.0,0.0,0.0,0.0,0.0,0.0,0.0,0.0,0.0,0.0,0.0,0.0,0.0,0.0,0.0,0.0,0.0,0.0,0.0,0.0,0.0,0.0,0.0,0.0,0.0,0.0,0.0,0.0,0.0,0.0,0.0,0.0,0.0,0.0,0.0,0.0,0.0,0.0,0.0,0.0,0.0,0.0,0.0,0.0,0.0,0.0,0.0,0.0,0.0,0.0,0.0,0.0,0.0,0.0,0.0,0.0,0.0,0.0,0.0,0.0,0.0,0.0,0.0,0.0,0.0,0.0,0.0,0.0,0.0,0.0,0.0,0.0,0.0,0.0,0.0,0.0,0.0,0.0,0.0,0.0,0.0,0.0,0.0,0.0,0.0,0.0,0.0,0.0,0.0,0.0,0.0,0.0,0.0,0.0,0.0,0.0,0.0,0.0,0.0,0.0,0.0,0.0,0.0,0.0,0.0,0.0,0.0,0.0,0.0,0.0,0.0,0.0,0.0,0.0,0.0,0.0,0.0,0.0,0.0,0.0,0.0,0.0,0.0,0.0,0.0,0.0,0.0,0.0,0.0,0.0,0.0,0.0,0.0,0.0,0.0,0.0,0.0,0.0,0.0,0.0,0.0,0.0,0.0,0.0,0.0,0.0,0.0,0.0,0.0,0.0,0.0,0.0,0.0,0.0,0.0,0.0,0.0,0.0,0.0,0.0,0.0,0.0,0.0,0.0,0.0,0.0,0.0,0.0,0.0,0.0,0.0,0.0,0.0,0.0,0.0,0.0,0.0,0.0,0.0,0.0,0.0,0.0,0.0,0.0,0.0,0.0,0.0,0.0,0.0,0.0,0.0,0.0,0.0,0.0,0.0,0.0,0.0,0.0,0.0,0.0,0.0,0.0,0.0,0.0,0.0,0.0,0.0,0.0,0.0,0.0,0.0,0.0,0.0,0.0,0.0,0.0,0.0,0.0,0.0,0.0,0.0,0.0,0.0,0.0,0.0,0.0,0.0,0.0,0.0,0.0,0.0,0.0,0.0,0.0,0.0,0.0,0.0,0.0,0.0,0.0,0.0,0.0,0.0,0.0,0.0,0.0,0.0,0.0,0.0,0.0,0.0,0.0,0.0,0.0,0.0,0.0,0.0,0.0,0.0,0.0,0.0,0.0,0.0,0.0,0.0,0.0,0.0,0.0,0.0,0.0,0.0,0.0,0.0,0.0,0.0,0.0,0.0,0.0,0.0,0.0,0.0,0.0,0.0,0.0,0.0,0.0,0.0,0.0,0.0,0.0,0.0,0.0,0.0,0.0,0.0,0.0,0.0,0.0,0.0,0.0,0.0,0.0,0.0,0.0,0.0,0.0,0.0,0.0,0.0,0.0,0.0,0.0,0.0,0.0,0.0,0.0,0.0,0.0,0.0,0.0,0.0,0.0,0.0,0.0,0.0,0.0,0.0,0.0,0.0,0.0,0.0,0.0,0.0,0.0,0.0,0.0,0.0,0.0,0.0,0.0,0.0,0.0,0.0,0.0,0.0,0.0,0.0,0.0,0.0,0.0,0.0,0.0,0.0,0.0,0.0,0.0,0.0,0.0,0.0,0.0,0.0,0.0,0.0,0.0,0.0,0.0,0.0,0.0,0.0,0.0,0.0,0.0,0.0,0.0,0.0,0.0,0.0,0.0,0.0,0.0,0.0,0.0,0.0,0.0,0.0,0.0,0.0,0.0,0.0,0.0,0.0,0.0,0.0,0.0,0.0,0.0,0.0,0.0,0.0,0.0,0.0,0.0,0.0,0.0,0.0,0.0,0.0,0.0,0.0,0.0,0.0,0.0,0.0,0.0,0.0,0.0,0.0,0.0,0.0,0.0,0.0,0.0,0.0,0.0,0.0,0.0,0.0,0.0,0.0,0.0,0.0,0.0,0.0,0.0,0.0,0.0,0.0,0.0,0.0,0.0,0.0,0.0,0.0,0.0,0.0,0.0,0.0,0.0,0.0,0.0,0.0,0.0,0.0,0.0,0.0,0.0,0.0,0.0,0.0,0.0,0.0,0.0,0.0,0.0,0.0,0.0,0.0,0.0,0.0,0.0,0.0,0.0,0.0,0.0,0.0,0.0,0.0,0.0,0.0,0.0,0.0,0.0,0.0,0.0,0.0,0.0,0.0,0.0,0.0,0.0,0.0,0.0,0.0,0.0,0.0,0.0,0.0,0.0,0.0,0.0,0.0,0.0,0.0,0.0,0.0,0.0,0.0,0.0,0.0,0.0,0.0,0.0,0.0,0.0,0.0,0.0,0.0,0.0,0.0,0.0,0.0,0.0,0.0,0.0,0.0,0.0,0.0,0.0,0.0,0.0,0.0,0.0,0.0,0.0,0.0,0.0,0.0,0.0,0.0,0.0,0.0,0.0,0.0,0.0,0.0,0.0,0.0,0.0,0.0,0.0,0.0,0.0,0.0,0.0,0.0,0.0,0.0,0.0,0.0,0.0,0.0,0.0,0.0,0.0,0.0,0.0,0.0,0.0,0.0,0.0,0.0,0.0,0.0,0.0,0.0,0.0,0.0,0.0,0.0,0.0,0.0,0.0,0.0,0.0,0.0,0.0,0.0,0.0,0.0,0.0,0.0,0.0,0.0,0.0,0.0,0.0,0.0,0.0,0.0,0.0,0.0,0.0,0.0,0.0,0.0,0.0,0.0,0.0,0.0,0.0,0.0,0.0,0.0,0.0,0.0,0.0,0.0,0.0,0.0,0.0,0.0,0.0,0.0,0.0,0.0,0.0,0.0,0.0,0.0,0.0,0.0,0.0,0.0,0.0,0.0,0.0,0.0,0.0,0.0,0.0,0.0,0.0,0.0,0.0,0.0,0.0,0.0,0.0,0.0,0.0,0.0,0.0,0.0,0.0,0.0,0.0,0.0,0.0,0.0,0.0,0.0,0.0,0.0,0.0,0.0,0.0,0.0,0.0,0.0,0.0,0.0,0.0,0.0,0.0,0.0,0.0,0.0,0.0,0.0,0.0,0.0,0.0,0.0,0.0,0.0,0.0,0.0,0.0,0.0,0.0,0.0,0.0,0.0,0.0,0.0,0.0,0.0,0.0,0.0,0.0,0.0,0.0,0.0,0.0,0.0,0.0,0.0,0.0,0.0,0.0,0.0,0.0,0.0,0.0,0.0,0.0,0.0,0.0,0.0,0.0,0.0,0.0,0.0,0.0,0.0,0.0,0.0,0.0,0.0,0.0,0.0,0.0,0.0,0.0,0.0,0.0,0.0,0.0,0.0,0.0,0.0,0.0,0.0,0.0,0.0,0.0,0.0,0.0,0.0,0.0,0.0,0.0,0.0,0.0,0.0,0.0,0.0,0.0,0.0,0.0,0.0,0.0,0.0,0.0,0.0,0.0,0.0,0.0,0.0,0.0,0.0,0.0,0.0,0.0,0.0,0.0,0.0,0.0,0.0,0.0,0.0,0.0,0.0,0.0,0.0,0.0,0.0,0.0,0.0,0.0,0.0,0.0,0.0,0.0,0.0,0.0,0.0,0.0,0.0,0.0,0.0,0.0,0.0,0.0,0.0,0.0,0.0,0.0,0.0,0.0,0.0,0.0,0.0,0.0,0.0,0.0,0.0,0.0,0.0,0.0,0.0,0.0,0.0,0.0,0.0,0.0,0.0,0.0,0.0,0.0,0.0,0.0,0.0,0.0,0.0,0.0,0.0,0.0,0.0,0.0,0.0,0.0,0.0,0.0,0.0,0.0,0.0,0.0,0.0,0.0,0.0,0.0,0.0,0.0,0.0,0.0,0.0,0.0,0.0,0.0,0.0,0.0,0.0,0.0,0.0,0.0,0.0,0.0,0.0,0.0,0.0,0.0,0.0,0.0,0.0,0.0,0.0,0.0,0.0,0.0,0.0,0.0,0.0,0.0,0.0,0.0,0.0,0.0,0.0,0.0,0.0,0.0,0.0,0.0,0.0,0.0,0.0,0.0,0.0,0.0,0.0,0.0,0.0,0.0,0.0,0.0,0.0,0.0,0.0,0.0,0.0,0.0,0.0,0.0,0.0,0.0,0.0,0.0,0.0,0.0,0.0,0.0,0.0,0.0,0.0,0.0,0.0,0.0,0.0,0.0,0.0,0.0,0.0,0.0,0.0,0.0,0.0,0.0,0.0,0.0,0.0,0.0,0.0,0.0,0.0,0.0,0.0,0.0,0.0,0.0,0.0,0.0,0.0,0.0,0.0,0.0,0.0,0.0,0.0,0.0,0.0,0.0,0.0,0.0,0.0,0.0,0.0,0.0,0.0,0.0,0.0,0.0,0.0,0.0,0.0,0.0,0.0,0.0,0.0,0.0,0.0,0.0,0.0,0.0,0.0,0.0,0.0,0.0,0.0,0.0,0.0,0.0,0.0,0.0,0.0,0.0,0.0,0.0,0.0,0.0,0.0,0.0,0.0,0.0,0.0,0.0,0.0,0.0,0.0,0.0,0.0,0.0,0.0,0.0,0.0,0.0,0.0,0.0,0.0,0.0,0.0,0.0,0.0,0.0,0.0,0.0,0.0,0.0,0.0,0.0,0.0,0.0,0.0,0.0,0.0,0.0,0.0,0.0,0.0,0.0,0.0,0.0,0.0,0.0,0.0,0.0,0.0,0.0,0.0,0.0,0.0,0.0,0.0,0.0,0.0,0.0,0.0,0.0,0.0,0.0,0.0,0.0,0.0,0.0,0.0,0.0,0.0,0.0,0.0,0.0,0.0,0.0,0.0,0.0,0.0,0.0,0.0,0.0,0.0,0.0,0.0,0.0,0.0,0.0,0.0,0.0,0.0,0.0,0.0,0.0,0.0,0.0,0.0,0.0,0.0,0.0,0.0,0.0,0.0,0.0,0.0,0.0,0.0,0.0,0.0,0.0,0.0,0.0,0.0,0.0,0.0,0.0,0.0,0.0,0.0,0.0,0.0,0.0,0.0,0.0,0.0,0.0,0.0,0.0,0.0,0.0,0.0,0.0,0.0,0.0,0.0,0.0,0.0,0.0,0.0,0.0,0.0,0.0,0.0,0.0,0.0,0.0,0.0,0.0,0.0,0.0,0.0,0.0,0.0,0.0,0.0,0.0,0.0,0.0,0.0,0.0,0.0,0.0,0.0,0.0,0.0,0.0,0.0,0.0,0.0,0.0,0.0,0.0,0.0,0.0,0.0,0.0,0.0,0.0,0.0,0.0,0.0,0.0,0.0,0.0,0.0,0.0,0.0,0.0,0.0,-0.2692,0.0,0.0,0.0,0.0,0.0,0.0,0.0,0.0,0.0,0.0,0.0,0.0,0.0,0.0,0.0,0.0,0.0,0.0,0.0,0.0,0.0,0.0,0.0,0.0,0.0,0.0,0.0,0.0,0.0,0.0,0.0,0.0,0.0,0.0,0.0,0.0,0.0,0.0,-2.3938,-2.3201,-2.2928,-2.2928,-2.2712,-2.2645,-2.2645,0.0,0.0,0.0,0.0,0.0,0.0,0.0,0.0,0.0,0.0,0.0,0.0,0.0,0.0,0.0,0.0,0.0,0.0,0.0,0.0,0.0,0.0,0.0,0.0,0.0,0.0,0.0,0.0,0.0,0.0,0.0,0.0,0.0,0.0,0.0,0.0,0.0,0.0,0.0,0.0,0.0,0.0,0.0,0.0,0.0,0.0,0.0,0.0,0.0,0.0,0.0,0.0,0.0,0.0,0.0,0.0,0.0,0.0,0.0,0.0,0.0,0.0,0.0,0.0,0.0,0.0,0.0,0.0,0.0,0.0,0.0,-0.2692,0.0,0.0,0.0,0.0,0.0,0.0,0.0,0.0,0.0,0.0,0.0,0.0,0.0,0.0,0.0,0.0,0.0,0.0,0.0,0.0,0.0,0.0,0.0,-3.3633,-3.3418,-3.3418,-3.3418,-3.3418,0.0,0.0,0.0,0.0,0.0,0.0,-2.7105,-2.5935,-2.5143,-2.4602,-2.342,-2.2779,-2.2779,-2.2485,-2.2311,-2.2271,-2.2325,0.0,0.0,0.0,0.0,0.0,0.0,0.0,0.0,0.0,0.0,0.0,0.0,0.0,0.0,0.0,0.0,0.0,0.0,0.0,0.0,0.0,0.0,0.0,0.0,0.0,0.0,0.0,0.0,0.0,0.0,0.0,0.0,0.0,0.0,0.0,0.0,0.0,0.0,0.0,0.0,0.0,0.0,0.0,0.0,0.0,0.0,0.0,0.0,0.0,0.0,0.0,0.0,0.0,0.0,0.0,0.0,0.0,0.0,0.0,0.0,0.0,0.0,0.0,-0.2692,-0.2692,-0.2692,-0.2692,-0.2692,-0.2692,-0.2692,-0.2692,-0.2692,-0.2692,0.0,0.0,0.0,0.0,0.0,0.0,0.0,0.0,0.0,0.0,0.0,0.0,0.0,0.0,0.0,0.0,0.0,0.0,0.0,0.0,0.0,-3.3457,-3.3418,-3.3418,-3.3418,-3.3418,-3.3418,0.0,0.0,0.0,0.0,0.0,-2.7172,-2.6922,-2.5651,-2.3201,-2.2673,-2.2472,-2.2472,-2.2178,-2.1911,-2.1748,-2.1937,-2.2017,-2.1991,0.0,0.0,0.0,0.0,0.0,0.0,0.0,0.0,0.0,0.0,0.0,0.0,0.0,0.0,0.0,0.0,0.0,0.0,0.0,0.0,0.0,0.0,0.0,0.0,0.0,0.0,0.0,0.0,0.0,0.0,0.0,0.0,0.0,0.0,0.0,0.0,0.0,0.0,0.0,0.0,0.0,-1.2501,-1.2501,0.0,0.0,0.0,0.0,0.0,0.0,0.0,0.0,0.0,0.0,0.0,0.0,0.0,-0.266,-0.2686,-0.269,-0.2692,-0.2692,-0.2692,-0.2692,-0.2692,-0.2692,-0.2692,-0.2692,-0.2692,0.0,-0.2692,-0.2692,0.0,0.0,0.0,0.0,0.0,0.0,0.0,0.0,0.0,0.0,0.0,0.0,0.0,0.0,0.0,0.0,0.0,0.0,0.0,0.0,0.0,-3.3418,-3.3418,-3.3418,-3.3418,-3.3418,-3.3418,-3.3102,0.0,0.0,0.0,-3.1075,-2.9198,-2.7802,-2.5628,-2.2619,-2.2485,-2.2338,-2.2164,-2.1884,-2.1735,-2.1614,-2.151,-2.1496,-2.1496,-2.1496,0.0,0.0,0.0,0.0,0.0,0.0,0.0,0.0,0.0,0.0,0.0,0.0,0.0,0.0,0.0,0.0,0.0,0.0,0.0,0.0,0.0,0.0,0.0,0.0,0.0,0.0,0.0,0.0,0.0,0.0,0.0,0.0,0.0,0.0,0.0,0.0,0.0,0.0,0.0,-1.2501,-1.2501,-1.2501,-1.2501,-1.1876,0.0,0.0,0.0,0.0,0.0,0.0,0.0,0.0,0.0,-0.2563,-0.2664,-0.2679,-0.2692,-0.2692,-0.2692,-0.2692,-0.2692,-0.2692,-0.2692,-0.2692,-0.2692,-0.2692,-0.2692,-0.2692,-0.2692,-0.2692,-0.2692,-0.2692,0.0,0.0,0.0,0.0,-0.487,-0.5795,0.0,0.0,0.0,0.0,0.0,0.0,0.0,0.0,0.0,0.0,0.0,0.0,-3.3516,-3.3418,-3.3418,-3.3418,-3.3418,-3.3418,-3.3418,-3.3102,-3.274,-3.2422,-3.2102,-3.1404,-3.0284,-2.7687,-2.5004,-2.2418,-2.2271,-2.2084,-2.1871,-2.1641,-2.1443,-2.143,-2.1203,-2.1109,-2.1109,-2.1109,-2.1109,-2.1109,0.0,0.0,0.0,0.0,0.0,0.0,0.0,0.0,0.0,0.0,0.0,0.0,0.0,0.0,0.0,0.0,0.0,0.0,0.0,0.0,0.0,0.0,0.0,0.0,0.0,0.0,0.0,0.0,0.0,0.0,0.0,0.0,0.0,0.0,0.0,0.0,0.0,-1.2501,-1.2501,-1.2501,-1.2114,-1.1333,0.0,0.0,0.0,0.0,0.0,0.0,-0.2568,-0.2598,-0.2627,-0.2658,-0.268,-0.2692,-0.2692,-0.2692,-0.2692,-0.2692,-0.2692,-0.2692,-0.2692,-0.2692,-0.2943,-0.3363,-0.3363,-0.3614,-0.4034,-0.3616,-0.3363,-0.3447,-0.3962,-0.4974,-0.6152,-0.6168,-0.7021,-0.8214,0.0,0.0,0.0,0.0,0.0,0.0,0.0,0.0,0.0,0.0,0.0,-3.4375,-3.3516,-3.3418,-3.3418,-3.3418,-3.3418,-3.3418,-3.3418,-3.3102,-3.274,-3.2422,-3.2102,-3.0938,-2.8862,-2.5745,-2.3605,-2.2418,-2.1871,-2.1655,-2.1628,-2.1269,-2.1136,-2.1136,-2.1122,-2.1109,-2.1109,-2.1109,-2.1109,-2.1109,-2.1109,0.0,0.0,0.0,0.0,0.0,0.0,0.0,0.0,0.0,0.0,0.0,0.0,0.0,0.0,0.0,0.0,0.0,0.0,0.0,0.0,0.0,0.0,0.0,0.0,0.0,0.0,0.0,0.0,0.0,0.0,0.0,0.0,0.0,0.0,0.0,0.0,0.0,0.0,-1.2501,-1.1095,0.0,0.0,0.0,0.0,-0.5014,-0.349,-0.257,-0.2598,-0.2628,-0.2658,-0.269,-0.2691,-0.2692,-0.2692,-0.2692,-0.2692,-0.2692,-0.2692,-0.2692,-0.2692,-0.2692,-0.3614,-0.5287,-0.5287,-0.6208,-0.7634,-0.5957,-0.5287,-0.546,-0.7293,-0.8086,-0.8183,-0.8268,-0.8387,-0.8732,0.0,0.0,0.0,0.0,0.0,0.0,0.0,0.0,-3.5703,-3.4805,-3.4707,-3.4375,-3.3516,-3.3418,-3.3418,-3.3418,-3.3418,-3.3418,-3.3418,-3.3102,-3.274,-3.2422,-3.184,-3.0538,-2.8357,-2.636,-2.4645,-2.3134,-2.2097,-2.1521,-2.1269,-2.1162,-2.1109,-2.1109,-2.1109,-2.1109,-2.1109,-2.1109,-2.1109,-2.1109,-2.1109,-2.1109,0.0,0.0,0.0,0.0,0.0,0.0,0.0,0.0,0.0,0.0,0.0,0.0,0.0,0.0,0.0,0.0,0.0,0.0,0.0,0.0,0.0,0.0,0.0,0.0,0.0,0.0,0.0,0.0,0.0,0.0,0.0,0.0,0.0,0.0,0.0,0.0,0.0,-1.2501,-1.1953,0.0,-1.1643,-0.8604,-0.6598,-0.6645,-0.4141,-0.2581,-0.2628,-0.2641,-0.2661,-0.2691,-0.2692,-0.2692,-0.2692,-0.2692,-0.2692,-0.2692,-0.2692,-0.3279,-0.4451,-0.4451,-0.4787,-0.5457,-0.6758,-0.6951,-0.6616,-0.8365,-0.8437,-0.7377,-0.8146,-0.9126,-1.0159,-1.0199,-1.0988,-1.2036,0.0,0.0,0.0,0.0,0.0,0.0,0.0,0.0,-3.5762,-3.5019,-3.4805,-3.4434,-3.3711,-3.3516,-3.3418,-3.3418,-3.3418,-3.3418,-3.3418,-3.3165,-3.2867,-3.2422,-3.1582,-3.0266,-2.834,-2.7184,-2.5613,-2.3481,-2.2567,-2.1742,-2.1109,-2.1109,-2.1109,-2.1109,-2.1109,-2.1109,-2.1109,-2.1109,-2.1109,-2.1109,-2.1109,-2.1162,-2.1269,0.0,0.0,0.0,0.0,0.0,0.0,0.0,0.0,0.0,0.0,0.0,0.0,0.0,0.0,0.0,0.0,0.0,0.0,0.0,0.0,0.0,0.0,0.0,0.0,0.0,0.0,0.0,0.0,0.0,0.0,0.0,0.0,0.0,0.0,0.0,-1.2501,-1.2501,-1.203,-1.1643,-1.1643,-0.9148,-0.7315,-0.6763,-0.4726,-0.3161,-0.2645,-0.2657,-0.2672,-0.2691,-0.2692,-0.3027,-0.3614,-0.3027,-0.3027,-0.3614,-0.3027,-0.3363,-0.4535,-0.5119,-0.5717,-0.6495,-0.8323,-0.8875,-0.8573,-1.109,-1.1435,-1.0249,-1.0325,-1.1139,-1.2188,-1.2229,-1.2947,-1.4007,0.0,0.0,0.0,0.0,0.0,0.0,0.0,-3.6016,-3.5879,-3.5449,-3.5,-3.4551,-3.4121,-3.3691,-3.3437,-3.3418,-3.3418,-3.3418,-3.3418,-3.3355,-3.3102,-3.2403,-3.1392,-3.0157,-2.8764,-2.7963,-2.6251,-2.3545,-2.3223,-2.2404,-2.1109,-2.1109,-2.1109,-2.1109,-2.1109,-2.1109,-2.1109,-2.1109,-2.1109,-2.1109,-2.1109,-2.1283,-2.1588,0.0,0.0,0.0,0.0,0.0,0.0,0.0,0.0,0.0,0.0,0.0,0.0,0.0,0.0,0.0,0.0,0.0,0.0,0.0,0.0,0.0,0.0,0.0,0.0,0.0,0.0,0.0,0.0,0.0,0.0,0.0,0.0,0.0,-1.2501,-1.2501,-1.2501,-1.2501,-1.1095,-1.0086,-1.0086,-0.853,-0.6926,-0.5342,-0.5244,-0.4492,-0.2894,-0.2843,-0.2861,-0.2861,-0.2777,-0.3614,-0.5371,-0.3614,-0.3614,-0.5287,-0.3532,-0.2777,-0.2945,-0.4705,-0.6583,-0.8518,-1.0223,-1.2083,-1.3772,-1.4014,-1.4082,-1.4082,-1.4082,-1.4082,-1.4095,-1.4245,-1.4299,-1.4299,0.0,0.0,0.0,0.0,0.0,0.0,-3.6384,-3.6152,-3.5879,-3.5449,-3.5293,-3.4922,-3.416,-3.3965,-3.3769,-3.3457,-3.3418,-3.3418,-3.3418,-3.3165,-3.2587,-3.1652,-3.1376,-3.0747,-2.9807,-2.7706,-2.6134,-2.5078,-2.2812,-2.1475,-2.1109,-2.1109,-2.1109,-2.1109,-2.1109,-2.1109,-2.1109,-2.1109,-2.1109,-2.1109,-2.1109,-2.1283,-2.1614,0.0,0.0,0.0,0.0,0.0,0.0,0.0,0.0,0.0,0.0,0.0,0.0,0.0,0.0,0.0,0.0,0.0,0.0,0.0,0.0,0.0,0.0,0.0,0.0,0.0,0.0,0.0,0.0,0.0,0.0,0.0,0.0,-1.2501,-1.2501,-1.2501,-1.2501,-1.2501,-1.2114,-1.1798,-1.1798,-1.0403,-0.9312,-0.8936,-0.7823,-0.7013,-0.651,-0.6533,-0.6546,-0.6546,-0.529,-0.487,-0.5371,-0.3614,-0.2943,-0.3447,-0.2943,-0.4034,-0.6546,-0.7186,-0.8492,-1.0308,-1.238,-1.2749,-1.2178,-1.3644,-1.4238,-1.4238,-1.4238,-1.4238,-1.4245,-1.4285,-1.4299,-1.4299,0.0,0.0,0.0,0.0,0.0,0.0,-3.7488,-3.7173,-3.6776,-3.5751,-3.5508,-3.5117,-3.4414,-3.418,-3.3887,-3.3457,-3.3418,-3.3418,-3.3418,-3.2912,-3.2371,-3.1556,-3.1441,-3.1084,-3.0461,-2.8804,-2.7445,-2.6516,-2.3988,-2.2466,-2.1915,-2.1348,-2.1109,-2.1109,-2.1109,-2.1109,-2.1109,-2.1109,-2.1109,-2.1122,-2.1243,-2.147,-2.1802,-2.1802,-2.2098,-2.2592,-2.2458,-2.2605,-2.2928,-2.2928,0.0,0.0,0.0,0.0,0.0,0.0,0.0,0.0,0.0,0.0,0.0,0.0,0.0,0.0,0.0,0.0,0.0,0.0,0.0,0.0,0.0,0.0,0.0,0.0,-1.2501,-1.2501,-1.2501,-1.2501,-1.2501,-1.2501,-1.2501,-1.2528,-1.2589,-1.1808,-1.0975,-1.0422,-0.9519,-0.8779,-0.8044,-0.7968,-0.7968,-0.7968,-0.7045,-0.6459,-0.6459,-0.5457,-0.4954,-0.4954,-0.4954,-0.6059,-0.8189,-0.9,-1.0008,0.0,-1.3207,-1.3578,-1.2671,-1.3817,-1.4299,0.0,0.0,0.0,0.0,0.0,-1.4299,-1.4299,0.0,0.0,0.0,0.0,0.0,0.0,-3.9125,-3.8663,-3.7955,-3.6403,-3.5751,-3.5293,-3.4824,-3.4394,-3.3965,-3.3535,-3.3457,-3.3418,-3.3418,-3.2804,-3.2294,-3.1974,-3.1653,-3.1276,-3.0864,-3.0336,-2.9235,-2.77,-2.5896,-2.4471,-2.3263,-2.1964,-2.1362,-2.1299,-2.1172,-2.1109,-2.1109,-2.1109,-2.1122,-2.1189,-2.1483,-2.1815,-2.1991,-2.2017,-2.2378,-2.2832,-2.2565,-2.2632,-2.2928,-2.2928,0.0,0.0,0.0,0.0,0.0,0.0,0.0,0.0,0.0,0.0,0.0,0.0,0.0,0.0,0.0,0.0,0.0,0.0,0.0,0.0,0.0,0.0,0.0,0.0,-1.2501,-1.2501,-1.2501,-1.2501,-1.2501,-1.2501,-1.2515,-1.2583,-1.2718,-1.2759,-1.2243,-1.0933,-1.0798,-1.0195,-0.8711,0.0,0.0,0.0,0.0,-0.8303,-0.8303,-0.8136,-0.7968,-0.7968,-0.7968,-0.8181,-0.8688,-1.0228,-1.1213,-1.1789,-1.3384,-1.4177,-1.4299,-1.4299,-1.4299,-1.4299,-1.4299,-1.4299,-1.4299,-1.4299,-1.4299,-1.4299,0.0,0.0,0.0,0.0,0.0,0.0,-4.0731,-3.9256,-3.8109,-3.7729,-3.6662,-3.5742,-3.5312,-3.4844,-3.4414,-3.3984,-3.3633,-3.3418,-3.3418,-3.3038,-3.2676,-3.2294,-3.1974,-3.1616,-3.1267,-2.9829,-2.8726,-2.8094,-2.6411,-2.5264,-2.4625,-2.3325,-2.2702,-2.2654,-2.1601,-2.1109,-2.1109,-2.1109,-2.1243,-2.1561,-2.1777,-2.1937,-2.2004,-2.2245,-2.2552,-2.2928,-2.2792,-2.2819,-2.2928,-2.2928,-2.2928,-2.2928,-2.2928,-2.2928,0.0,0.0,0.0,0.0,0.0,0.0,0.0,0.0,0.0,0.0,0.0,0.0,0.0,0.0,0.0,0.0,0.0,0.0,0.0,-1.2501,-1.2501,-1.2501,-1.2501,-1.2501,-1.2501,-1.2501,-1.261,-1.2698,-1.2725,-1.2949,-1.295,-1.2677,-1.2788,-1.2701,-1.2395,-1.2395,-1.2395,-1.2395,-1.097,-1.0138,-1.0138,-0.872,-0.7968,-0.7968,0.0,0.0,-1.0387,-1.0913,-1.1986,-1.3639,-1.4028,-1.4272,-1.4299,-1.4299,-1.4299,-1.4299,-1.4299,-1.4299,-1.4299,-1.4299,-1.4299,-1.4299,0.0,0.0,0.0,0.0,0.0,0.0,0.0,-4.1309,-4.03,-3.9277,-3.8573,-3.7678,-3.6607,-3.6058,-3.5291,-3.4166,-3.3672,-3.3355,-3.3165,-3.2975,-3.274,-3.2422,-3.2102,-3.1846,-3.1653,-3.0465,-2.9715,-2.9519,-2.7798,-2.6724,-2.6298,-2.4999,-2.4284,-2.4008,-2.2716,-2.2174,-2.2251,-2.1642,-2.1496,-2.179,-2.2084,-2.2205,-2.2231,-2.2525,-2.2726,-2.2928,-2.2928,-2.2928,-2.2928,-2.2928,-2.2928,-2.2928,-2.2928,-2.2966,-2.318,0.0,0.0,0.0,0.0,0.0,0.0,0.0,0.0,0.0,0.0,0.0,0.0,0.0,0.0,-1.2501,0.0,0.0,-1.2501,-1.2501,-1.2501,-1.2501,-1.2501,-1.2501,-1.2528,-1.261,-1.2684,-1.2786,-1.2935,-1.3085,-1.3207,-1.3281,-1.3356,-1.3403,-1.3403,-1.3403,-1.3403,-1.3403,-1.2478,-1.1641,-1.0721,-1.0721,-1.0221,-0.9388,-1.0367,-1.1385,-1.2356,-1.2582,-1.3252,-1.419,-1.4265,-1.4299,-1.4299,-1.4299,-1.4299,-1.4299,-1.4299,-1.4299,-1.4299,-1.4299,-1.4299,-1.4299,0.0,0.0,0.0,0.0,0.0,0.0,0.0,-4.3318,-4.2477,-4.0839,-4.0387,-3.9671,-3.8201,-3.7588,-3.6575,-3.468,-3.3862,-3.3292,-3.2975,-3.2975,-3.2867,-3.2485,-3.223,-3.2038,-3.1929,-3.1339,-3.0927,-3.0791,-2.9375,-2.8505,-2.806,-2.6819,-2.5969,-2.5571,-2.4315,-2.384,-2.3966,-2.265,-2.2247,-2.2481,-2.2459,-2.2458,-2.2525,-2.2766,-2.2928,-2.2928,-2.2928,-2.2928,-2.2928,-2.2928,-2.2928,-2.2928,-2.2928,-2.3073,-2.338,-2.3688,-2.3981,0.0,0.0,0.0,0.0,0.0,0.0,0.0,0.0,-1.7074,-1.593,-1.3883,-1.2965,-1.2501,-1.2501,-1.2501,-1.2501,-1.2501,-1.2501,-1.2501,-1.2501,-1.2528,-1.2603,-1.2759,-1.2773,-1.2881,-1.3146,-1.32,-1.3268,-1.339,-1.3403,-1.3403,-1.3403,-1.3403,-1.3403,-1.3403,-1.3403,-1.2733,-1.1225,-1.2644,-1.2644,-1.1225,-1.2875,-1.3702,-1.3844,-1.4,-1.4156,-1.4299,-1.4299,-1.4299,-1.4299,-1.4299,-1.4299,-1.4299,-1.4299,-1.4299,-1.4299,-1.4299,-1.4299,-1.4299,0.0,0.0,0.0,0.0,0.0,0.0,0.0,0.0,-4.2563,-4.2143,-4.0991,-4.0105,-3.9931,-3.9475,-3.8358,-3.6121,-3.4412,-3.3355,-3.3355,-3.3355,-3.3165,-3.2848,-3.2804,-3.2485,-3.191,-3.1809,-3.1477,-3.0791,-3.0609,-3.0328,-2.9883,-2.8539,-2.7878,-2.7781,-2.6485,-2.5993,-2.5897,-2.4436,-2.3992,-2.4216,-2.2941,-2.2579,-2.2819,-2.2914,-2.2928,-2.2928,-2.2928,-2.2928,-2.2928,-2.2928,-2.2928,-2.2928,-2.2928,-2.3073,-2.338,-2.3688,-2.3981,-2.4262,-2.4556,-2.4636,-2.4562,-2.4414,-2.4031,-2.3203,0.0,0.0,-1.7217,-1.5097,-1.3498,-1.2501,-1.2501,-1.2501,-1.2501,-1.2501,-1.2501,-1.2501,-1.2501,-1.2617,-1.2759,-1.2915,-1.2935,-1.2996,-1.3159,-1.3295,-1.3383,-1.3397,-1.3403,-1.3403,-1.3403,-1.3403,-1.3403,-1.3403,-1.3403,-1.3314,-1.3065,-1.3314,-1.3314,-1.3065,-1.3469,-1.3702,-1.3844,-1.4,-1.4156,-1.4299,-1.4299,-1.4299,-1.4299,-1.4299,-1.4299,-1.4299,-1.4299,-1.4299,-1.4299,-1.4299,-1.4299,-1.4299,0.0,0.0,0.0,0.0,0.0,0.0,0.0,0.0,0.0,-4.3514,-4.2925,-4.227,-4.1505,-3.9562,-3.7741,-3.631,-3.4716,-3.3691,-3.3437,-3.3418,-3.3355,-3.3165,-3.2975,-3.2804,-3.2485,-3.2294,-3.1963,-3.1458,-3.1458,-3.1128,-3.0552,-2.9969,-2.9592,-2.9297,-2.8026,-2.7494,-2.763,-2.6196,-2.5812,-2.5922,-2.4468,-2.4015,-2.4006,-2.3201,-2.2928,-2.2928,-2.2928,-2.2928,0.0,-2.2928,-2.2928,-2.2968,-2.3073,-2.334,-2.3647,-2.3941,-2.4222,-2.4476,-2.4609,-2.4636,-2.4636,-2.4636,-2.4488,-2.3809,-2.1826,-2.0692,-1.9478,-1.7436,-1.6523,-1.5693,-1.4475,-1.4253,-1.3868,0.0,-1.2501,-1.2535,-1.2623,-1.2691,-1.282,-1.3057,-1.3085,-1.3146,-1.3288,-1.3363,-1.3403,-1.3403,-1.3403,-1.3403,-1.3403,-1.3403,-1.3403,-1.3403,-1.3403,-1.3403,-1.3403,-1.3403,-1.3403,-1.3403,-1.3641,-1.3783,-1.3851,-1.4095,-1.4238,-1.4299,-1.4299,-1.4299,-1.4299,-1.4299,-1.4299,-1.4299,-1.4299,-1.4299,-1.4299,-1.4299,-1.4299,-1.4299,0.0,0.0,0.0,0.0,0.0,0.0,0.0,0.0,0.0,0.0,-4.4347,-4.3912,-4.2925,-4.0354,-3.8359,-3.7716,-3.5927,-3.4684,-3.4183,-3.3784,-3.3555,-3.3437,-3.3165,-3.2975,-3.2912,-3.2676,-3.2358,-3.2038,-3.2038,-3.1761,-3.1209,-3.1146,-3.0935,-3.0597,-2.9555,-2.9189,-2.9322,-2.7995,-2.7556,-2.7585,-2.6136,-2.5599,-2.5465,-2.4467,-2.406,-2.3924,-2.3201,-2.2928,-2.2928,-2.2928,-2.2926,-2.3033,-2.326,-2.3581,-2.3928,-2.4142,-2.4409,-2.4636,-2.4636,-2.4636,-2.4636,-2.4636,-2.4488,-2.4031,-2.2583,-2.1826,-2.0991,-1.9403,-1.8723,-1.7815,-1.5693,-1.531,-1.4705,-1.2804,-1.2535,-1.2603,-1.2712,-1.28,-1.2929,-1.3146,-1.3207,-1.3281,-1.339,-1.3403,-1.3403,-1.3403,-1.3403,-1.3403,-1.3403,-1.3403,-1.3403,-1.3403,-1.3403,-1.3403,-1.3403,-1.3403,-1.3424,-1.3464,-1.3722,-1.3865,-1.3912,-1.4177,-1.4299,-1.4299,-1.4299,-1.4299,-1.4299,-1.4299,-1.4299,-1.4299,-1.4299,-1.4299,-1.4299,-1.4299,-1.4299,-1.4299,0.0,0.0,0.0,0.0,0.0,0.0,0.0,0.0,0.0,0.0,0.0,0.0,0.0,-4.256,-4.1466,-4.142,-3.8526,-3.6578,-3.6122,-3.4856,-3.3867,-3.3437,-3.3355,-3.3228,-3.2931,-3.2867,-3.274,-3.2358,-3.2358,-3.2358,-3.2339,-3.2019,-3.1827,-3.1827,-3.1469,-3.1277,-3.123,-2.9852,-2.9265,-2.9068,-2.7652,-2.7055,-2.7039,-2.6972,-2.6972,-2.6588,-2.3856,-2.2928,-2.2928,-2.2928,-2.306,-2.3313,-2.3327,-2.3728,-2.4195,-2.4195,-2.4409,-2.4636,-2.4636,-2.4636,-2.4636,-2.4636,-2.4341,-2.397,-2.3957,-2.2446,-2.0853,-2.0402,-1.9111,-1.7369,-1.5319,-1.4944,-1.4406,-1.2726,-1.2623,-1.2725,-1.2732,-1.2976,-1.3159,-1.3173,-1.3302,-1.3397,0.0,-1.3403,-1.3403,-1.3403,-1.3403,-1.3403,-1.3403,-1.3403,-1.3403,-1.3403,-1.3403,-1.3403,-1.3403,-1.3403,-1.3478,-1.3627,-1.377,-1.3919,-1.4068,-1.4231,-1.4299,-1.4299,-1.4299,-1.4299,-1.4299,-1.4299,-1.4299,-1.4299,-1.4299,-1.4299,-1.4299,-1.4299,-1.4299,-1.4299,0.0,0.0,0.0,0.0,0.0,0.0,0.0,0.0,0.0,0.0,0.0,0.0,0.0,0.0,0.0,0.0,-3.974,-3.7997,-3.6706,-3.5908,-3.5006,-3.3912,-3.3574,-3.3355,-3.3228,-3.3228,-3.3038,-3.274,-3.274,-3.2613,-3.2422,-3.2294,-3.223,-3.223,-3.2102,-3.2038,-3.2019,-3.157,-3.1377,-3.123,-2.9574,-2.8903,-2.8772,-2.7585,-2.7105,-2.702,0.0,-2.5452,-2.4438,-2.35,-2.3367,-2.3661,-2.3848,-2.4048,-2.4235,-2.4436,-2.4556,-2.4636,-2.4636,-2.4636,-2.4636,-2.4636,-2.4488,-2.4414,-2.4414,-2.3883,-2.3351,-2.3203,-2.2744,-2.181,-1.9984,-1.9281,-1.8445,-1.6952,-1.5401,-1.4444,-1.4746,-1.3834,-1.3207,-1.3308,-1.337,0.0,0.0,0.0,0.0,-1.3403,-1.3403,-1.3403,-1.3403,-1.3403,-1.3403,-1.3403,-1.3403,-1.3403,-1.3403,-1.3403,-1.3478,-1.3634,-1.3878,-1.4075,-1.4224,-1.4278,-1.4299,-1.4299,-1.4299,-1.4299,-1.4299,-1.4299,-1.4299,-1.4299,-1.4299,-1.4299,-1.4299,-1.4299,-1.4299,-1.4299,0.0,0.0,0.0,0.0,0.0,0.0,0.0,0.0,0.0,0.0,0.0,0.0,0.0,0.0,0.0,0.0,0.0,-3.9961,-3.8633,-3.7318,-3.6093,-3.4896,-3.4044,-3.3574,-3.3418,-3.3418,-3.3292,-3.3102,-3.3102,-3.2975,-3.274,-3.2613,-3.2613,-3.2549,-3.2422,-3.2422,-3.2422,-3.2422,-3.2422,-3.2294,-3.1166,-3.0696,-3.0584,-2.945,-2.904,0.0,-2.8807,-2.8136,-2.7047,-2.4945,-2.4496,-2.4715,-2.4359,-2.4275,-2.4396,-2.4583,-2.4636,-2.4636,-2.4636,-2.4636,-2.4636,-2.4636,-2.4636,-2.4636,-2.4636,-2.4636,-2.4562,-2.4414,-2.4414,-2.3812,-2.2094,-2.1318,-2.0429,-1.9023,-1.7396,-1.6194,-1.5876,-1.4919,-1.402,-1.3473,-1.3403,-1.3403,0.0,0.0,0.0,-1.3403,-1.3403,-1.3403,-1.3403,-1.3403,-1.3403,-1.3403,-1.3403,-1.3403,-1.3403,-1.3403,-1.3505,-1.3709,-1.4007,-1.4204,-1.4299,-1.4299,-1.4299,-1.4299,-1.4299,-1.4299,-1.4299,-1.4299,-1.4299,-1.4299,-1.4299,-1.4299,-1.4299,-1.4299,-1.4299,-1.4299,0.0,0.0,0.0,0.0,0.0,0.0,0.0,0.0,0.0,0.0,0.0,0.0,0.0,0.0,0.0,0.0,0.0,0.0,-4.1683,-3.9173,-3.7311,-3.6415,-3.4979,-3.4034,-3.352,-3.3457,-3.3437,-3.3418,-3.3418,-3.3418,-3.3418,-3.3038,-3.2912,-3.2912,-3.2613,-3.2422,-3.2422,-3.2422,-3.2504,-3.2523,-3.2459,-3.2459,-3.2535,-3.2525,-3.2544,-3.2403,-3.112,-3.0806,-3.0545,-2.7183,-2.6193,-2.6185,-2.4716,-2.4422,-2.4636,-2.4636,-2.4636,-2.4636,-2.4636,-2.4636,-2.4636,-2.4636,-2.4636,-2.4636,-2.4636,-2.4636,-2.4488,-2.4119,-2.4044,-2.354,0.0,0.0,-2.0561,-1.9308,-1.8818,-1.7913,-1.633,-1.6147,-1.5522,0.0,0.0,0.0,0.0,0.0,0.0,-1.3403,0.0,-1.3403,-1.3403,-1.3403,-1.3403,-1.3403,-1.3403,-1.3403,-1.3403,-1.3417,-1.3566,-1.3759,-1.4156,-1.4299,-1.4299,-1.4299,-1.4299,-1.4299,-1.4299,-1.4299,-1.4299,-1.4299,-1.4299,-1.4299,-1.4299,-1.4299,-1.4299,-1.4299,-1.4299,-1.4299,0.0,0.0,0.0,0.0,0.0,0.0,0.0,0.0,0.0,0.0,0.0,0.0,0.0,0.0,0.0,0.0,0.0,0.0,-4.2213,-4.113,-3.9974,-3.8698,-3.7042,-3.5904,-3.5517,-3.4461,-3.375,-3.3418,-3.3418,-3.3418,-3.3418,-3.3292,-3.3292,-3.3292,-3.3165,-3.3165,-3.3165,-3.3165,-3.3359,-3.365,-3.3392,-3.3455,-3.3743,-3.3463,-3.3369,-3.336,-3.3035,-3.2984,-3.2355,-2.7881,-2.5826,-2.5016,-2.4589,-2.4569,-2.4636,-2.4636,-2.4636,-2.4636,-2.4636,-2.4636,-2.4636,-2.4636,-2.4636,-2.4636,-2.4636,-2.4636,-2.4562,-2.4488,-2.4661,-2.475,-2.4494,0.0,0.0,-2.3459,-2.1658,0.0,-1.9886,-1.8751,0.0,-1.5522,0.0,-1.4871,-1.3562,-1.3403,0.0,0.0,-1.3403,-1.3403,-1.3403,-1.3403,-1.3403,-1.3403,-1.3403,-1.3403,-1.3403,-1.362,-1.377,-1.3759,-1.4156,-1.4299,-1.4299,-1.4299,-1.4299,-1.4299,-1.4299,-1.4299,-1.4299,-1.4299,-1.4299,-1.4299,-1.4299,-1.4299,-1.4299,-1.4299,-1.4299,-1.4299,0.0,0.0,0.0,0.0,0.0,0.0,0.0,0.0,0.0,0.0,0.0,0.0,0.0,0.0,0.0,0.0,0.0,0.0,0.0,-4.2395,-4.1468,-4.0464,-3.8848,-3.7487,-3.6476,-3.5648,-3.4843,-3.3984,-3.3984,-3.3984,-3.3984,-3.3984,-3.3984,-3.3984,-3.3984,-3.3984,-3.3984,-3.3984,-3.4121,0.0,0.0,-3.4231,-3.4398,-3.426,-3.407,-3.3993,-3.4022,-3.3106,-3.1339,-2.8633,-2.6344,-2.4636,-2.4636,-2.4636,-2.4636,-2.4636,-2.4636,-2.4636,-2.4636,-2.4636,-2.4636,-2.4636,-2.4636,-2.4636,-2.4636,-2.4636,-2.4636,-2.4636,-2.4877,-2.517,-2.5464,-2.5073,0.0,0.0,0.0,0.0,-2.1281,-2.0322,-1.9105,0.0,-1.65,0.0,-1.4623,-1.3894,-1.3403,0.0,-1.3403,-1.3403,-1.3403,-1.3403,-1.3403,-1.3403,-1.3403,-1.3403,-1.3403,-1.3695,-1.3838,-1.3759,-1.4156,-1.4299,-1.4299,-1.4299,-1.4299,-1.4299,0.0,-1.4299,-1.4299,-1.4299,-1.4299,-1.4299,-1.4299,-1.4299,-1.4299,-1.4299,-1.4299,-1.4299,0.0,0.0,0.0,0.0,0.0,0.0,0.0,0.0,0.0,0.0,0.0,0.0,0.0,0.0,0.0,0.0,0.0,0.0,0.0,0.0,-4.2402,-4.1978,-4.0617,-3.9042,-3.7189,-3.6997,-3.616,-3.4707,-3.4707,-3.4707,-3.4707,-3.4707,-3.4707,-3.4707,-3.4707,-3.4707,-3.4707,-3.4707,-3.4726,-3.4785,-3.4785,-3.4824,-3.4856,0.0,-3.4796,-3.4497,-3.4446,-3.2351,-2.956,-2.9488,-2.736,-2.4636,-2.4636,-2.4636,-2.4636,-2.4636,-2.4636,-2.4636,-2.4636,-2.4636,-2.4636,-2.4636,-2.4636,-2.4636,-2.4636,-2.4636,-2.4636,-2.4636,-2.4903,-2.5211,-2.5464,-2.5462,-2.5296,-2.5251,0.0,-2.384,-2.1878,-2.1545,-2.0899,-1.9186,-1.7638,-1.6574,-1.6328,-1.4953,-1.3976,-1.3728,-1.3728,-1.3645,-1.3403,-1.3403,-1.3403,-1.3403,-1.3403,-1.3403,-1.3403,-1.3695,-1.3838,-1.3759,-1.4156,-1.4299,-1.4299,-1.4299,-1.4299,-1.4299,0.0,0.0,-1.4299,-1.4299,-1.4299,-1.4299,-1.4299,-1.4299,-1.4299,-1.4299,-1.4299,-1.4299,0.0,0.0,0.0,0.0,0.0,0.0,0.0,0.0,0.0,0.0,-4.5386,-4.4285,0.0,0.0,0.0,0.0,0.0,0.0,0.0,0.0,0.0,-4.3831,-4.2534,-4.0931,-3.9063,-3.795,-3.6485,-3.4707,-3.4707,-3.4707,-3.4707,-3.4707,-3.4707,-3.4707,-3.4707,-3.4707,-3.4707,-3.4707,-3.4922,-3.5273,-3.5273,-3.5488,-3.5801,-3.5811,0.0,0.0,-3.5021,-3.3415,-3.1561,-3.1209,-2.8213,-2.4636,-2.4636,-2.4636,-2.4636,-2.4636,-2.4636,-2.4636,-2.4636,-2.4636,-2.4636,-2.4636,-2.4636,-2.4636,-2.4636,-2.4636,0.0,-2.4636,-2.5064,-2.5451,-2.5504,-2.5634,-2.5687,-2.566,-2.505,-2.4412,-2.4,-2.3588,-2.2694,0.0,-2.0484,-1.9755,-1.83,-1.7892,0.0,0.0,0.0,-1.4946,-1.348,-1.3403,-1.3403,-1.3403,-1.3403,-1.3403,-1.3403,-1.3695,-1.3838,-1.3759,-1.4156,-1.4299,-1.4299,-1.4299,-1.4299,-1.4299,-1.4299,0.0,-1.4299,-1.4299,-1.4299,-1.4299,-1.4299,-1.4299,-1.4299,-1.4299,-1.4299,-1.4299,0.0,0.0,0.0,0.0,0.0,0.0,0.0,0.0,-4.7706,-4.7459,-4.5847,-4.4597,-4.4309,-4.4285,0.0,0.0,0.0,0.0,0.0,0.0,0.0,0.0,-4.3701,-4.2218,-3.9907,-3.9196,-3.774,-3.5391,0.0,-3.5391,-3.5391,-3.5391,-3.5391,-3.5391,-3.5391,-3.5391,-3.5391,-3.5391,-3.5508,-3.5723,-3.5723,-3.584,-3.6016,0.0,0.0,0.0,-3.5127,-3.3831,-3.2263,-3.193,-2.9774,-2.7143,-2.6152,-2.5286,-2.4636,-2.4636,-2.4636,-2.4636,-2.4636,-2.4636,-2.4636,-2.4636,-2.4636,-2.4636,-2.4636,0.0,0.0,-2.4636,-2.5104,-2.5518,-2.5518,-2.5843,-2.607,-2.5832,-2.5197,-2.4731,-2.4492,-2.4092,0.0,-2.2614,-2.1786,-2.0899,0.0,0.0,0.0,0.0,0.0,-1.5275,-1.348,-1.3403,-1.3403,-1.3403,-1.3403,-1.3403,-1.3403,-1.3695,-1.3838,-1.3759,-1.4156,-1.4299,-1.4299,-1.4299,-1.4299,-1.4299,-1.4299,0.0,-1.4299,-1.4299,-1.4299,-1.4299,-1.4299,-1.4299,-1.4299,-1.4299,-1.4911,-1.5785,0.0,0.0,0.0,0.0,0.0,0.0,0.0,-4.87,-4.7991,-4.7804,-4.6494,-4.53,-4.4525,-4.4357,-4.4285,0.0,0.0,0.0,0.0,0.0,0.0,0.0,0.0,0.0,-4.0257,0.0,0.0,-3.6016,-3.6016,0.0,0.0,0.0,0.0,0.0,-3.6016,-3.6016,-3.6016,-3.6016,-3.6016,0.0,0.0,-3.6016,0.0,0.0,0.0,0.0,0.0,-3.4264,-3.3188,-3.27,-3.1561,-2.9987,-2.8357,-2.6867,-2.5492,-2.5212,-2.5065,-2.4991,-2.471,-2.4636,-2.4636,-2.4636,-2.4636,-2.4636,-2.4636,-2.4636,-2.4649,-2.4716,-2.5144,-2.5531,-2.5598,-2.6039,-2.6307,-2.599,-2.5514,-2.513,-2.4652,-2.4252,-2.392,0.0,-2.2614,0.0,0.0,0.0,0.0,0.0,0.0,0.0,-1.348,-1.3403,-1.3403,-1.3403,-1.3403,-1.3403,-1.3403,-1.3695,-1.3838,-1.3759,-1.4156,-1.4299,-1.4299,-1.4299,-1.4299,-1.4299,-1.4299,0.0,0.0,-1.4299,-1.4564,-1.4911,-1.4911,-1.5175,-1.5521,-1.5521,-1.6393,-1.7701,0.0,0.0,0.0,0.0,0.0,0.0,0.0,-4.9217,-4.8695,-4.7942,-4.7344,-4.6496,-4.5164,-4.4573,-4.4285,0.0,0.0,0.0,0.0,0.0,0.0,0.0,0.0,0.0,0.0,0.0,0.0,-3.6016,-3.6016,0.0,0.0,0.0,0.0,0.0,0.0,-3.6016,-3.6016,-3.6016,0.0,0.0,0.0,0.0,0.0,0.0,0.0,0.0,0.0,-3.5333,-3.5127,-3.4439,-3.3155,-3.1772,-3.1226,-3.0004,-2.8501,-2.7085,0.0,0.0,-2.4991,-2.4636,-2.4636,-2.4636,-2.4636,-2.4636,-2.4636,-2.4636,-2.4716,-2.4983,-2.5291,-2.5598,-2.5865,-2.6172,-2.6386,-2.6307,-2.599,-2.5594,-2.513,-2.4652,-2.4252,-2.3852,0.0,0.0,0.0,0.0,0.0,0.0,0.0,0.0,-1.3562,-1.3403,-1.3403,-1.3403,-1.3403,-1.3403,-1.3403,-1.3695,-1.3838,-1.3759,-1.4156,-1.4299,-1.4299,-1.4299,-1.4299,-1.4299,-1.4299,0.0,0.0,-1.4299,-1.5256,-1.6825,-1.6825,-1.7876,-1.9351,-1.9351,-1.9525,-1.9613,0.0,0.0,0.0,0.0,0.0,0.0,-4.959,-4.9332,-4.8933,-4.8346,-4.7637,-4.6948,-4.6126,-4.5269,-4.4621,0.0,0.0,0.0,0.0,0.0,0.0,0.0,0.0,0.0,0.0,0.0,-4.0516,-3.8507,-3.8507,0.0,0.0,0.0,0.0,0.0,0.0,-3.726,-3.7193,-3.6355,0.0,0.0,0.0,0.0,0.0,0.0,0.0,0.0,0.0,0.0,-3.6131,-3.5578,-3.5003,-3.4371,-3.3505,-3.2788,-3.1649,0.0,-2.6867,-2.6575,-2.4991,-2.4636,-2.4636,-2.4636,-2.4636,-2.4636,-2.4636,-2.4636,-2.4716,-2.5024,-2.5304,-2.5598,-2.5905,-2.6199,-2.6386,-2.6386,-2.607,-2.5753,-2.5514,-2.497,-2.4412,0.0,0.0,0.0,0.0,0.0,0.0,0.0,0.0,0.0,-1.6664,-1.5522,-1.4946,-1.4946,-1.4946,-1.4458,-1.3403,-1.4788,-1.4856,-1.3759,-1.4156,-1.4299,-1.4299,-1.4299,-1.4911,-1.5961,-1.5961,0.0,0.0,-1.7701,-1.8139,-1.8828,-1.8828,-1.9264,-1.9873,-1.9873,-2.0568,-2.1521,0.0,0.0,0.0,0.0,0.0,-4.959,-4.959,-4.9396,-4.9137,-4.8772,-4.8101,-4.7418,-4.6923,-4.6119,-4.5381,-4.4789,0.0,0.0,0.0,0.0,0.0,0.0,0.0,0.0,0.0,0.0,-4.1633,-4.0192,-4.0192,-4.0192,0.0,0.0,-4.0192,-4.0127,0.0,0.0,0.0,0.0,0.0,0.0,0.0,0.0,0.0,0.0,0.0,0.0,0.0,0.0,0.0,0.0,0.0,-3.5908,-3.5067,-3.469,-3.3729,-2.9504,-2.7939,-2.7215,-2.5712,-2.4918,-2.4636,-2.4636,-2.4636,-2.4636,-2.4636,-2.4703,-2.485,-2.5144,-2.5438,-2.5732,-2.6026,-2.6253,-2.6386,-2.6386,-2.6149,-2.5911,-2.5832,-2.5117,0.0,0.0,0.0,0.0,0.0,0.0,0.0,0.0,0.0,0.0,0.0,-1.8454,-1.7311,-1.6828,-1.6738,-1.6172,-1.4953,-1.6541,-1.6637,-1.5368,-1.5794,-1.5961,-1.5961,-1.5961,-1.6657,-1.7964,0.0,0.0,0.0,-1.9873,-2.0221,-2.0742,-2.0742,-2.1002,-2.1521,-2.1521,-2.2309,-2.3428,0.0,0.0,0.0,0.0,0.0,0.0,0.0,-4.959,-4.9461,-4.9137,-4.8837,-4.8248,-4.7296,-4.6899,-4.6487,-4.5958,0.0,0.0,0.0,0.0,0.0,0.0,0.0,0.0,0.0,0.0,-4.1633,-4.0192,-4.0192,-4.0192,-4.0192,-4.0192,-4.0192,-4.0192,0.0,0.0,0.0,0.0,0.0,0.0,0.0,0.0,-3.666,0.0,0.0,0.0,0.0,0.0,0.0,0.0,0.0,0.0,0.0,-3.5262,-3.4421,-3.2141,-3.0359,-2.8844,-2.7288,-2.5786,-2.4636,-2.4636,-2.4636,-2.4636,-2.4636,-2.4863,-2.5157,-2.5451,-2.5745,-2.6117,-2.6333,-2.6386,-2.6386,-2.6386,-2.6386,-2.6228,-2.5832,-2.5356,0.0,0.0,0.0,0.0,0.0,0.0,0.0,0.0,0.0,0.0,0.0,-2.212,-2.0322,-1.8626,-1.8545,-1.8545,-1.8545,-1.8949,-1.9166,-1.9166,-1.9589,-1.9873,-1.9873,-1.9873,-1.9873,0.0,0.0,0.0,0.0,-1.9873,-2.1002,-2.2654,-2.2568,-2.3697,-2.5348,-2.5348,-2.5348,-2.5348,0.0,0.0,0.0,0.0,0.0,0.0,0.0,-4.959,-4.9461,-4.9137,-4.9007,-4.8763,-4.8199,-4.7467,-4.6956,-4.6787,0.0,0.0,0.0,0.0,0.0,0.0,0.0,0.0,0.0,-4.3639,-4.3451,-4.2988,-4.2988,-4.2988,-4.2988,-4.2988,-4.2988,-4.2988,-4.2016,-4.0839,0.0,0.0,0.0,0.0,0.0,-3.6543,-3.6699,0.0,0.0,0.0,0.0,0.0,0.0,0.0,0.0,0.0,0.0,0.0,0.0,-3.4126,-3.2561,-3.0785,-2.9003,-2.8141,-2.7505,-2.643,-2.6152,-2.5988,-2.5114,-2.501,-2.5224,-2.5718,-2.597,-2.6052,-2.6333,-2.6386,-2.6386,-2.6386,-2.6386,-2.6386,0.0,0.0,0.0,0.0,0.0,0.0,0.0,0.0,0.0,0.0,0.0,0.0,0.0,-2.3267,-2.22,-2.0403,-2.0403,-1.9836,-1.8626,-2.0196,-2.0417,-1.925,-1.9675,-1.9873,-1.9873,-1.9873,0.0,0.0,0.0,0.0,0.0,-2.3697,-2.4041,-2.4566,-2.4481,-2.4909,-2.5433,-2.5433,-2.5433,-2.5433,0.0,0.0,0.0,0.0,0.0,0.0,0.0,-4.959,-4.9525,-4.9332,-4.9202,-4.9007,-4.8837,-4.8126,-4.7735,-4.7735,0.0,0.0,0.0,0.0,0.0,0.0,0.0,0.0,-4.4597,-4.4573,-4.4477,-4.4285,-4.4285,-4.4285,-4.4285,-4.4285,-4.4285,-4.4285,-4.3451,-4.2016,0.0,0.0,0.0,0.0,-3.6562,-3.6855,-3.7168,0.0,0.0,0.0,0.0,0.0,0.0,0.0,0.0,0.0,0.0,0.0,0.0,0.0,-3.4264,-3.2979,-3.098,-2.9987,-2.9202,-2.8213,-2.7958,-2.7833,-2.7008,-2.658,-2.6482,-2.6856,-2.6493,-2.6172,-2.636,-2.6386,-2.6386,-2.6386,-2.6386,-2.6386,0.0,0.0,0.0,0.0,0.0,0.0,0.0,0.0,0.0,0.0,0.0,0.0,0.0,-2.376,-2.3267,-2.22,-2.22,-2.1636,-2.0575,-2.2119,-2.2349,-2.1264,-2.1734,-2.1953,-2.1953,-2.1953,0.0,0.0,0.0,0.0,0.0,-2.5433,-2.5433,-2.5433,-2.5433,-2.5433,-2.5433,-2.5433,-2.5433,-2.5433,0.0,0.0,0.0,0.0,0.0,0.0,0.0,0.0,0.0,-4.959,-4.9332,-4.9137,-4.9137,-4.8837,-4.8666,-4.8666,0.0,0.0,0.0,0.0,0.0,0.0,0.0,0.0,-4.5213,-4.5125,-4.4885,-4.4405,-4.4405,-4.4405,-4.4405,-4.4405,-4.4405,-4.4405,-4.4405,-4.2955,0.0,0.0,0.0,-3.6927,-3.6827,-3.7226,0.0,0.0,0.0,0.0,0.0,0.0,0.0,0.0,0.0,0.0,0.0,0.0,0.0,0.0,0.0,0.0,0.0,-3.1544,-3.0129,-3.0075,-2.9993,-2.9977,-2.9952,-2.9137,0.0,-2.8403,-2.7346,-2.6386,-2.6386,-2.6386,-2.6386,-2.6386,-2.6386,0.0,0.0,0.0,0.0,0.0,0.0,0.0,0.0,0.0,0.0,0.0,0.0,0.0,0.0,-2.376,-2.376,-2.376,-2.376,-2.376,-2.376,-2.4359,-2.4625,-2.4637,-2.518,-2.5433,-2.5433,-2.5433,0.0,0.0,0.0,0.0,0.0,-2.5433,-2.5433,-2.5433,-2.5433,-2.5433,-2.5433,-2.5433,-2.5433,-2.5433,0.0,0.0,0.0,0.0,0.0,0.0,0.0,0.0,0.0,0.0,-4.9525,-4.9461,-4.9461,-4.9202,-4.8942,0.0,0.0,0.0,0.0,0.0,0.0,0.0,0.0,0.0,-4.5742,-4.5742,-4.5669,-4.5486,-4.5486,-4.5486,-4.5486,-4.5486,-4.5486,-4.5486,-4.5486,-4.4542,0.0,0.0,-3.8725,-3.8779,-3.7975,-3.7754,0.0,0.0,0.0,0.0,-3.8574,-3.8574,0.0,0.0,0.0,0.0,0.0,0.0,0.0,0.0,-3.6152,-3.5811,-3.5314,0.0,-3.3487,-3.2702,-3.2273,-3.1849,0.0,-2.9684,-2.8432,-2.8773,-2.7499,-2.6386,-2.6386,-2.6386,-2.6386,-2.6386,0.0,0.0,0.0,0.0,0.0,0.0,0.0,0.0,0.0,0.0,0.0,0.0,0.0,0.0,0.0,-2.376,-2.376,-2.376,-2.376,-2.376,-2.376,-2.4359,-2.4625,-2.4637,-2.518,-2.5433,-2.5433,-2.5433,0.0,0.0,0.0,0.0,-2.5433,-2.5433,-2.5433,-2.5433,-2.5433,-2.5433,-2.5433,-2.5433,-2.5433,-2.5433,0.0,0.0,0.0,0.0,0.0,0.0,0.0,0.0,0.0,0.0,0.0,0.0,0.0,0.0,0.0,0.0,0.0,0.0,0.0,0.0,0.0,0.0,0.0,-4.6535,-4.6295,-4.6295,-4.6175,-4.5934,-4.5934,-4.5934,-4.5934,-4.5934,-4.5934,-4.587,-4.5243,-4.4365,-4.3376,-4.139,-4.0246,-3.9785,-3.9212,0.0,0.0,0.0,0.0,0.0,-3.8574,-3.8574,0.0,-3.8574,-3.8418,-3.8184,0.0,0.0,0.0,0.0,-3.6797,-3.6601,-3.6601,-3.6051,-3.5313,-3.4733,-3.4552,-3.4433,-3.3765,-3.2334,-3.1153,-3.1115,-2.9851,-2.8388,-2.7698,-2.7555,-2.7319,0.0,-2.6386,0.0,0.0,0.0,0.0,0.0,0.0,0.0,0.0,0.0,0.0,0.0,0.0,0.0,0.0,-2.376,-2.376,-2.376,-2.376,-2.376,-2.376,-2.4251,-2.4504,-2.4637,-2.5059,-2.5325,-2.5433,-2.5433,-2.5433,0.0,0.0,0.0,-2.5433,-2.5604,-2.5604,-2.5433,-2.5604,-2.5604,-2.5433,-2.5433,-2.5433,-2.5433,0.0,0.0,0.0,0.0,0.0,0.0,0.0,0.0,0.0,0.0,0.0,0.0,0.0,0.0,0.0,0.0,0.0,0.0,0.0,0.0,0.0,0.0,-4.7563,-4.7347,-4.6848,-4.6824,-4.6607,-4.6175,-4.6175,-4.6175,-4.6175,-4.6175,-4.6175,-4.6086,-4.487,-4.4156,-4.3678,-4.2482,-4.1456,-4.0591,-4.017,0.0,0.0,0.0,0.0,0.0,0.0,0.0,0.0,-3.8574,-3.8574,-3.8516,-3.8144,0.0,0.0,0.0,0.0,0.0,-3.7207,-3.6763,-3.6271,-3.6348,-3.6603,-3.6796,-3.6509,-3.5427,-3.4354,-3.3977,-3.2522,-3.0916,-2.9245,-2.8934,0.0,0.0,0.0,0.0,0.0,0.0,0.0,0.0,0.0,0.0,0.0,0.0,0.0,0.0,0.0,0.0,0.0,-2.4,-2.4,-2.392,-2.392,-2.392,-2.392,-2.4106,-2.4359,-2.4625,-2.4914,-2.5095,-2.5433,-2.5433,-2.5433,0.0,0.0,0.0,-2.5519,-2.5848,-2.5763,-2.5519,-2.5848,-2.5763,-2.5433,-2.5433,-2.5433,-2.5446,0.0,0.0,0.0,0.0,0.0,0.0,0.0,0.0,0.0,0.0,0.0,0.0,0.0,0.0,0.0,0.0,0.0,0.0,0.0,0.0,0.0,-4.796,-4.7894,-4.7714,-4.7377,-4.7377,-4.7353,-4.7257,-4.7257,-4.7257,-4.7257,-4.7257,-4.7257,-4.7257,-4.7059,-4.6878,-4.6651,-4.396,-4.2718,-4.2365,-3.9881,0.0,0.0,0.0,0.0,0.0,0.0,0.0,0.0,-3.8574,-3.8574,-3.8555,-3.8496,0.0,0.0,0.0,0.0,0.0,-3.6758,-3.6973,-3.7215,-3.7566,-3.7474,-3.7379,-3.769,-3.6201,-3.4729,-3.4354,-3.2977,-3.1223,-2.9231,-2.8934,-2.831,0.0,0.0,0.0,0.0,0.0,0.0,0.0,0.0,0.0,0.0,0.0,0.0,0.0,0.0,0.0,0.0,-2.4891,-2.4731,-2.4412,-2.4412,-2.4412,-2.4412,-2.4267,-2.4359,-2.4625,-2.4914,-2.5095,-2.5433,-2.5433,-2.5433,0.0,0.0,-2.5604,-2.5933,-2.5604,-2.569,-2.5933,-2.5604,-2.5433,-2.5433,-2.5433,-2.5433,-2.5494,0.0,0.0,0.0,0.0,0.0,0.0,0.0,0.0,0.0,0.0,0.0,0.0,0.0,0.0,0.0,0.0,0.0,0.0,0.0,0.0,-4.9137,-4.8616,-4.8616,-4.8223,-4.7497,-4.7497,-4.7497,-4.7497,-4.7497,-4.7497,-4.7497,-4.7497,-4.7353,-4.7088,-4.7377,-4.6931,-4.5849,-4.5569,-4.4001,-4.1771,0.0,0.0,0.0,0.0,0.0,0.0,0.0,0.0,0.0,0.0,-3.8574,-3.8574,-3.8574,0.0,0.0,0.0,0.0,0.0,-3.707,-3.7148,-3.7402,-3.7812,-3.7961,-3.805,-3.8044,-3.7236,-3.6479,-3.6108,-3.5271,-3.3734,0.0,0.0,-2.9386,-2.6781,0.0,0.0,0.0,0.0,0.0,0.0,0.0,0.0,0.0,0.0,0.0,0.0,0.0,0.0,0.0,0.0,-2.505,-2.4811,-2.4811,-2.4731,-2.4492,-2.4375,-2.4564,-2.4967,-2.4841,-2.5035,-2.5433,-2.569,-2.5763,-2.5763,0.0,-2.6286,-2.6443,-2.6286,-2.6103,-2.6103,-2.6103,-2.603,-2.5763,-2.603,-2.6288,-2.6388,0.0,0.0,0.0,0.0,0.0,0.0,0.0,0.0,0.0,0.0,0.0,0.0,0.0,0.0,0.0,0.0,0.0,0.0,0.0,0.0,-4.9461,-4.9137,-4.9072,-4.8682,-4.7786,-4.7696,-4.763,-4.763,-4.7563,-4.7497,-4.7497,-4.7497,-4.7281,-4.692,-4.7329,-4.6661,-4.5285,-4.6083,-4.4436,-4.1347,0.0,0.0,0.0,0.0,0.0,0.0,0.0,0.0,0.0,0.0,0.0,0.0,0.0,0.0,0.0,-3.8027,-3.7793,-3.7559,-3.7246,-3.7148,-3.7226,-3.7539,-3.8027,-3.8384,-3.8209,-3.8155,-3.8009,-3.7642,-3.7181,-3.6034,0.0,-3.1529,0.0,0.0,0.0,0.0,0.0,0.0,0.0,0.0,0.0,0.0,0.0,0.0,0.0,0.0,0.0,0.0,0.0,0.0,-2.5368,-2.5289,-2.5289,-2.513,-2.4811,-2.4731,-2.4845,-2.5133,-2.4873,-2.5082,-2.5604,-2.6018,-2.6273,-2.6273,-2.6613,-2.6881,-2.6965,-2.6881,-2.6613,-2.6443,-2.6698,-2.6613,-2.6273,-2.6698,-2.7012,-2.733,0.0,0.0,0.0,0.0,0.0,0.0,0.0,0.0,0.0,0.0,0.0,0.0,0.0,0.0,0.0,0.0,0.0,0.0,0.0,0.0,-4.9461,-4.9137,-4.9072,-4.8942,-4.8535,-4.8182,-4.796,-4.796,-4.763,-4.7497,-4.7497,-4.7497,-4.7473,-4.7449,-4.7473,-4.7407,-4.7093,-4.4482,-4.3171,-4.2613,-3.9962,0.0,0.0,0.0,0.0,0.0,0.0,0.0,0.0,0.0,0.0,0.0,0.0,0.0,-3.7969,-3.793,-3.7363,-3.6758,-3.6719,-3.6719,-3.6719,-3.6758,-3.7363,-3.8086,-3.8476,-3.8574,-3.8428,-3.8009,-3.7642,-3.6719,-3.4597,-3.1376,0.0,0.0,0.0,0.0,0.0,0.0,0.0,0.0,0.0,0.0,0.0,0.0,0.0,0.0,0.0,0.0,0.0,0.0,0.0,-2.5753,-2.5753,-2.5753,-2.5673,-2.5289,-2.4926,-2.4625,-2.505,-2.5499,-2.6103,-2.6528,-2.6783,-2.6783,-2.6783,-2.705,-2.7389,-2.6965,-2.705,-2.7389,-2.6965,-2.6796,-2.6783,-2.6783,-2.7126,-2.7584,0.0,0.0,0.0,0.0,0.0,0.0,0.0,0.0,0.0,0.0,0.0,0.0,0.0,0.0,0.0,0.0,0.0,0.0,0.0,-4.959,-4.9525,-4.9396,-4.9396,-4.9332,-4.9227,-4.842,-4.8026,-4.8026,-4.763,-4.7497,-4.7497,-4.7497,-4.7497,-4.7497,-4.7497,-4.7008,-4.6113,-4.5887,-4.4207,-4.163,-4.1439,-4.0249,0.0,0.0,0.0,0.0,0.0,0.0,0.0,0.0,-3.8398,-3.8164,-3.8164,-3.7871,-3.748,-3.7226,-3.6914,-3.6621,-3.6348,-3.6269,-3.6328,-3.6601,-3.7109,-3.7656,-3.8066,-3.8379,-3.8574,-3.8428,-3.8082,-3.7107,-3.4822,0.0,0.0,0.0,0.0,0.0,0.0,0.0,0.0,0.0,0.0,0.0,0.0,0.0,0.0,0.0,0.0,0.0,0.0,0.0,0.0,-2.6149,-2.6149,-2.607,-2.5832,-2.5594,-2.5477,-2.5462,-2.5627,-2.5999,-2.6528,-2.705,-2.722,-2.722,-2.7558,-2.7812,-2.7897,-2.7389,-2.7304,-2.7487,-2.7304,-2.7389,-2.7656,-2.7853,-2.8168,-2.8535,0.0,0.0,0.0,0.0,0.0,0.0,0.0,0.0,0.0,0.0,0.0,0.0,0.0,0.0,0.0,0.0,0.0,0.0,-4.959,-4.959,-4.959,-4.959,-4.959,-4.959,-4.959,-4.8812,-4.8355,-4.8355,-4.7894,-4.763,-4.7497,-4.7497,-4.7497,-4.7497,-4.7497,-4.6941,-4.5978,-4.6046,-4.4276,-4.1488,-4.1559,-4.0392,0.0,0.0,0.0,0.0,0.0,0.0,0.0,0.0,-3.8086,-3.7734,-3.7734,-3.7441,-3.7051,-3.6758,-3.6582,-3.6406,-3.6094,-3.6016,-3.6094,-3.6387,-3.6797,-3.7207,-3.7637,-3.8164,-3.8574,-3.8574,-3.8302,-3.7255,-3.4822,-3.0993,0.0,0.0,0.0,0.0,0.0,0.0,0.0,0.0,0.0,0.0,0.0,0.0,0.0,0.0,0.0,0.0,0.0,0.0,0.0,0.0,-2.6386,-2.6307,-2.599,-2.599,-2.612,-2.6367,-2.6367,-2.6581,-2.705,-2.7474,-2.7728,-2.7728,-2.8065,-2.8221,-2.815,-2.7812,-2.7728,-2.7728,-2.7728,-2.7897,-2.8261,-2.8497,-2.8791,-2.9085,0.0,0.0,0.0,0.0,0.0,0.0,0.0,0.0,0.0,0.0,0.0,0.0,0.0,0.0,0.0,0.0,0.0,0.0,-4.959,-4.959,-4.959,-4.959,-4.959,-4.959,-4.959,-4.9267,-4.9072,-4.9072,-4.8355,-4.7828,-4.7497,-4.7497,-4.7497,-4.7497,-4.7497,-4.7497,-4.7298,-4.4276,-4.3032,-4.2753,-3.9838,-3.8647,-3.8574,0.0,0.0,0.0,0.0,0.0,0.0,0.0,-3.7637,-3.7285,-3.7285,-3.7012,-3.666,-3.666,-3.6348,-3.6016,-3.6016,-3.6016,-3.6016,-3.6016,-3.6348,-3.6777,-3.7207,-3.7949,-3.8574,-3.8574,-3.8302,-3.7255,-3.4896,-3.3053,0.0,0.0,0.0,0.0,0.0,0.0,0.0,0.0,0.0,0.0,0.0,0.0,0.0,0.0,0.0,0.0,0.0,0.0,0.0,0.0,-2.6465,-2.6465,-2.6465,-2.6465,-2.676,-2.735,-2.735,-2.741,-2.7487,-2.7981,-2.8221,-2.8221,-2.8221,-2.8221,-2.8221,-2.8221,-2.8221,-2.8221,-2.8221,-2.8221,-2.8261,-2.8497,-2.8791,-2.9085,0.0,0.0,0.0,0.0,0.0,0.0,0.0,0.0,0.0,0.0,0.0,0.0,0.0,0.0,0.0,0.0,0.0,0.0,-4.959,-4.959,-4.959,-4.959,-4.959,-4.959,-4.959,-4.9525,-4.9202,-4.8772,-4.851,-4.8248,-4.7828,-4.7828,-4.7696,-4.7497,-4.7497,-4.7497,-4.7431,-4.6516,-4.4914,-4.2962,-4.2052,-4.0463,-3.8574,0.0,0.0,0.0,0.0,0.0,0.0,0.0,0.0,0.0,-3.6855,-3.6562,-3.6211,-3.6211,-3.6113,-3.6016,-3.6016,-3.6016,-3.6016,-3.6016,-3.6348,-3.6777,-3.7207,-3.7715,-3.8203,-3.8516,-3.7345,-3.6294,-3.6479,-3.396,0.0,0.0,0.0,0.0,0.0,0.0,0.0,0.0,0.0,0.0,0.0,0.0,0.0,0.0,0.0,0.0,0.0,0.0,0.0,0.0,-2.9851,-2.9851,-2.9851,-2.9851,-3.0184,-3.0866,-2.9566,-2.8619,-2.7981,-2.815,-2.8221,-2.8221,-2.8221,-2.8221,-2.8221,-2.8221,-2.8221,-2.8221,-2.8221,-2.8221,-2.8288,-2.8724,-2.8965,-2.9112,0.0,0.0,0.0,0.0,0.0,0.0,0.0,0.0,0.0,0.0,-5.4263,-5.2998,0.0,0.0,0.0,0.0,0.0,0.0,0.0,-4.959,-4.959,-4.959,-4.959,-4.959,-4.959,-4.959,-4.9396,-4.9032,-4.8837,-4.8641,-4.8248,-4.8248,-4.8026,-4.7696,-4.7696,-4.7696,-4.763,-4.7074,-4.5526,-4.3335,-4.2605,-4.0884,-3.8734,0.0,0.0,0.0,0.0,0.0,0.0,0.0,0.0,0.0,-3.6406,-3.623,-3.6016,-3.6016,-3.6016,-3.6016,-3.6016,-3.6016,-3.6016,-3.6016,-3.6211,-3.6562,-3.7168,-3.7754,-3.8262,-3.8516,-3.7566,-3.6737,-3.6682,-3.4861,0.0,0.0,0.0,0.0,0.0,0.0,0.0,0.0,0.0,0.0,0.0,0.0,0.0,0.0,0.0,0.0,0.0,0.0,0.0,0.0,-3.13,-3.13,-3.13,-3.13,-3.1665,-3.238,-3.133,-3.0632,-3.0205,-2.8796,-2.8221,-2.8221,-2.8221,-2.8221,-2.8221,-2.8221,-2.8221,-2.8221,-2.8221,-2.8221,-2.8301,-2.8818,-2.9045,-2.9125,0.0,0.0,0.0,0.0,0.0,0.0,0.0,0.0,0.0,0.0,-5.4263,-5.2998,0.0,0.0,0.0,0.0,0.0,0.0,0.0,0.0,-4.959,-4.959,-4.959,-4.959,-4.959,-4.959,-4.959,-4.959,-4.9267,-4.8942,-4.8641,-4.8641,-4.8445,-4.8026,-4.8026,-4.8026,-4.796,-4.6626,-4.5344,-4.4072,-4.2141,-4.0536,-3.9091,-3.8217,0.0,0.0,0.0,0.0,0.0,0.0,0.0,0.0,-3.6016,-3.6016,-3.6016,-3.6016,-3.6016,-3.6016,-3.6016,-3.6016,-3.6016,-3.6016,-3.6055,-3.6289,-3.7109,-3.793,-3.8535,-3.8574,0.0,-3.8044,-3.6053,0.0,0.0,0.0,0.0,0.0,0.0,0.0,0.0,0.0,0.0,0.0,0.0,0.0,0.0,0.0,0.0,0.0,0.0,0.0,0.0,0.0,-3.1759,-3.1759,-3.1759,-3.1791,-3.2162,0.0,-3.2713,-3.3002,-3.356,-3.0191,-2.8642,-2.8642,-2.8642,-2.8642,-2.8642,-2.8642,-2.8558,-2.8473,-2.8473,-2.8332,-2.8341,-2.8831,-2.9058,-2.9165,0.0,0.0,0.0,0.0,0.0,0.0,0.0,0.0,0.0,0.0,0.0,0.0,0.0,0.0,0.0,0.0,0.0,0.0,0.0,0.0,-4.959,-4.959,-4.959,-4.959,-4.959,-4.959,-4.959,-4.959,-4.9525,-4.9332,-4.9007,-4.9007,-4.8837,-4.8445,-4.8445,-4.8445,-4.8445,-4.8116,-4.6945,-4.5103,-4.3602,-4.1841,-4.0013,-3.8726,-3.7858,0.0,0.0,0.0,0.0,0.0,0.0,0.0,-3.6016,-3.6016,-3.6016,-3.6016,-3.6016,-3.6016,-3.6016,-3.6016,-3.6016,-3.6016,-3.6289,-3.666,-3.7187,-3.7695,-3.8164,-3.8496,-3.8574,-3.8355,0.0,0.0,0.0,0.0,0.0,0.0,0.0,0.0,0.0,0.0,0.0,0.0,0.0,0.0,0.0,0.0,0.0,0.0,0.0,0.0,0.0,-3.5139,-3.5139,-3.5139,-3.5139,-3.5459,-3.5851,0.0,-3.5268,-3.5008,-3.5349,-3.3233,-3.2247,-3.2247,-3.2247,-3.2247,-3.2247,-3.2247,-3.152,-3.0205,-3.0205,-2.9537,-2.8551,-2.8911,-2.9192,-2.9432,0.0,0.0,0.0,0.0,0.0,0.0,0.0,0.0,0.0,0.0,0.0,0.0,0.0,0.0,0.0,0.0,0.0,0.0,0.0,0.0,-4.959,-4.959,-4.959,-4.959,-4.959,-4.959,-4.959,-4.959,-4.959,-4.9525,-4.9332,-4.9332,-4.9137,-4.8837,-4.8837,-4.8837,-4.8812,-4.8565,-4.714,-4.4983,-4.3771,-4.1837,-3.9553,-3.8412,-3.7779,-3.7373,-3.7237,0.0,0.0,0.0,0.0,0.0,0.0,0.0,-3.6016,-3.6016,-3.6016,-3.6016,-3.6016,-3.6016,-3.6016,-3.6016,0.0,-3.6465,-3.6894,-3.7324,-3.7754,-3.8164,-3.8418,0.0,0.0,0.0,0.0,0.0,0.0,0.0,0.0,0.0,0.0,0.0,0.0,0.0,0.0,0.0,0.0,0.0,0.0,0.0,0.0,-3.6201,-3.6201,-3.6201,-3.6201,-3.6201,-3.6201,-3.6622,-3.7026,-3.7429,-3.6862,-3.6861,-3.7152,-3.462,-3.3397,-3.3397,-3.3397,-3.3397,-3.3397,-3.3397,-3.2823,-3.2015,-3.2015,-3.1714,-3.1131,-3.0523,-3.05,-3.0719,0.0,0.0,0.0,0.0,0.0,0.0,0.0,0.0,0.0,0.0,0.0,0.0,0.0,0.0,0.0,0.0,0.0,0.0,0.0,0.0,0.0,-4.959,-4.959,-4.959,-4.959,-4.959,-4.959,-4.959,-4.959,-4.959,-4.959,-4.959,-4.9461,-4.9202,-4.9202,-4.9202,-4.9177,-4.8629,-4.7151,-4.5085,-4.3891,-4.1963,-3.9654,-3.872,-3.8196,-3.7929,-3.7662,-3.7126,-3.6586,-3.6586,0.0,0.0,0.0,0.0,-3.6084,-3.6084,-3.6084,-3.6016,-3.6016,-3.6016,-3.6016,-3.6016,-3.6016,0.0,-3.6562,-3.6992,-3.7422,-3.7832,0.0,0.0,0.0,0.0,0.0,0.0,0.0,0.0,0.0,0.0,0.0,0.0,0.0,0.0,0.0,0.0,0.0,0.0,0.0,0.0,-3.6201,-3.6201,-3.6201,-3.6201,-3.6201,-3.6201,-3.6201,-3.6696,-3.7099,-3.7429,-3.7906,-3.831,-3.8481,-3.5608,-3.4294,-3.4294,-3.4294,-3.4294,-3.4294,-3.4294,-3.4132,-3.3887,-3.3887,-3.3964,-3.3949,-3.2659,-3.249,-3.2688,0.0,0.0,0.0,0.0,0.0,0.0,0.0,0.0,0.0,0.0,-5.4973,-5.3423,0.0,0.0,0.0,0.0,0.0,0.0,0.0,0.0,0.0,-4.959,-4.959,-4.959,-4.959,-4.959,-4.959,-4.959,-4.959,-4.959,-4.959,-4.959,-4.959,-4.9525,-4.9525,-4.9525,-4.95,-4.8949,-4.8233,-4.7307,-4.5537,-4.4317,-4.3389,-4.212,-4.0688,-3.9408,-3.9343,-3.8374,-3.7011,-3.7011,-3.7011,0.0,0.0,0.0,-3.6451,-3.6451,-3.62,-3.6016,-3.6016,0.0,-3.6016,0.0,-3.6016,-3.6133,0.0,0.0,-3.7422,0.0,0.0,0.0,0.0,0.0,0.0,0.0,0.0,0.0,0.0,0.0,0.0,0.0,0.0,0.0,0.0,0.0,0.0,0.0,0.0,0.0,-3.6201,-3.6201,-3.6201,-3.6201,-3.6201,-3.6201,-3.6201,-3.6971,-3.7374,-3.7429,-3.8199,-3.8505,-3.856,-3.8145,-3.7906,-3.7906,-3.7906,-3.7906,-3.7906,-3.7906,-3.6992,-3.5672,-3.5672,-3.5114,-3.4298,-3.4092,-3.4517,-3.5083,0.0,0.0,0.0,0.0,0.0,0.0,0.0,0.0,0.0,0.0,0.0,-5.456,0.0,0.0,0.0,-5.0664,-5.0014,-4.959,-4.959,-4.959,0.0,0.0,-4.959,-4.959,-4.959,-4.959,-4.959,-4.959,-4.959,-4.959,-4.959,-4.959,-4.959,-4.959,-4.959,-4.959,-4.954,-4.8661,-4.7669,-4.6655,-4.5237,-4.3569,-4.2034,-4.2161,-4.1267,-3.9997,-3.9997,-3.9343,-3.8441,-3.7683,-3.728,-3.7079,-3.7079,0.0,0.0,0.0,-3.6384,-3.6268,-3.6084,-3.6016,-3.6016,0.0,-3.6016,-3.6074,-3.6269,0.0,0.0,0.0,0.0,0.0,0.0,0.0,0.0,0.0,0.0,0.0,0.0,0.0,0.0,0.0,0.0,0.0,0.0,0.0,0.0,0.0,0.0,-3.6201,-3.6201,-3.6201,-3.6201,-3.6201,-3.6201,-3.6201,-3.6201,-3.7026,-3.7649,-3.8108,-3.8396,-3.856,-3.856,-3.856,-3.856,-3.856,-3.856,-3.856,-3.856,-3.856,-3.8145,-3.749,-3.749,-3.7467,-3.7308,-3.6309,-3.6439,-3.688,0.0,0.0,0.0,0.0,0.0,0.0,0.0,0.0,0.0,0.0,0.0,0.0,0.0,0.0,0.0,0.0,-5.0308,-4.959,-4.959,-4.959,0.0,0.0,0.0,-4.959,-4.959,-4.959,-4.959,-4.959,-4.959,-4.959,-4.959,-4.959,-4.959,-4.959,-4.959,-4.959,-4.9515,-4.8385,-4.732,-4.6314,-4.5267,-4.3568,-4.1843,-4.2855,-4.2414,-4.1203,-4.0839,-4.0559,-4.004,-3.8329,-3.7816,-3.7796,-3.7482,-3.728,0.0,0.0,0.0,-3.6336,0.0,0.0,-3.6016,-3.6016,-3.6016,-3.6016,0.0,0.0,0.0,0.0,0.0,0.0,0.0,0.0,0.0,0.0,0.0,0.0,0.0,0.0,0.0,0.0,0.0,0.0,0.0,0.0,0.0,0.0,0.0,-3.6201,-3.6201,-3.6201,-3.6201,-3.6201,-3.6201,-3.6201,-3.6201,-3.7026,-3.7833,-3.856,-3.856,-3.856,-3.856,-3.856,-3.856,-3.856,-3.856,-3.856,-3.856,-3.856,-3.856,-3.8579,-3.867,-3.9226,-3.9768,-3.8441,-3.8397,-3.8802,0.0,0.0,0.0,0.0,0.0,0.0,0.0,0.0,0.0,0.0,0.0,0.0,-5.5412,-5.3093,-5.1492,-5.1492,-5.0308,-4.959,-4.959,-4.959,-4.959,-4.959,0.0,0.0,-4.959,-4.959,-4.959,-4.959,-4.959,-4.959,-4.959,-4.959,-4.959,-4.959,-4.959,-4.959,-4.9515,-4.8385,-4.7845,-4.7683,-4.6606,-4.612,-4.5999,-4.6059,-4.5281,-4.3941,-4.2603,-4.2074,-4.1629,-3.9078,-3.8991,-3.9823,-3.8549,-3.7904,-3.7482,0.0,0.0,0.0,0.0,-3.6016,0.0,-3.6016,-3.6016,0.0,0.0,0.0,0.0,0.0,0.0,0.0,0.0,0.0,0.0,0.0,0.0,0.0,0.0,0.0,0.0,0.0,0.0,0.0,0.0,0.0,0.0,0.0,0.0,-3.6201,-3.6201,-3.6201,-3.6201,-3.6201,-3.6201,-3.6201,-3.6201,-3.7026,-3.7833,-3.856,-3.856,-3.856,-3.856,-3.856,-3.856,-3.856,-3.856,-3.856,-3.856,-3.856,-3.856,-3.8597,-3.9061,-3.9465,-3.9887,-4.0207,-4.061,-4.0976,0.0,0.0,0.0,0.0,0.0,0.0,0.0,0.0,0.0,0.0,0.0,0.0,0.0,-5.3093,-5.1492,-5.1492,-5.0308,-4.959,-4.959,-4.959,-4.959,-4.959,0.0,0.0,-4.959,-4.959,-4.959,-4.959,-4.959,-4.959,-4.959,-4.959,-4.959,-4.959,-4.959,-4.959,-4.9515,-4.8385,-4.7908,-4.7807,-4.6728,-4.5793,-4.5074,-4.5999,-4.5464,-4.4251,-4.3731,-4.3544,-4.3232,-4.1396,-4.1075,-4.1396,-4.0882,-4.0688,-4.03,-3.8795,-3.7421,0.0,0.0,0.0,0.0,-3.6016,-3.6016,0.0,0.0,0.0,0.0,0.0,0.0,0.0,0.0,0.0,0.0,0.0,0.0,0.0,0.0,0.0,0.0,0.0,0.0,0.0,0.0,0.0,0.0,0.0,0.0,0.0,-3.6201,-3.6201,-3.6201,-3.6201,-3.6201,-3.6457,-3.6989,-3.7521,-3.8089,-3.856,-3.856,-3.856,-3.856,-3.856,-3.856,-3.856,-3.856,-3.856,-3.856,-3.856,-3.856,-3.8597,-3.908,-3.9483,-3.9968,-4.0308,-4.0712,-4.106,0.0,0.0,0.0,0.0,0.0,0.0,0.0,0.0,-5.7303,-5.7303,0.0,0.0,0.0,0.0,-5.1829,-5.0916,-5.0078,-4.959,-4.959,-4.959,-4.959,-4.959,-4.959,0.0,-4.959,-4.959,-4.959,-4.959,-4.959,-4.959,-4.959,-4.959,-4.959,-4.959,-4.959,-4.959,-4.9515,-4.8385,-4.7908,-4.7807,-4.6728,-4.5793,-4.5074,-4.5999,-4.5732,-4.489,-4.4436,-4.4583,-4.4706,-4.2855,-4.2517,-4.2855,-4.2328,-4.2138,-4.1756,-4.0386,-3.8642,-3.7173,-3.6924,0.0,0.0,0.0,0.0,0.0,0.0,0.0,0.0,0.0,0.0,0.0,0.0,0.0,0.0,0.0,0.0,0.0,0.0,0.0,0.0,0.0,0.0,0.0,0.0,0.0,0.0,0.0,0.0,0.0,-3.6201,-3.6201,-3.6201,-3.6201,-3.6347,-3.6732,-3.7411,-3.7814,-3.8218,-3.856,-3.856,-3.856,-3.856,-3.856,-3.856,-3.856,-3.856,-3.856,-3.856,-3.856,-3.856,-3.8695,-3.9226,-3.9612,-3.9987,-4.0455,-4.084,-4.106,0.0,0.0,0.0,0.0,0.0,0.0,0.0,0.0,-5.7303,-5.7303,0.0,0.0,0.0,0.0,0.0,-4.9847,-4.959,-4.959,-4.959,-4.959,-4.959,-4.959,-4.959,-4.959,-4.959,-4.959,-4.959,-4.959,-4.959,-4.959,-4.959,-4.959,-4.959,-4.959,-4.959,-4.959,-4.9515,-4.8385,-4.7908,-4.7807,-4.6728,-4.6301,-4.6301,-4.6301,-4.6301,-4.612,-4.4829,-4.522,-4.5853,-4.3232,-4.3232,-4.4127,-4.273,-4.2074,-4.1797,-4.1734,-4.0321,-3.8663,0.0,0.0,0.0,0.0,0.0,0.0,0.0,0.0,0.0,0.0,0.0,0.0,0.0,0.0,0.0,0.0,0.0,0.0,0.0,0.0,0.0,0.0,0.0,0.0,0.0,0.0,0.0,0.0,0.0,-3.6201,-3.6201,-3.6201,-3.6201,-3.6201,-3.6622,-3.7044,-3.7429,-3.7833,-3.8236,-3.856,-3.856,-3.856,-3.856,-3.856,-3.856,-3.856,-3.856,-3.856,-3.856,-3.856,-3.856,-3.8731,-3.952,-3.9932,-4.0024,-4.0832,-4.106,-4.106,0.0,0.0,0.0,0.0,0.0,-5.7303,-5.7303,-5.7303,-5.7303,0.0,0.0,0.0,-5.5934,-5.3637,-5.1393,-4.9719,-4.959,-4.959,-4.959,-4.959,-4.959,-4.959,-4.959,-4.959,-4.959,-4.959,-4.959,-4.959,-4.959,-4.959,-4.959,-4.959,-4.959,-4.959,-4.959,-4.959,-4.9515,-4.8385,-4.7908,-4.7807,-4.6728,-4.6301,-4.6301,-4.6301,-4.6301,-4.624,-4.5853,-4.5999,-4.618,-4.5403,-4.5403,-4.5671,-4.5281,-4.4436,-4.3544,-4.3208,-4.2051,-4.0773,-4.0537,0.0,0.0,0.0,0.0,0.0,-3.6838,0.0,0.0,0.0,0.0,0.0,0.0,0.0,0.0,0.0,0.0,0.0,0.0,0.0,0.0,0.0,0.0,0.0,0.0,0.0,0.0,0.0,-3.6349,-3.6201,-3.6201,-3.6201,-3.6201,-3.6201,-3.6897,-3.7319,-3.7429,-3.8126,-3.853,-3.856,-3.856,-3.856,-3.856,-3.856,-3.856,-3.856,-3.856,-3.856,-3.856,-3.856,-3.856,-3.8731,-3.952,-3.9932,-4.0024,-4.0832,-4.106,-4.106,0.0,0.0,0.0,0.0,0.0,-5.7303,-5.7303,-5.7303,-5.7303,0.0,0.0,0.0,-5.4738,-5.3214,-5.158,-4.9783,-4.959,-4.959,-4.959,-4.959,-4.959,-4.959,-4.959,-4.959,-4.959,-4.959,-4.959,-4.959,-4.959,-4.959,-4.959,-4.959,-4.959,-4.959,-4.959,-4.959,-4.954,-4.8636,-4.8134,-4.7832,-4.7004,-4.6527,-4.6301,-4.6301,-4.6301,-4.6301,-4.6301,-4.6301,-4.6301,-4.6301,-4.6301,-4.6301,-4.6301,-4.5732,-4.5098,-4.4829,-4.3731,-4.2517,-4.2328,-4.1565,-4.0688,-3.9714,0.0,0.0,-3.7932,-3.7332,0.0,0.0,0.0,0.0,0.0,0.0,0.0,0.0,0.0,0.0,0.0,0.0,0.0,0.0,0.0,0.0,0.0,0.0,0.0,-3.6812,-3.6442,-3.6201,-3.6201,-3.6201,-3.6292,-3.6457,-3.7099,-3.7503,-3.7668,-3.831,-3.856,-3.856,-3.856,-3.856,-3.856,-3.856,-3.856,-3.856,-3.856,-3.856,-3.856,-3.856,-3.856,-3.8652,-3.952,-3.9913,-4.0024,-4.0832,-4.106,-4.106,0.0,0.0,-5.7303,-5.7303,-5.7303,-5.7303,-5.7303,-5.7303,-5.7303,0.0,-5.7303,-5.6337,-5.3784,-5.351,-5.2474,-4.9847,-4.959,-4.959,-4.959,-4.959,-4.959,-4.959,-4.959,-4.959,-4.959,-4.959,-4.959,-4.959,-4.959,-4.959,-4.959,-4.959,-4.959,-4.959,-4.959,-4.959,-4.9565,-4.9063,-4.8535,-4.7958,-4.7355,-4.6803,-4.6301,-4.6301,-4.6301,-4.6301,-4.6301,-4.6301,-4.6301,-4.6301,-4.6301,-4.6301,-4.6301,-4.6301,-4.6301,-4.6301,-4.522,-4.3979,-4.3979,-4.2832,-4.1565,-4.1075,-4.0018,0.0,-3.9274,-3.8416,-3.7732,0.0,0.0,0.0,0.0,0.0,0.0,0.0,0.0,0.0,0.0,0.0,0.0,0.0,0.0,0.0,0.0,0.0,-3.7255,-3.6886,-3.6423,-3.6201,-3.6201,-3.6201,-3.6402,-3.6824,-3.7228,-3.7613,-3.8016,-3.8438,-3.856,-3.856,-3.856,-3.856,-3.856,-3.856,-3.856,-3.856,-3.856,-3.856,-3.856,-3.856,-3.856,-3.8652,-3.9502,-3.9832,-4.0024,-4.0832,-4.106,-4.106,0.0,0.0,-5.7303,-5.7303,-5.7303,-5.7303,-5.7303,-5.7303,-5.7303,-5.7303,-5.7303,-5.6337,-5.3784,-5.351,-5.2474,-4.9847,-4.959,-4.959,-4.959,-4.959,-4.959,-4.959,-4.959,-4.959,-4.959,-4.959,-4.959,-4.959,-4.959,-4.959,-4.959,-4.959,-4.959,-4.959,-4.959,-4.959,-4.959,-4.949,-4.9113,-4.851,-4.7531,-4.6803,-4.6301,-4.6301,-4.6301,-4.6301,-4.6301,-4.6301,-4.6301,-4.6301,-4.6301,-4.6301,-4.6301,-4.6301,-4.6301,-4.6301,-4.6059,-4.5793,-4.5793,-4.5159,-4.4213,-4.2981,-4.2482,0.0,-3.9327,-3.898,-3.8856,0.0,0.0,0.0,0.0,0.0,0.0,0.0,0.0,0.0,0.0,0.0,0.0,0.0,0.0,0.0,0.0,0.0,-3.7347,-3.7274,-3.659,-3.6201,-3.6201,-3.6201,-3.6402,-3.6824,-3.7228,-3.7613,-3.8016,-3.8438,-3.856,-3.856,-3.856,-3.856,-3.856,-3.856,-3.856,-3.856,-3.856,-3.856,-3.856,-3.856,-3.856,-3.8731,-3.952,-3.9913,-4.0024,-4.0832,-4.106,-4.106,-5.7303,-5.7303,-5.7303,-5.7303,-5.7303,-5.7303,-5.7303,-5.7303,-5.7303,-5.7303,-5.7303,-5.6594,-5.4679,-5.3844,-5.2692,-5.0727,-4.995,-4.959,-4.959,-4.959,-4.959,-4.959,-4.959,-4.959,-4.959,-4.959,-4.959,-4.959,-4.959,-4.959,-4.959,-4.959,-4.959,-4.959,-4.959,-4.959,-4.959,-4.959,-4.9264,-4.8711,-4.8159,0.0,-4.6728,-4.6728,-4.6552,-4.6301,-4.6301,-4.6301,-4.6301,-4.6301,-4.6301,0.0,-4.6301,-4.6301,-4.6301,-4.6301,-4.6301,-4.6376,-4.6652,-4.6337,-4.5773,-4.5208,-4.4371,0.0,0.0,-4.1244,-4.088,0.0,0.0,0.0,0.0,0.0,0.0,0.0,0.0,0.0,0.0,0.0,0.0,0.0,0.0,0.0,0.0,0.0,-3.7568,-3.7107,-3.6516,-3.6201,-3.6201,-3.6402,-3.6714,-3.7118,-3.7503,-3.7906,-3.8328,-3.853,-3.856,-3.856,-3.856,-3.856,-3.856,-3.856,-3.856,-3.856,-3.856,-3.856,-3.856,-3.856,-3.856,-3.8731,-3.952,-3.9932,-4.0024,-4.0832,-4.106,-4.106,-5.7303,-5.7303,-5.7303,-5.7303,-5.7303,-5.7303,-5.7303,-5.7303,-5.7303,-5.7303,-5.7303,-5.6822,-5.5528,-5.4501,-5.3302,-5.1989,-5.0916,-5.027,-4.995,-4.995,-4.9822,-4.959,-4.959,-4.959,-4.959,-4.959,-4.959,-4.959,-4.959,-4.959,-4.959,-4.959,-4.959,-4.959,-4.959,-4.959,-4.959,-4.959,0.0,-4.8937,0.0,-4.8209,-4.7068,-4.7029,-4.6702,-4.6301,-4.6301,-4.6301,-4.6301,-4.6301,-4.6301,-4.6301,-4.6301,-4.6376,0.0,0.0,0.0,0.0,0.0,0.0,0.0,0.0,0.0,-4.4804,0.0,0.0,0.0,0.0,0.0,0.0,0.0,0.0,0.0,0.0,0.0,0.0,0.0,0.0,0.0,0.0,0.0,0.0,0.0,0.0,-3.7568,-3.6886,-3.6442,-3.6201,-3.6201,-3.6604,-3.7026,-3.7411,-3.7814,-3.8218,-3.864,-3.856,-3.856,-3.856,-3.856,-3.856,-3.856,-3.856,-3.856,-3.856,-3.856,-3.856,-3.856,-3.856,-3.856,-3.8731,-3.952,-3.9932,-4.0024,-4.0832,-4.106,-4.106,-5.7303,-5.7303,-5.7303,-5.7303,-5.7303,-5.7303,-5.7303,-5.7303,-5.7303,-5.7303,-5.7303,-5.6822,-5.5528,-5.5295,-5.4679,-5.3362,-5.3146,-5.257,-5.1393,-5.1268,-5.079,-4.9654,-4.959,-4.959,-4.959,-4.959,-4.959,-4.959,-4.959,-4.959,-4.959,-4.959,-4.959,-4.959,-4.959,-4.959,-4.959,-4.959,-4.9565,0.0,-4.9515,-4.856,0.0,-4.6602,-4.6376,-4.6301,-4.6301,-4.6301,-4.6301,0.0,-4.6301,-4.6301,0.0,-4.6652,-4.6993,-4.6993,0.0,0.0,0.0,0.0,0.0,0.0,-4.6914,0.0,0.0,0.0,-4.4573,-4.3288,0.0,0.0,0.0,0.0,0.0,0.0,0.0,0.0,0.0,0.0,0.0,0.0,0.0,0.0,0.0,0.0,0.0,-3.6812,-3.6442,-3.6201,-3.6201,-3.6604,-3.7026,-3.7411,-3.7814,-3.8218,-3.864,-3.856,-3.856,-3.856,-3.856,-3.856,-3.856,-3.856,-3.856,-3.856,-3.856,-3.856,-3.856,-3.856,-3.856,-3.8731,-3.952,-3.9932,-4.0024,-4.0832,-4.106,-4.106,-5.7245,-5.7303,-5.7303,-5.7303,0.0,0.0,-5.7303,-5.7303,-5.7303,-5.7303,-5.7303,-5.7134,-5.6594,-5.5818,-5.515,-5.4619,-5.3904,-5.2937,-5.1554,-5.1492,-5.0916,-4.9654,-4.959,-4.959,-4.959,-4.959,-4.959,-4.959,-4.959,-4.959,-4.959,-4.959,-4.959,-4.959,-4.959,-4.959,-4.959,0.0,-4.959,0.0,0.0,0.0,0.0,-4.7832,-4.733,-4.6753,-4.6426,-4.6301,-4.6301,0.0,-4.6301,0.0,0.0,0.0,0.0,-4.7481,0.0,0.0,0.0,0.0,0.0,0.0,0.0,0.0,-4.6674,0.0,-4.6382,0.0,0.0,0.0,0.0,0.0,0.0,0.0,0.0,0.0,0.0,0.0,0.0,0.0,0.0,0.0,0.0,0.0,0.0,0.0,0.0,-3.6311,-3.6567,-3.6952,-3.7356,-3.7759,-3.8163,-3.8456,-3.856,-3.856,-3.856,-3.856,-3.856,-3.856,-3.856,-3.856,-3.856,-3.856,-3.856,-3.856,-3.856,-3.856,-3.856,-3.8731,-3.952,-3.9932,-4.0024,-4.0832,-4.106,-4.106,-5.6984,-5.7187,-5.7303,-5.7303,0.0,0.0,0.0,-5.7303,-5.7303,-5.7303,-5.7303,-5.7303,-5.7303,-5.648,-5.5934,-5.5934,-5.5091,-5.3964,-5.2666,-5.2236,-5.1642,-5.0689,-4.995,-4.9783,-5.0142,-4.9783,-4.959,-4.959,-4.959,-4.959,-4.959,-4.959,-4.959,-4.959,-4.959,-4.959,-4.959,0.0,-4.959,-4.9565,-4.9163,-4.8987,-4.8962,-4.8661,-4.8033,-4.728,-4.6903,-4.6753,-4.6753,-4.6753,-4.6753,0.0,-4.723,0.0,0.0,0.0,0.0,0.0,-4.8887,0.0,0.0,0.0,0.0,0.0,0.0,0.0,0.0,0.0,0.0,0.0,0.0,0.0,-4.4114,-4.3833,0.0,0.0,0.0,0.0,0.0,0.0,0.0,0.0,0.0,0.0,0.0,0.0,-3.6979,-3.6512,-3.6749,-3.7319,-3.7723,-3.7998,-3.842,-3.856,-3.856,-3.856,-3.856,-3.856,-3.856,-3.856,-3.856,-3.856,-3.856,-3.856,-3.856,-3.856,-3.856,-3.856,-3.856,-3.8652,-3.952,-3.9913,-4.0024,-4.0832,-4.106,-4.106,-5.6432,-5.6897,-5.7303,-5.7303,-5.7303,0.0,0.0,0.0,-5.7303,-5.7303,-5.7303,-5.7303,-5.7303,-5.7247,-5.7247,-5.7247,-5.7191,-5.6651,-5.5353,-5.4144,-5.345,-5.3389,-5.0942,-5.0181,-5.1393,-5.0245,-4.959,-4.959,-4.959,-4.959,-4.959,-4.959,-4.959,-4.959,-4.959,-4.959,-4.959,-4.959,-4.959,-4.959,-4.9565,-4.9565,-4.9439,0.0,-4.7908,-4.7883,-4.7857,0.0,0.0,-4.7857,-4.7857,0.0,0.0,0.0,0.0,0.0,0.0,0.0,0.0,0.0,0.0,-4.9202,0.0,0.0,0.0,0.0,-4.7894,0.0,0.0,0.0,0.0,-4.7364,-4.7041,-4.599,-4.5508,0.0,0.0,0.0,0.0,0.0,0.0,0.0,0.0,0.0,0.0,-3.951,-3.7817,-3.6824,-3.6842,-3.7576,-3.7998,-3.8016,-3.842,-3.856,-3.856,-3.856,-3.856,-3.856,-3.856,-3.856,-3.856,-3.856,-3.856,-3.856,-3.856,-3.856,-3.856,-3.856,-3.856,-3.8652,-3.9502,-3.9832,-4.0024,-4.0832,-4.106,-4.106,-5.6229,-5.6578,-5.6839,-5.7245,-5.7303,0.0,0.0,-5.7303,0.0,0.0,-5.7303,0.0,0.0,-5.7303,-5.7303,0.0,0.0,-5.6765,-5.547,-5.4204,0.0,-5.351,-5.1005,-5.0181,-5.1429,-5.0245,-4.959,-4.959,-4.959,-4.959,-4.959,-4.959,-4.959,-4.959,-4.959,-4.959,0.0,0.0,0.0,0.0,0.0,-4.959,-4.9515,0.0,0.0,-4.8435,-4.8033,-4.7908,0.0,-4.7908,-4.7908,-4.7983,-4.836,-4.8611,-4.8837,-4.9213,-4.9439,0.0,0.0,0.0,-4.959,-4.9461,0.0,0.0,0.0,0.0,0.0,0.0,0.0,0.0,0.0,-4.7497,-4.7346,-4.7021,-4.6835,-4.6788,0.0,0.0,0.0,0.0,0.0,0.0,0.0,0.0,0.0,-3.9983,-3.7988,-3.7062,0.0,-3.7869,-3.8144,-3.842,-3.8487,-3.856,-3.856,-3.856,-3.856,-3.856,-3.856,-3.856,-3.856,-3.856,-3.856,-3.856,-3.856,-3.856,-3.856,-3.856,-3.856,-3.8652,-3.952,-3.9913,-4.0024,-4.0832,-4.106,-4.106,-5.5562,-5.591,-5.6316,-5.7158,0.0,0.0,0.0,0.0,0.0,0.0,-5.7303,0.0,-5.7303,0.0,-5.7303,0.0,-5.7303,-5.6992,-5.628,-5.4915,0.0,-5.4973,-5.2447,-5.1606,-5.2849,-5.1142,-5.0245,-5.0245,-4.9847,-4.959,-4.959,-4.959,-4.959,-4.959,-4.959,-4.959,-4.959,-4.959,-4.959,0.0,0.0,-4.959,0.0,0.0,-4.9063,-4.9012,0.0,-4.851,-4.851,-4.851,-4.851,-4.8586,-4.8937,-4.9063,-4.9138,-4.949,-4.959,-4.959,-4.959,-4.959,0.0,-4.9461,-4.9267,0.0,-4.851,0.0,0.0,0.0,0.0,0.0,0.0,0.0,-4.7497,-4.7497,-4.7497,-4.7497,0.0,-4.7497,0.0,0.0,0.0,0.0,0.0,0.0,0.0,-4.0479,-3.8947,-3.8064,0.0,0.0,-3.8365,-3.856,-3.856,-3.856,-3.856,-3.856,-3.856,-3.856,-3.856,-3.856,-3.856,-3.856,-3.856,-3.856,-3.856,-3.856,-3.856,-3.856,-3.8652,-3.8915,-3.9575,-4.0005,-4.0226,-4.0906,-4.106,-4.106,0.0,-5.501,0.0,0.0,-5.7245,0.0,0.0,0.0,-5.7274,0.0,-5.7274,-5.7303,-5.7303,-5.7303,-5.7303,-5.7303,-5.7303,-5.7416,-5.7725,-5.628,0.0,0.0,-5.5032,-5.4084,-5.5353,-5.291,-5.1616,-5.1616,-5.0372,-4.9847,-4.9783,-4.9783,-4.9783,-4.9719,-4.9719,0.0,-4.959,-4.959,-4.959,-4.959,-4.959,-4.959,-4.959,-4.959,-4.959,-4.959,-4.959,-4.959,-4.959,-4.959,-4.959,-4.959,-4.959,-4.959,-4.959,-4.959,-4.959,-4.959,-4.959,-4.959,-4.9525,-4.9202,0.0,0.0,0.0,0.0,-4.7894,0.0,0.0,0.0,0.0,0.0,-4.7545,-4.7569,-4.7569,-4.7569,-4.7569,0.0,0.0,0.0,0.0,0.0,0.0,0.0,-4.3635,-4.1218,-4.0629,-3.9641,0.0,0.0,-3.8719,-3.856,-3.856,-3.856,-3.856,-3.856,-3.856,-3.856,-3.856,-3.856,-3.856,-3.856,-3.856,-3.856,-3.856,-3.856,-3.856,-3.856,-3.8878,-3.9263,-3.9667,-4.0088,-4.0547,-4.0914,-4.106,-4.106,-5.44,-5.501,-5.5503,0.0,-5.6316,-5.6636,0.0,0.0,0.0,0.0,-5.7013,-5.7303,-5.7303,-5.7303,-5.7303,-5.7303,-5.7303,0.0,0.0,0.0,0.0,-5.736,-5.4915,-5.4084,-5.5353,-5.3997,-5.3214,-5.2998,-5.2849,-5.2666,-5.2535,-5.2535,-5.1953,-5.1016,-5.1016,0.0,-4.959,-4.959,-4.959,-4.959,-4.959,-4.959,0.0,0.0,-4.959,-4.959,-4.959,-4.959,-4.959,-4.959,-4.959,-4.959,-4.959,-4.959,-4.959,-4.959,-4.959,-4.959,-4.959,-4.959,-4.9525,-4.9202,-4.9072,-4.8942,0.0,0.0,0.0,0.0,0.0,0.0,0.0,0.0,0.0,-4.8603,-4.8676,-4.8676,-4.8676,0.0,0.0,-4.8676,0.0,0.0,0.0,-4.5183,-4.3379,-4.3152,-4.1765,-4.0182,0.0,0.0,0.0,-3.864,-3.856,-3.856,-3.856,-3.856,-3.856,-3.856,-3.856,-3.856,-3.856,-3.856,-3.856,-3.856,-3.856,-3.856,-3.856,-3.856,-3.8878,-3.9263,-3.9667,-4.0272,-4.0914,-4.1024,-4.106,-4.106,-5.3994,0.0,0.0,-5.501,0.0,0.0,-5.5939,-5.5968,0.0,-5.6133,-5.6686,0.0,-5.7064,-5.7326,-5.7472,-5.7303,-5.7303,0.0,-5.7472,0.0,0.0,-5.7472,-5.5992,-5.5586,-5.6423,-5.5208,0.0,-5.456,-5.4024,-5.3664,-5.351,-5.351,-5.312,-5.2359,0.0,-5.1953,-5.1257,-5.0689,-5.0142,-4.959,-4.959,0.0,0.0,-4.959,-4.959,-4.959,-4.959,-4.959,-4.959,-4.959,-4.959,-4.959,-4.959,-4.959,-4.959,-4.959,-4.959,-4.959,-4.959,-4.9461,-4.9267,-4.8967,-4.8747,-4.8486,-4.7894,-4.7762,-4.7696,0.0,0.0,0.0,0.0,0.0,0.0,0.0,-4.9084,-4.9084,-4.9084,0.0,0.0,0.0,-4.828,0.0,0.0,-4.5749,-4.3875,-4.4453,-4.3306,0.0,0.0,0.0,0.0,-3.864,-3.9333,-3.9333,-3.864,-3.9333,-3.9333,-3.856,-3.856,-3.856,-3.856,-3.856,-3.856,-3.856,-3.856,-3.856,-3.856,-3.856,-3.8988,-3.9557,-4.0143,-4.0657,-4.106,-4.106,-4.106,-4.106,0.0,0.0,0.0,0.0,0.0,0.0,0.0,-5.5242,0.0,-5.5596,0.0,-5.6698,-5.6698,-5.7196,-5.7435,-5.7243,0.0,-5.7384,-5.7725,-5.7472,-5.7416,-5.7781,-5.7472,-5.7472,-5.7781,-5.6423,-5.5818,0.0,-5.4738,-5.4024,-5.3964,-5.3964,-5.3904,-5.3724,0.0,0.0,0.0,-5.1989,-5.079,-4.959,-4.959,-4.959,-4.959,-4.959,-4.959,-4.959,-4.959,-4.959,-4.959,-4.959,-4.959,-4.959,-4.959,-4.959,-4.959,-4.959,-4.959,-4.959,-4.959,-4.9396,-4.9072,-4.8706,-4.8313,-4.796,-4.7563,-4.7545,-4.7593,-4.7593,-4.7666,-4.7858,0.0,0.0,0.0,0.0,0.0,0.0,0.0,0.0,0.0,0.0,0.0,0.0,0.0,0.0,-4.4983,-4.5583,-4.5205,0.0,0.0,0.0,0.0,-3.864,-4.0021,0.0,-3.8956,0.0,-4.0178,-3.8956,-3.8719,-3.856,-3.856,-3.856,-3.856,-3.856,-3.856,-3.856,-3.856,-3.856,-3.9116,-4.0005,-4.0832,-4.106,-4.106,-4.106,-4.106,-4.106,0.0,0.0,0.0,0.0,0.0,-5.3733,-5.382,-5.4473,-5.4929,-5.4769,-5.5454,-5.5996,-5.5996,-5.6084,-5.6322,-5.6822,-5.6881,0.0,0.0,0.0,0.0,-5.7781,-5.7472,-5.7472,-5.7781,-5.7528,-5.7247,0.0,-5.7078,-5.6879,-5.6651,-5.6651,-5.605,-5.5032,0.0,0.0,-5.1803,-5.1616,0.0,-4.959,-4.959,-4.959,-4.959,-4.959,-4.959,-4.959,-4.959,-4.959,-4.959,-4.959,-4.959,-4.959,-4.959,-4.959,-4.959,-4.959,-4.959,-4.959,-4.959,-4.9525,-4.9332,-4.8772,-4.8535,-4.8313,-4.763,-4.7834,-4.8147,-4.8147,-4.8507,-4.8964,-4.9493,0.0,0.0,0.0,0.0,0.0,0.0,0.0,0.0,0.0,0.0,-4.8964,0.0,0.0,0.0,0.0,0.0,0.0,0.0,0.0,0.0,0.0,0.0,0.0,0.0,0.0,-3.9569,-4.0646,-3.9254,-3.856,-3.856,-3.856,-3.856,-3.856,-3.856,-3.856,-3.856,-3.856,-3.9116,-4.0005,-4.0832,-4.106,-4.106,-4.106,-4.106,-4.106,0.0,0.0,0.0,0.0,0.0,0.0,0.0,-5.3972,0.0,-5.4206,-5.4996,-5.5566,-5.5566,-5.5966,-5.629,-5.6259,-5.661,-5.6906,-5.7032,-5.7185,-5.7416,-5.7781,-5.7472,-5.7528,-5.8003,-5.7892,-5.7892,-5.8059,-5.7974,-5.7863,-5.7557,-5.7557,-5.7134,-5.6423,0.0,-5.5325,0.0,0.0,0.0,-5.0563,-4.9886,-4.959,-4.959,-4.959,-4.959,-4.959,-4.959,-4.959,-4.959,-4.959,-4.959,-4.959,-4.959,-4.959,-4.959,-4.959,-4.959,-4.959,-4.959,-4.9461,-4.9267,-4.8967,-4.8576,-4.8255,-4.8191,-4.8233,-4.8363,-4.8652,-4.8892,-4.9229,-4.9782,-5.0335,0.0,0.0,0.0,0.0,0.0,0.0,-5.0696,0.0,0.0,0.0,0.0,0.0,0.0,0.0,0.0,0.0,0.0,0.0,0.0,0.0,0.0,0.0,0.0,0.0,0.0,-3.9805,-3.9883,-3.9411,-3.864,-3.949,-3.9411,-3.856,-3.856,-3.856,-3.8676,-3.9098,-3.9502,-4.0005,-4.0832,-4.106,-4.106,-4.106,-4.0976,-4.0723,0.0,-5.35,0.0,0.0,-5.35,0.0,-5.35,-5.3658,-5.3815,-5.3815,-5.4567,-5.5047,-5.4995,-5.5729,-5.6031,-5.5723,-5.6284,-5.6724,-5.6815,-5.7178,-5.7528,-5.7892,-5.7584,-5.7696,-5.828,-5.8003,-5.8003,0.0,0.0,-5.7915,-5.752,-5.7722,-5.7613,0.0,0.0,0.0,0.0,0.0,-5.312,-5.1829,-5.0499,-5.0014,-4.995,-4.9719,-4.959,-4.959,-4.959,-4.959,-4.959,-4.959,-4.959,-4.959,-4.959,-4.959,-4.959,-4.959,-4.959,-4.959,-4.959,-4.9396,-4.9227,-4.9287,-4.8789,-4.8408,-4.8877,-4.8826,-4.8748,-4.9157,-4.9349,-4.9541,-4.9974,-5.0407,0.0,0.0,0.0,0.0,0.0,0.0,0.0,0.0,0.0,0.0,-5.0696,0.0,0.0,0.0,0.0,-4.6802,-4.2576,-4.4151,0.0,0.0,0.0,-4.1404,-4.1693,0.0,-4.0099,0.0,-4.049,-4.0178,-3.864,-4.0334,-4.0178,-3.856,-3.856,-3.8615,-3.8823,-3.9538,-3.9968,-4.0134,-4.0851,-4.106,-4.106,-4.106,-4.0807,-4.0403,0.0,0.0,0.0,0.0,0.0,0.0,-5.35,-5.35,-5.3553,-5.3553,-5.4052,-5.4289,-5.4059,-5.4296,-5.4746,-5.5283,-5.5931,-5.6471,-5.6786,-5.743,-5.7892,-5.814,-5.7892,-5.8059,-5.8609,-5.8114,-5.7836,0.0,0.0,-5.7377,-5.6575,-5.7406,-5.7613,0.0,0.0,0.0,0.0,-5.5295,-5.4501,-5.318,-5.1891,-5.133,-5.1205,-5.0014,-4.959,-4.959,-4.959,-4.959,-4.959,-4.959,-4.959,-4.959,-4.959,-4.959,-4.959,-4.959,-4.959,-4.959,-4.959,-4.959,-4.9586,-4.9759,-4.9487,-4.9236,-4.9528,-4.9673,-4.9734,-4.9782,-5.0191,-5.0576,-5.0624,-5.0672,-5.0696,0.0,0.0,0.0,0.0,0.0,-5.0696,-5.0696,0.0,0.0,0.0,-5.0696,0.0,0.0,-4.9103,-4.8308,-4.4602,-4.5945,-4.5276,-4.1731,0.0,-4.2346,-4.3794,-4.0471,0.0,-4.088,-4.1035,-4.0178,-3.864,-4.0334,-4.0178,-3.856,-3.856,-3.8841,-3.9208,-3.9667,-4.0152,-4.0455,-4.0895,-4.106,-4.106,-4.106,-4.0807,-4.0318,0.0,0.0,0.0,0.0,0.0,0.0,0.0,-5.35,-5.35,-5.35,-5.3815,-5.3993,-5.3919,-5.4333,-5.4657,-5.4687,-5.5306,-5.5931,-5.6471,-5.6954,-5.7482,-5.8195,-5.8114,-5.8169,-5.839,-5.8169,-5.8169,0.0,0.0,0.0,-5.7816,-5.7941,0.0,0.0,0.0,-5.7134,-5.648,-5.5703,-5.5091,-5.4501,-5.3241,-5.2262,-5.1429,-5.0916,-5.0245,-4.959,-4.959,-4.959,-4.959,-4.959,-4.959,-4.959,-4.959,-4.959,-4.959,-4.959,-4.959,-4.959,-4.959,-4.9841,-5.0077,-5.0172,-5.0008,-4.9934,-5.0362,-5.0149,-4.9974,-5.0287,-5.0551,-5.0696,-5.0696,-5.0696,-5.0696,0.0,0.0,0.0,0.0,0.0,0.0,0.0,0.0,-5.0696,0.0,0.0,0.0,0.0,0.0,0.0,-4.4924,-4.6241,0.0,-4.4623,0.0,-4.311,-4.3718,-4.1307,-4.0412,-4.1113,-4.2079,-4.1693,-4.0178,-4.1771,-4.1074,-3.856,-3.856,-3.886,-3.9263,-3.9667,-4.0171,-4.051,-4.0895,-4.106,-4.106,-4.106,-4.0639,-3.9961,-5.35,0.0,-5.35,0.0,-5.35,-5.35,-5.35,-5.35,-5.35,-5.35,-5.3658,-5.3762,-5.3762,-5.4282,-5.4539,-5.4304,-5.4923,-5.5653,-5.6356,-5.6736,-5.7328,-5.8166,-5.8195,0.0,-5.8195,-5.8085,-5.8225,-5.8555,-5.8445,0.0,0.0,0.0,0.0,0.0,-5.7416,-5.736,-5.7247,-5.6337,-5.5934,-5.5876,-5.456,-5.3302,-5.2077,-5.1616,-5.0727,-4.959,-4.959,-4.959,-4.959,-4.959,-4.959,-4.959,-4.959,-4.959,-4.959,-4.959,-4.959,-4.9615,-4.9791,-5.0117,-5.0494,-5.082,-5.0687,-5.0591,-5.1132,-5.0676,-5.0215,-5.0624,-5.0696,-5.0696,-5.0696,-5.0696,-5.0696,-5.0696,0.0,0.0,0.0,0.0,0.0,0.0,-5.0696,-5.0696,-5.0696,0.0,0.0,0.0,0.0,0.0,0.0,0.0,0.0,0.0,0.0,0.0,0.0,-4.2443,-4.1559,-4.1113,-4.2749,-4.2673,-4.1094,-4.1771,-4.0763,-3.856,-3.856,-3.8933,-3.9428,-3.9722,-4.0244,-4.0675,-4.095,-4.106,-4.106,-4.106,-4.0554,-3.9689,-5.35,-5.35,-5.35,-5.35,-5.35,-5.35,-5.35,-5.35,-5.35,-5.35,-5.35,-5.35,-5.35,-5.3993,-5.4304,-5.4304,-5.4923,-5.5706,-5.6651,-5.7089,-5.7576,0.0,0.0,-5.8195,-5.8195,-5.7948,-5.7948,-5.8195,0.0,0.0,-5.6844,0.0,-5.7,-5.7303,-5.7669,-5.7613,-5.7303,-5.7303,-5.7303,-5.7191,-5.5876,-5.4619,-5.3302,-5.1989,-5.0727,-4.959,-4.959,-4.959,-4.959,-4.959,-4.959,-4.959,-4.959,-4.959,-4.959,-4.959,-4.959,-4.9715,-5.0268,-5.0419,-5.0695,-5.18,-5.1532,-5.1132,-5.1698,-5.126,-5.0696,-5.0696,-5.0696,-5.0696,-5.0696,-5.0696,-5.0696,-5.0696,0.0,0.0,0.0,0.0,0.0,0.0,-5.0696,-5.0696,-5.0696,0.0,0.0,0.0,0.0,0.0,0.0,0.0,0.0,-4.6603,-4.6433,0.0,-4.4096,-4.3718,-4.2673,-4.1113,-4.2749,-4.2673,-4.1016,-3.9411,-3.864,-3.856,-3.856,-3.9098,-3.9913,-3.9932,-4.0409,-4.106,-4.106,-4.106,-4.106,-4.106,-4.0554,-3.9689,-5.35,-5.35,-5.35,-5.35,-5.35,-5.35,-5.35,-5.35,-5.35,-5.35,-5.35,-5.35,-5.35,-5.3815,-5.4097,0.0,-5.4355,-5.4766,0.0,-5.6143,-5.6682,-5.7462,-5.7959,-5.8085,-5.7948,-5.8059,-5.8059,-5.7948,0.0,0.0,0.0,-5.7488,-5.7409,-5.7303,-5.7416,-5.7416,-5.7303,-5.7303,-5.7303,-5.7247,-5.6879,-5.5934,-5.4619,-5.3362,-5.2015,-5.079,-4.9886,-4.959,-4.959,-4.959,-4.959,-4.959,-4.959,-4.959,-4.959,-4.959,-4.9866,-5.0193,-5.0368,-5.0971,-5.1582,-5.1637,-5.1624,-5.153,-5.1397,-5.1025,-5.0696,-5.0696,-5.0696,-5.0696,-5.0696,-5.0696,-5.0696,-5.0696,-5.0696,0.0,0.0,0.0,0.0,0.0,-5.0696,-5.0696,0.0,-5.0696,0.0,0.0,0.0,0.0,0.0,0.0,0.0,0.0,-4.6847,0.0,-4.5319,-4.4096,-4.3794,-4.4344,-4.3794,-4.2673,-4.1016,-3.9333,-3.856,-3.8579,-3.8933,-3.9355,-3.995,-4.0226,-4.0584,-4.106,-4.106,-4.106,-4.106,-4.0723,-4.0216,-3.9604,-5.35,-5.35,-5.35,-5.35,-5.35,-5.35,-5.35,-5.35,-5.35,-5.35,-5.35,-5.3553,-5.3658,-5.3815,0.0,-5.4304,-5.4149,-5.4443,-5.5352,-5.5819,-5.6412,-5.7168,-5.7871,-5.8029,-5.7781,0.0,0.0,-5.7781,-5.8003,-5.7892,-5.7613,-5.7613,-5.7472,-5.7303,-5.7303,-5.7303,-5.7303,-5.7303,-5.7303,-5.7303,-5.7303,-5.6537,-5.5295,-5.3964,-5.2692,-5.133,-5.0078,-4.959,-4.959,-4.959,-4.959,-4.959,-4.959,-4.959,-4.959,-4.959,-4.9992,-5.0469,-5.0695,-5.1398,-5.2083,-5.1849,-5.1827,-5.1681,-5.1095,-5.0837,-5.0696,-5.0696,-5.0696,-5.0696,-5.0696,-5.0696,-5.0696,-5.0696,-5.0696,-5.0696,-5.0696,0.0,0.0,0.0,0.0,0.0,0.0,-5.0696,-5.0696,0.0,0.0,0.0,0.0,0.0,0.0,-4.898,-4.7603,0.0,-4.5937,-4.5543,-4.5543,-4.5841,-4.4247,-4.2366,-4.0099,-3.9096,-3.856,-3.8579,-3.9061,-3.9465,-3.995,-4.029,-4.0694,-4.106,-4.106,-4.106,-4.106,-4.0554,-4.0131,-3.9604,-5.35,-5.35,0.0,0.0,-5.35,0.0,-5.35,-5.35,-5.35,-5.35,-5.35,-5.3605,-5.3867,-5.3919,-5.3993,-5.4252,0.0,0.0,0.0,-5.6001,-5.6574,-5.7193,-5.7841,-5.8059,-5.7781,-5.7781,-5.7781,-5.7836,-5.7781,-5.7669,-5.7303,-5.7303,-5.7303,-5.7303,-5.7303,-5.7303,-5.7303,-5.7303,-5.7303,-5.7303,-5.7303,-5.6594,-5.5412,-5.4024,-5.2754,-5.1455,-5.0078,-4.959,-4.959,-4.959,-4.959,-4.959,-4.959,-4.9615,-4.9665,-4.9665,-5.0042,-5.0594,-5.1172,-5.1749,-5.2209,-5.2322,-5.203,-5.1541,-5.0837,-5.0696,-5.0696,-5.0696,-5.0696,-5.0696,-5.0696,-5.0696,-5.0696,-5.0696,-5.0696,-5.0696,-5.0696,0.0,0.0,0.0,0.0,0.0,0.0,-5.0696,-5.0696,0.0,0.0,0.0,0.0,0.0,-4.9389,-4.898,-4.8546,-4.753,-4.6085,-4.7552,-4.7457,-4.5841,-4.4247,-4.1828,-3.8798,-3.864,-3.856,-3.8579,-3.908,-3.9483,-3.995,-4.0327,-4.073,-4.106,-4.106,-4.106,-4.106,-4.0572,-4.0046,-3.9604,0.0,0.0,-5.35,-5.35,-5.35,-5.35,-5.35,-5.35,-5.35,-5.35,-5.35,-5.3605,-5.3867,-5.371,-5.3815,-5.4252,-5.4097,-5.4081,-5.4332,-5.5366,-5.6153,-5.6515,-5.7386,-5.7892,-5.7781,-5.7781,-5.7892,-5.8114,-5.7892,-5.7781,-5.7669,-5.7416,-5.7303,-5.7303,-5.7303,-5.7303,-5.7303,-5.7303,-5.7303,-5.7303,-5.7303,-5.7134,-5.6594,-5.4323,-5.3302,-5.2754,-5.0436,-4.959,-4.959,-4.959,-4.959,-4.959,-4.959,-4.9891,-5.0218,-5.0218,-5.0619,-5.1197,-5.1749,-5.2302,-5.2548,-5.205,-5.1471,-5.0908,-5.0767,-5.0696,-5.0696,-5.0696,-5.0696,-5.0696,-5.0696,-5.0696,-5.0696,-5.0696,-5.0696,-5.0696,-5.0696,-5.0696,0.0,0.0,-5.0696,-5.0696,-5.0696,-5.0696,-5.0696,0.0,0.0,0.0,0.0,-5.0175,-4.9675,-4.898,-4.7676,-4.7214,-4.7772,-4.692,-4.6307,-4.5841,-4.4247,-4.2443,-4.049,-3.9175,-3.856,-3.8597,-3.9392,-3.984,-3.9987,-4.0704,-4.0969,-4.106,-4.106,-4.106,-4.0976,-4.0216,-3.9791,-3.9604,-5.4908,-5.4531,-5.4252,-5.4252,-5.3815,-5.3553,-5.3658,-5.3553,-5.3553,-5.3658,-5.3658,-5.3762,-5.3919,-5.3867,-5.3993,-5.4252,-5.4149,-5.4097,-5.4097,-5.5466,-5.6308,-5.6279,-5.7353,-5.8003,-5.8003,-5.8003,-5.8003,-5.8003,-5.7725,-5.7557,-5.7557,-5.736,-5.7303,-5.7303,-5.7303,-5.7303,-5.7303,-5.7303,-5.7303,-5.7303,-5.7303,-5.7303,-5.7078,-5.5091,-5.4382,-5.4024,-5.1419,-5.0499,-5.0372,-4.9783,-4.959,-4.959,-4.959,-4.9967,-5.0469,-5.0745,-5.1222,-5.1724,-5.2026,-5.2503,-5.2723,-5.196,-5.126,-5.0696,-5.0696,-5.0696,-5.0696,-5.0696,-5.0696,-5.0696,-5.0696,-5.0696,-5.0696,-5.0696,-5.0696,-5.0696,-5.0696,-5.0696,0.0,-5.0696,-5.0696,-5.0696,-5.0696,-5.0696,-5.0696,-5.0696,0.0,0.0,-5.0696,-5.0483,-5.0033,-4.9245,-4.8209,-4.7918,-4.84,-4.7457,-4.6307,-4.4774,-4.3945,-4.2289,-3.9943,-3.9017,-3.8731,-3.8951,-3.9575,-4.0024,-4.0262,-4.0804,-4.106,-4.106,-4.106,-4.106,-4.0976,-4.0028,-3.9689,-3.9604,-5.6577,-5.5925,-5.526,-5.514,-5.4355,-5.3762,-5.3815,-5.3658,-5.3605,-5.3838,-5.3919,-5.3919,-5.4023,-5.4149,-5.4252,-5.4355,-5.4304,-5.4304,-5.4252,-5.5752,-5.6574,-5.6332,-5.7571,-5.825,-5.8195,-5.814,-5.8059,-5.7781,-5.7472,-5.736,-5.736,-5.7303,-5.7303,-5.7303,-5.7303,-5.7303,-5.7303,-5.7303,-5.7303,-5.7303,-5.7303,-5.7303,-5.7191,-5.5876,-5.5412,-5.5032,-5.242,-5.1492,-5.133,-5.0014,-4.959,-4.9615,-4.969,-5.0092,-5.067,-5.1247,-5.18,-5.2226,-5.2226,-5.251,-5.2654,-5.196,-5.126,-5.0767,-5.0696,-5.0696,-5.0696,-5.0696,-5.0696,-5.0696,-5.0696,-5.0696,-5.0696,-5.0696,-5.0696,-5.0696,-5.0696,0.0,-5.0696,-5.0696,-5.0696,-5.0696,-5.0696,-5.0696,-5.0696,-5.0696,-5.0696,-5.0696,0.0,-5.0696,-5.0341,-4.9509,-4.9245,-4.8835,-4.84,-4.8159,-4.6625,-4.3869,-4.3339,-4.1693,-3.8956,-3.8719,-3.886,-3.9263,-3.9667,-4.0088,-4.051,-4.0895,-4.106,-4.106,-4.106,-4.106,-4.0892,-4.0028,-3.9706,-3.9433,-5.6577,-5.6432,-5.6122,-5.526,-5.4988,-5.4531,-5.371,-5.353,-5.3605,-5.3838,-5.3919,-5.4075,-5.4568,-5.423,-5.4178,-5.4671,-5.4487,-5.42,-5.3993,-5.5699,-5.6598,-5.6332,-5.7818,-5.85,-5.8195,-5.8003,-5.7836,-5.7781,-5.7725,-5.7725,-5.7725,-5.7416,-5.7303,-5.7303,-5.7303,-5.7303,-5.7303,-5.7303,-5.7303,-5.7303,-5.7303,-5.7303,-5.7191,-5.5876,-5.5412,-5.5032,-5.242,-5.1492,-5.133,-5.0014,-4.959,-4.9665,-5.0142,-5.067,-5.1247,-5.1825,-5.2377,-5.2804,-5.2804,-5.2648,-5.2377,-5.189,-5.1446,-5.1025,-5.0767,-5.0696,-5.0696,-5.0696,-5.0696,-5.0696,-5.0696,-5.0696,-5.0696,-5.0696,-5.0696,-5.0696,-5.0696,0.0,-5.0696,-5.0696,-5.0696,-5.0696,-5.0696,-5.0696,-5.0696,-5.0696,-5.0696,-5.0696,-5.0696,-5.0696,-5.0341,-4.9509,-4.9437,-4.9101,-4.84,-4.6994,-4.6011,-4.5468,-4.2749,-4.1171,-4.0646,-3.9254,-3.886,-3.9245,-3.9648,-4.007,-4.051,-4.0895,-4.106,-4.106,-4.106,-4.0892,-4.0469,-3.9876,-3.9451,-3.9025,-5.824,-5.7824,-5.7307,-5.6831,-5.6396,-5.5925,-5.546,-5.541,-5.548,-5.5728,-5.5341,-5.5119,-5.5491,-5.4815,-5.4568,-5.5006,-5.4722,-5.4635,-5.4886,-5.6139,-5.6809,-5.6521,-5.7764,-5.828,-5.8003,-5.7892,-5.7781,-5.7781,-5.7613,-5.7528,-5.7528,-5.736,-5.7303,-5.7303,-5.7303,-5.7303,-5.7303,-5.7303,-5.7303,-5.7303,-5.7303,-5.7303,-5.7247,-5.6651,-5.6423,-5.6165,-5.4295,-5.3153,-5.2385,-5.1105,-5.0181,-4.969,-5.0243,-5.082,-5.1398,-5.195,-5.2503,-5.2929,-5.2929,-5.2654,-5.2308,-5.189,-5.1516,-5.1095,-5.0767,-5.0696,-5.0696,-5.0696,-5.0696,-5.0696,-5.0696,-5.0696,-5.0696,-5.0696,-5.0696,0.0,0.0,-5.0696,-5.0696,-5.0696,-5.0696,-5.0696,-5.0696,-5.0696,-5.0696,-5.0696,-5.0696,-5.0696,-5.0696,-5.0696,-5.0341,-4.9509,-4.9078,-4.874,-4.84,-4.6773,-4.5468,-4.4548,-4.2233,-4.0646,-3.9726,-3.8956,-3.8988,-3.9575,-3.9758,-4.0198,-4.0804,-4.0987,-4.106,-4.106,-4.106,-4.0807,-4.03,-3.9876,-3.9366,-3.8939,-5.976,-5.9197,-5.8578,-5.8318,-5.7824,-5.7339,-5.7117,-5.7086,-5.715,-5.7418,-5.6783,-5.6347,-5.6625,-5.569,-5.5179,-5.5501,-5.5078,-5.5121,-5.5797,-5.6631,-5.7079,-5.6941,-5.7823,-5.8169,-5.7892,-5.7836,-5.7781,-5.7781,-5.7472,-5.7303,-5.7303,-5.7303,-5.7303,-5.7303,-5.7303,-5.7303,-5.7303,-5.7303,-5.7303,-5.7303,-5.7303,-5.7303,-5.7303,-5.7303,-5.7303,-5.7134,-5.5876,-5.456,-5.3302,-5.1927,-5.0766,-4.9891,-5.0444,-5.1021,-5.1574,-5.2126,-5.2603,-5.2929,-5.2929,-5.2723,-5.2377,-5.196,-5.1586,-5.1236,-5.0767,-5.0696,-5.0696,-5.0696,-5.0696,-5.0696,-5.0696,-5.0696,-5.0696,-5.0696,0.0,0.0,0.0,-5.0696,-5.0696,-5.0696,-5.0696,-5.0696,-5.0696,-5.0696,-5.0696,-5.0696,-5.0696,-5.0696,-5.0696,-5.0625,-5.0199,-4.9389,-4.874,-4.8232,-4.7845,-4.6159,-4.4548,-4.2902,-4.1326,-3.9864,-3.856,-3.8731,-3.9171,-3.9932,-4.0024,-4.0483,-4.106,-4.106,-4.106,-4.106,-4.106,-4.0723,-4.0216,-3.9858,-3.9366,-3.8768,-6.0022,-6.0022,-5.9684,-5.8651,-5.8587,-5.8328,-5.7402,-5.7261,-5.7355,-5.7668,-5.7465,-5.7465,-5.79,-5.6686,-5.6017,-5.6445,-5.5451,-5.5172,-5.6137,-5.6765,-5.7258,-5.7619,-5.8278,-5.85,-5.8195,-5.7948,-5.7781,-5.7781,-5.7472,-5.7303,-5.7303,-5.7303,-5.7303,-5.7303,-5.7303,-5.7303,-5.7303,-5.7303,-5.7303,-5.7303,-5.7303,-5.7303,-5.7303,-5.7303,-5.7303,-5.7134,-5.5876,-5.456,-5.3302,-5.1927,-5.096,-5.0469,-5.1021,-5.1599,-5.2151,-5.2703,-5.2904,-5.2929,-5.2929,-5.2861,-5.2723,-5.196,-5.182,-5.1611,-5.0837,-5.0696,-5.0696,-5.0696,-5.0696,-5.0696,-5.0696,-5.0696,-5.0696,-5.0696,0.0,0.0,-5.0696,-5.0696,-5.0696,-5.0696,-5.0696,-5.0696,-5.0696,-5.0696,-5.0696,-5.0696,-5.0696,-5.0696,-5.0696,-5.0341,-4.9818,-4.9052,-4.8618,-4.7626,-4.6085,-4.4473,-4.2902,-4.1249,-3.9569,-3.8719,-3.8579,-3.9025,-3.9428,-3.995,-4.0253,-4.0657,-4.106,-4.106,-4.106,-4.106,-4.106,-4.0554,-3.9774,-3.9689,-3.9093,-3.8323,-6.0239,-6.0195,-5.999,-5.9739,-5.9838,-5.9805,-5.9323,-5.9323,-5.9455,-5.9543,-5.9011,-5.8696,-5.8979,-5.7418,-5.6427,-5.659,-5.6013,-5.5974,-5.6705,-5.7363,-5.7915,-5.8332,-5.8217,-5.8059,-5.7948,-5.7669,-5.7472,-5.7472,-5.736,-5.7303,-5.7303,-5.7303,-5.7303,-5.7303,-5.7303,-5.7303,-5.7303,-5.7303,-5.7303,-5.7303,-5.7303,-5.7303,-5.7303,-5.7303,-5.7303,-5.7247,-5.6765,-5.5236,-5.3423,-5.2937,-5.1684,-5.0519,-5.1096,-5.1649,-5.2226,-5.2754,-5.2929,-5.2929,-5.2929,-5.2723,-5.2446,-5.196,-5.1586,-5.1306,-5.0837,-5.0696,-5.0696,-5.0696,-5.0696,-5.0696,-5.0696,-5.0696,-5.0696,-5.0696,0.0,-5.0696,-5.0696,-5.0696,-5.0696,-5.0696,-5.0696,-5.0696,-5.0696,-5.0696,-5.0696,-5.0696,-5.0696,-5.0696,-5.0696,-5.0104,-4.9532,-4.9003,-4.8618,-4.7626,-4.5915,-4.4323,-4.2673,-4.1113,-3.9411,-3.856,-3.8579,-3.9043,-3.9447,-3.995,-4.0373,-4.0694,-4.106,-4.106,-4.106,-4.106,-4.106,-4.0554,-3.9689,-3.9689,-3.9093,-3.8323,-6.0335,-6.0335,-6.0335,-6.0463,-6.0675,-6.0793,-6.0666,-6.075,-6.0802,-6.0802,-6.0173,-5.9794,-6.0044,-5.8483,-5.7559,-5.7872,-5.7426,-5.7385,-5.7907,-5.8158,-5.8435,-5.8719,-5.828,-5.8003,-5.7948,-5.7584,-5.7472,-5.7472,-5.736,-5.7303,-5.7303,-5.7303,-5.7303,-5.7303,-5.7303,-5.7303,-5.7303,-5.7303,-5.7303,-5.7303,-5.7303,-5.7303,-5.7303,-5.7303,-5.7303,-5.7303,-5.7303,-5.5644,-5.3537,-5.37,-5.2387,-5.0795,-5.1348,-5.1925,-5.2427,-5.2829,-5.2929,-5.2929,-5.2929,-5.2654,-5.2308,-5.189,-5.1586,-5.1306,-5.0837,-5.0696,-5.0696,-5.0696,-5.0696,-5.0696,-5.0696,-5.0696,-5.0696,-5.0696,-5.0696,-5.0696,-5.0696,-5.0696,-5.0696,-5.0696,-5.0696,-5.0696,-5.0696,-5.0696,-5.0696,-5.0696,-5.0696,-5.0625,-5.0341,-4.9675,-4.9173,-4.8835,-4.7991,-4.6847,-4.517,-4.4021,-4.2443,-4.0334,-3.9175,-3.856,-3.8579,-3.919,-3.9575,-3.995,-4.0418,-4.0804,-4.106,-4.106,-4.106,-4.106,-4.106,-4.0554,-3.9689,-3.9689,-3.9093,-3.8323,-6.0368,-6.0548,-6.0717,-6.0717,-6.0919,-6.1119,-6.1119,-6.1119,-6.1119,-6.1119,-6.0877,-6.0802,-6.1077,-6.0001,-5.9689,-6.0623,-5.9795,-5.9379,-5.9695,-5.9084,-5.8694,-5.8694,-5.8694,-5.8555,-5.8195,-5.7948,-5.7781,-5.7781,-5.7472,-5.7303,-5.7303,-5.7303,-5.7303,-5.7303,-5.7303,-5.7303,-5.7303,-5.7303,-5.7303,-5.7303,-5.7303,-5.7303,-5.7303,-5.7303,-5.7303,-5.7303,-5.7303,-5.5703,-5.3592,-5.4127,-5.299,-5.1439,-5.1925,-5.2477,-5.2929,-5.2929,-5.2929,-5.2929,-5.2929,-5.2654,-5.2308,-5.189,-5.182,-5.1611,-5.0837,-5.0696,-5.0696,-5.0696,-5.0696,-5.0696,-5.0696,-5.0696,-5.0696,-5.0696,-5.0696,-5.0696,-5.0696,-5.0696,-5.0696,-5.0696,-5.0696,-5.0696,-5.0696,-5.0696,-5.0696,-5.0696,-5.0696,-5.0341,-4.9509,-4.9196,-4.8835,-4.84,-4.6773,-4.517,-4.3491,-4.3491,-4.1828,-3.856,-3.856,-3.856,-3.8597,-3.9483,-3.9932,-3.9968,-4.0795,-4.106,-4.106,-4.106,-4.106,-4.106,-4.106,-4.0554,-3.9689,-3.9689,-3.9093,-3.8323,-6.0835,-6.0793,-6.076,-6.0961,-6.1077,-6.1119,-6.1119,-6.1119,-6.1119,-6.1119,-6.1002,-6.1201,-6.1815,-6.0925,-6.0611,-6.1413,-6.0976,-6.0603,-6.0435,-5.9485,-5.8991,-5.8991,-5.8555,-5.8225,-5.7948,-5.7836,-5.7669,-5.7416,-5.736,-5.7303,-5.7303,-5.7303,-5.7303,-5.7303,-5.7303,-5.7303,-5.7303,-5.7303,-5.7303,-5.7303,-5.7303,-5.7303,-5.7303,-5.7303,-5.7303,-5.7303,-5.7303,-5.6222,-5.479,-5.4433,-5.3535,-5.263,-5.2649,-5.2804,-5.2929,-5.2929,-5.2929,-5.2929,-5.2929,-5.2861,-5.2585,-5.196,-5.1586,-5.1236,-5.0767,-5.0696,-5.0696,-5.0696,-5.0696,-5.0696,-5.0696,-5.0696,-5.0696,-5.0696,-5.0696,-5.0696,-5.0696,-5.0696,-5.0696,-5.0696,-5.0696,-5.0696,-5.0696,-5.0696,-5.0696,-5.0696,-5.0483,-5.0033,-4.9509,-4.9196,-4.8835,-4.84,-4.6773,-4.517,-4.3491,-4.2386,-4.0705,-3.856,-3.856,-3.8786,-3.908,-3.9593,-4.0079,-4.0308,-4.084,-4.106,-4.106,-4.106,-4.106,-4.106,-4.0723,-4.0216,-3.9689,-3.9366,-3.8854,-3.8323,-6.0919,-6.0919,-6.0919,-6.1077,-6.1119,-6.1119,-6.1119,-6.1119,-6.1119,-6.1119,-6.1351,-6.1682,-6.2155,-6.1906,-6.2014,-6.2733,-6.2514,-6.2041,-6.1407,-6.0337,-5.9499,-5.8936,-5.8609,-5.828,-5.7948,-5.7725,-5.7472,-5.7303,-5.7303,-5.7303,-5.7303,-5.7303,-5.7303,-5.7303,-5.7303,-5.7303,-5.7303,-5.7303,-5.7303,-5.7303,-5.7303,-5.7303,-5.7303,-5.7303,-5.7303,-5.7303,-5.7303,-5.6623,-5.5684,-5.4883,-5.3948,-5.3048,-5.2977,-5.2929,-5.2929,-5.2929,-5.2929,-5.2929,-5.2929,-5.2929,-5.2723,-5.196,-5.1586,-5.1306,-5.0837,-5.0696,-5.0696,-5.0696,-5.0696,-5.0696,-5.0696,-5.0696,-5.0696,-5.0696,-5.0696,-5.0696,-5.0696,-5.0696,-5.0696,-5.0696,-5.0696,-5.0696,-5.0696,-5.0696,-5.0696,-5.0696,-5.0175,-4.9723,-4.9509,-4.9029,-4.8377,-4.7457,-4.5788,-4.4193,-4.2596,-4.0938,-3.9569,-3.856,-3.856,-3.878,-3.9245,-3.9648,-4.0152,-4.0492,-4.0895,-4.106,-4.106,-4.106,-4.106,-4.106,-4.0572,-4.0131,-3.9604,-3.9195,-3.8683,-3.8323,-6.0717,-6.0919,-6.1119,-6.1119,-6.1119,-6.1119,-6.1119,-6.1152,-6.1218,-6.1218,-6.1815,-6.2321,-6.2387,-6.3017,-6.367,-6.4399,-6.4093,-6.3436,-6.2386,-6.1286,-6.0075,-5.8773,-5.8664,-5.85,-5.8195,-5.764,-5.7303,-5.7303,-5.7303,-5.7303,-5.7303,-5.7303,-5.7303,-5.7303,-5.7303,-5.7303,-5.7303,-5.7303,-5.7303,-5.7303,-5.7303,-5.7303,-5.7303,-5.7303,-5.7303,-5.7303,-5.7361,-5.7053,-5.6451,-5.5484,-5.4249,-5.3067,-5.2929,-5.2929,-5.2929,-5.2929,-5.2929,-5.2929,-5.2929,-5.2929,-5.2723,-5.196,-5.182,-5.1611,-5.0837,-5.0696,-5.0696,-5.0696,-5.0696,-5.0696,-5.0696,-5.0696,-5.0696,-5.0696,-5.0696,-5.0696,-5.0696,-5.0696,-5.0696,-5.0696,-5.0696,-5.0696,-5.0696,-5.0696,-5.0696,-5.0696,-4.9961,-4.9509,-4.9509,-4.8812,-4.7626,-4.5915,-4.4323,-4.2749,-4.1113,-3.9411,-3.856,-3.856,-3.856,-3.886,-3.93,-3.9667,-4.0171,-4.0547,-4.0895,-4.106,-4.106,-4.106,-4.106,-4.0976,-4.0554,-4.0046,-3.9604,-3.911,-3.8683,-3.8323,-6.1002,-6.1077,-6.1119,-6.1119,-6.1119,-6.1119,-6.1119,-6.1583,-6.1947,-6.1947,-6.2577,-6.3315,-6.3835,-6.4034,-6.4432,-6.5127,-6.4387,-6.3436,-6.2386,-6.1286,-6.018,-5.9045,-5.8555,-5.825,-5.8195,-5.7892,-5.7557,-5.7303,-5.7303,-5.7303,-5.7303,-5.7303,-5.7303,-5.7303,-5.7303,-5.7303,-5.7303,-5.7303,-5.7303,-5.7303,-5.7303,-5.7303,-5.7303,-5.7303,-5.7303,-5.7361,-5.7884,-5.8002,-5.7683,-5.6349,-5.5309,-5.435,-5.3247,-5.2929,-5.2929,-5.2929,-5.2929,-5.2929,-5.2929,-5.2929,-5.2723,-5.196,-5.182,-5.1611,-5.0837,-5.0696,-5.0696,-5.0696,-5.0696,-5.0696,-5.0696,-5.0696,-5.0696,-5.0696,-5.0696,-5.0696,-5.0696,-5.0696,-5.0696,-5.0696,-5.0696,-5.0696,-5.0696,-5.0696,-5.0696,-5.0696,-4.9961,-4.9509,-4.9509,-4.8812,-4.7626,-4.5915,-4.4323,-4.2749,-4.1113,-3.9411,-3.856,-3.856,-3.856,-3.9025,-3.9722,-3.9795,-4.0235,-4.0932,-4.1024,-4.106,-4.106,-4.106,-4.0892,-4.0469,-4.0046,-3.9536,-3.911,-3.8597,-3.8409,-3.8323,-6.1119,-6.1119,-6.1119,-6.1119,-6.1384,-6.1616,-6.1616,-6.2255,-6.2719,-6.2719,-6.3382,-6.3935,-6.4299,-6.4664,-6.5028,-6.5392,-6.4897,-6.4175,-6.3116,-6.209,-6.0979,-5.9895,-5.8961,-5.839,-5.8195,-5.7948,-5.7669,-5.7303,-5.7303,-5.7303,-5.7303,-5.7303,-5.7303,-5.7303,-5.7303,-5.7303,-5.7303,-5.7303,-5.7303,-5.7303,-5.7303,-5.7303,-5.7303,-5.7303,-5.7507,-5.7826,-5.8174,-5.8263,-5.8158,-5.766,-5.6407,-5.4887,-5.4148,-5.3452,-5.2929,-5.2929,-5.2929,-5.2929,-5.2929,-5.2929,-5.2723,-5.196,-5.182,-5.1611,-5.0837,-5.0696,-5.0696,-5.0696,-5.0696,-5.0696,-5.0696,-5.0696,-5.0696,-5.0696,-5.0696,-5.0696,-5.0696,-5.0696,-5.0696,-5.0696,-5.0696,-5.0696,-5.0696,-5.0696,-5.0696,-5.0696,-4.9961,-4.9509,-4.9509,-4.8041,-4.6477,-4.4774,-4.3207,-4.1539,-3.9962,-3.9035,-3.856,-3.856,-3.8762,-3.9245,-3.9932,-4.0052,-4.0473,-4.106,-4.106,-4.106,-4.106,-4.106,-4.0976,-4.0639,-3.9943,-3.9536,-3.9281,-3.858,-3.8323,-3.8323,-6.1119,-6.1119,-6.1152,-6.1285,-6.1781,-6.2255,-6.2387,-6.3017,-6.3514,-6.3514,-6.41,-6.4531,-6.4498,-6.5061,-6.5425,-6.5425,-6.5425,-6.4988,-6.3941,-6.3068,-6.204,-6.0722,-5.9523,-5.8634,-5.8195,-5.7892,-5.7613,-5.7303,-5.7303,-5.7303,-5.7303,-5.7303,-5.7303,-5.7303,-5.7303,-5.7303,-5.7303,-5.7303,-5.7303,-5.7303,-5.7303,-5.7361,-5.7477,-5.7477,-5.7884,-5.8493,-5.8581,-5.8631,-5.8664,-5.8737,-5.7258,-5.526,-5.482,-5.3835,-5.2929,-5.2929,-5.2929,-5.2929,-5.2929,-5.2929,-5.2723,-5.196,-5.182,-5.1611,-5.0837,-5.0696,-5.0696,-5.0696,-5.0696,-5.0696,-5.0696,-5.0696,-5.0696,-5.0696,-5.0696,-5.0696,-5.0696,-5.0696,-5.0696,-5.0696,-5.0696,-5.0696,-5.0696,-5.0696,-5.0696,-5.0696,-4.9961,-4.9509,-4.9509,-4.7192,-4.517,-4.3566,-4.1925,-4.0334,-3.864,-3.856,-3.8597,-3.867,-3.9153,-3.952,-3.9932,-4.0354,-4.0694,-4.106,-4.106,-4.106,-4.106,-4.106,-4.0976,-4.0807,-4.0028,-3.9604,-3.9348,-3.858,-3.8323,-3.8323,-6.1119,-6.1119,-6.1318,-6.1914,-6.2155,-6.242,-6.3083,-6.3813,-6.4233,-6.4233,-6.4829,-6.526,-6.526,-6.5359,-6.5425,-6.5425,-6.5425,-6.4988,-6.3941,-6.3753,-6.281,-6.0805,-6.0045,-5.9195,-5.8195,-5.764,-5.736,-5.7303,-5.7303,-5.7303,-5.7303,-5.7303,-5.7303,-5.7303,-5.7303,-5.7303,-5.7303,-5.7303,-5.7303,-5.7303,-5.7303,-5.7652,-5.8174,-5.8174,-5.8581,-5.9248,-5.9742,-6.0291,-6.0416,-5.8032,-5.7038,-5.6325,-5.3971,-5.3042,-5.2929,-5.2929,-5.2929,-5.2929,-5.2929,-5.2929,-5.2723,-5.196,-5.182,-5.1611,-5.0837,-5.0696,-5.0696,-5.0696,-5.0696,-5.0696,-5.0696,-5.0696,-5.0696,-5.0696,-5.0696,-5.0696,-5.0696,-5.0696,-5.0696,-5.0696,-5.0696,-5.0696,-5.0696,-5.0696,-5.0696,-5.0696,-4.9961,-4.9509,-4.9509,-4.7192,-4.517,-4.3566,-4.1925,-4.0334,-3.864,-3.856,-3.8725,-3.9153,-3.9575,-3.9877,-3.9932,-4.0354,-4.0694,-4.106,-4.106,-4.106,-4.106,-4.106,-4.0639,-3.9858,-3.9774,-3.9178,-3.8494,-3.8323,-3.8323,-3.8323,-6.1616,-6.1715,-6.1947,-6.2719,-6.3183,-6.3547,-6.3835,-6.4498,-6.4962,-6.4962,-6.5227,-6.5425,-6.5425,-6.5425,-6.5425,-6.5425,-6.5425,-6.5213,-6.4761,-6.3673,-6.2534,-6.1356,-5.994,-5.8822,-5.8003,-5.7725,-5.7472,-5.7303,-5.7303,-5.7303,-5.7303,-5.7303,-5.7303,-5.7303,-5.7303,-5.7303,-5.7303,-5.7303,-5.7507,-5.7855,-5.7855,-5.8261,-5.8871,-5.8871,-5.9248,-5.9887,-6.0526,-6.0932,-6.0863,-5.8843,-5.7615,-5.665,-5.466,-5.3521,-5.2929,-5.2929,-5.2929,-5.2929,-5.2929,-5.2929,-5.2723,-5.196,-5.182,-5.1611,-5.0837,-5.0696,-5.0696,-5.0696,-5.0696,-5.0696,-5.0696,-5.0696,-5.0696,-5.0696,-5.0696,-5.0696,-5.0696,-5.0696,-5.0696,-5.0696,-5.0696,-5.0696,-5.0696,-5.0696,-5.0625,-5.0412,-4.9795,-4.8982,-4.7872,-4.5766,-4.3815,-4.2233,-4.0549,-3.9333,-3.864,-3.856,-3.8762,-3.9245,-3.9648,-4.0042,-4.0217,-4.062,-4.0895,-4.106,-4.106,-4.106,-4.106,-4.106,-4.0723,-4.0046,-3.9791,-3.9093,-3.8323,-3.8323,-3.8323,-3.8323]}]]